<?xml version='1.0' encoding='UTF-8'?><gpx version="1.1" creator="JPX - https://github.com/jenetics/jpx" xmlns="http://www.topografix.com/GPX/1/1"><trk><trkseg><trkpt lat="45.0490988" lon="7.8043515"><ele>388.0</ele><time>2026-04-03T15:54:27.692Z</time></trkpt><trkpt lat="45.049038" lon="7.8045092"><ele>388.0</ele><time>2026-04-03T15:54:29.694Z</time></trkpt><trkpt lat="45.0489899" lon="7.8045931"><ele>388.0</ele><time>2026-04-03T15:54:30.7Z</time></trkpt><trkpt lat="45.0489344" lon="7.8046756"><ele>388.0</ele><time>2026-04-03T15:54:31.696Z</time></trkpt><trkpt lat="45.0488705" lon="7.8047642"><ele>388.0</ele><time>2026-04-03T15:54:32.696Z</time></trkpt><trkpt lat="45.0487888" lon="7.8048731"><ele>388.0</ele><time>2026-04-03T15:54:33.692Z</time></trkpt><trkpt lat="45.0487" lon="7.8049908"><ele>388.0</ele><time>2026-04-03T15:54:34.694Z</time></trkpt><trkpt lat="45.0486041" lon="7.8051138"><ele>388.0</ele><time>2026-04-03T15:54:35.69Z</time></trkpt><trkpt lat="45.0485177" lon="7.8052176"><ele>388.0</ele><time>2026-04-03T15:54:36.689Z</time></trkpt><trkpt lat="45.0484324" lon="7.8053157"><ele>390.25</ele><time>2026-04-03T15:54:37.696Z</time></trkpt><trkpt lat="45.0483401" lon="7.805409"><ele>392.5</ele><time>2026-04-03T15:54:38.693Z</time></trkpt><trkpt lat="45.0482323" lon="7.8054973"><ele>394.75</ele><time>2026-04-03T15:54:39.695Z</time></trkpt><trkpt lat="45.0481218" lon="7.8055531"><ele>397.0</ele><time>2026-04-03T15:54:40.694Z</time></trkpt><trkpt lat="45.0480101" lon="7.8055703"><ele>397.0</ele><time>2026-04-03T15:54:41.701Z</time></trkpt><trkpt lat="45.0478779" lon="7.8055716"><ele>397.0</ele><time>2026-04-03T15:54:42.697Z</time></trkpt><trkpt lat="45.0477533" lon="7.8055832"><ele>397.0</ele><time>2026-04-03T15:54:43.69Z</time></trkpt><trkpt lat="45.0476202" lon="7.8056242"><ele>397.0</ele><time>2026-04-03T15:54:44.687Z</time></trkpt><trkpt lat="45.047495" lon="7.8056963"><ele>396.0</ele><time>2026-04-03T15:54:45.69Z</time></trkpt><trkpt lat="45.0473728" lon="7.8058007"><ele>395.0</ele><time>2026-04-03T15:54:46.689Z</time></trkpt><trkpt lat="45.0472625" lon="7.8059118"><ele>394.0</ele><time>2026-04-03T15:54:47.696Z</time></trkpt><trkpt lat="45.0471667" lon="7.8060333"><ele>393.0</ele><time>2026-04-03T15:54:48.69Z</time></trkpt><trkpt lat="45.0470787" lon="7.806157"><ele>395.0</ele><time>2026-04-03T15:54:49.691Z</time></trkpt><trkpt lat="45.0470016" lon="7.806272"><ele>397.0</ele><time>2026-04-03T15:54:50.697Z</time></trkpt><trkpt lat="45.0469347" lon="7.806398"><ele>399.0</ele><time>2026-04-03T15:54:51.691Z</time></trkpt><trkpt lat="45.0468757" lon="7.8065463"><ele>401.0</ele><time>2026-04-03T15:54:52.694Z</time></trkpt><trkpt lat="45.0468281" lon="7.8067306"><ele>401.5</ele><time>2026-04-03T15:54:53.694Z</time></trkpt><trkpt lat="45.0467995" lon="7.8069183"><ele>402.0</ele><time>2026-04-03T15:54:54.687Z</time></trkpt><trkpt lat="45.0467854" lon="7.8070971"><ele>402.5</ele><time>2026-04-03T15:54:55.691Z</time></trkpt><trkpt lat="45.0467854" lon="7.8072577"><ele>403.0</ele><time>2026-04-03T15:54:56.694Z</time></trkpt><trkpt lat="45.0467948" lon="7.8074002"><ele>403.00000000000006</ele><time>2026-04-03T15:54:57.693Z</time></trkpt><trkpt lat="45.0468118" lon="7.8075269"><ele>403.0</ele><time>2026-04-03T15:54:58.695Z</time></trkpt><trkpt lat="45.0468346" lon="7.8076275"><ele>403.0</ele><time>2026-04-03T15:54:59.69Z</time></trkpt><trkpt lat="45.0469147" lon="7.8077519"><ele>403.0</ele><time>2026-04-03T15:55:01.699Z</time></trkpt><trkpt lat="45.0469798" lon="7.8077894"><ele>403.00000000000006</ele><time>2026-04-03T15:55:02.692Z</time></trkpt><trkpt lat="45.047065" lon="7.8078101"><ele>403.0</ele><time>2026-04-03T15:55:03.692Z</time></trkpt><trkpt lat="45.0471677" lon="7.8078133"><ele>403.25</ele><time>2026-04-03T15:55:04.689Z</time></trkpt><trkpt lat="45.047304" lon="7.807795"><ele>403.5</ele><time>2026-04-03T15:55:05.694Z</time></trkpt><trkpt lat="45.0474356" lon="7.8077864"><ele>403.75</ele><time>2026-04-03T15:55:06.692Z</time></trkpt><trkpt lat="45.0475505" lon="7.80777"><ele>404.0</ele><time>2026-04-03T15:55:07.689Z</time></trkpt><trkpt lat="45.0476685" lon="7.8077527"><ele>406.25</ele><time>2026-04-03T15:55:08.694Z</time></trkpt><trkpt lat="45.0477917" lon="7.8077305"><ele>408.5</ele><time>2026-04-03T15:55:09.688Z</time></trkpt><trkpt lat="45.0479213" lon="7.8077125"><ele>410.75</ele><time>2026-04-03T15:55:10.698Z</time></trkpt><trkpt lat="45.0480655" lon="7.8077009"><ele>413.0</ele><time>2026-04-03T15:55:11.698Z</time></trkpt><trkpt lat="45.0482212" lon="7.8077091"><ele>415.75</ele><time>2026-04-03T15:55:12.696Z</time></trkpt><trkpt lat="45.0483693" lon="7.8077251"><ele>418.5</ele><time>2026-04-03T15:55:13.689Z</time></trkpt><trkpt lat="45.0485134" lon="7.8077431"><ele>421.25</ele><time>2026-04-03T15:55:14.694Z</time></trkpt><trkpt lat="45.0486632" lon="7.8077498"><ele>424.0</ele><time>2026-04-03T15:55:15.695Z</time></trkpt><trkpt lat="45.0488147" lon="7.807759"><ele>424.0</ele><time>2026-04-03T15:55:16.693Z</time></trkpt><trkpt lat="45.0489744" lon="7.8077804"><ele>424.0</ele><time>2026-04-03T15:55:17.689Z</time></trkpt><trkpt lat="45.0491378" lon="7.8078315"><ele>424.0</ele><time>2026-04-03T15:55:18.692Z</time></trkpt><trkpt lat="45.0492879" lon="7.8078926"><ele>424.6666666666667</ele><time>2026-04-03T15:55:19.696Z</time></trkpt><trkpt lat="45.0494318" lon="7.8079592"><ele>425.33333333333337</ele><time>2026-04-03T15:55:20.687Z</time></trkpt><trkpt lat="45.0495744" lon="7.8080428"><ele>426.0</ele><time>2026-04-03T15:55:21.7Z</time></trkpt><trkpt lat="45.0497086" lon="7.8081286"><ele>426.0</ele><time>2026-04-03T15:55:22.695Z</time></trkpt><trkpt lat="45.0498397" lon="7.808201"><ele>426.0</ele><time>2026-04-03T15:55:23.698Z</time></trkpt><trkpt lat="45.049955" lon="7.8082461"><ele>426.0</ele><time>2026-04-03T15:55:24.694Z</time></trkpt><trkpt lat="45.0500942" lon="7.8082394"><ele>426.0</ele><time>2026-04-03T15:55:25.699Z</time></trkpt><trkpt lat="45.0502544" lon="7.8081797"><ele>425.33333333333337</ele><time>2026-04-03T15:55:26.69Z</time></trkpt><trkpt lat="45.0504085" lon="7.8080809"><ele>424.6666666666667</ele><time>2026-04-03T15:55:27.702Z</time></trkpt><trkpt lat="45.0505623" lon="7.8079528"><ele>424.0</ele><time>2026-04-03T15:55:28.707Z</time></trkpt><trkpt lat="45.0507198" lon="7.8078398"><ele>422.6666666666667</ele><time>2026-04-03T15:55:29.693Z</time></trkpt><trkpt lat="45.0508799" lon="7.8077399"><ele>421.33333333333337</ele><time>2026-04-03T15:55:30.69Z</time></trkpt><trkpt lat="45.0510418" lon="7.8076585"><ele>420.0</ele><time>2026-04-03T15:55:31.692Z</time></trkpt><trkpt lat="45.0512076" lon="7.8076081"><ele>420.0</ele><time>2026-04-03T15:55:32.685Z</time></trkpt><trkpt lat="45.0513836" lon="7.8075814"><ele>420.0</ele><time>2026-04-03T15:55:33.694Z</time></trkpt><trkpt lat="45.0515676" lon="7.8075728"><ele>420.0</ele><time>2026-04-03T15:55:34.685Z</time></trkpt><trkpt lat="45.0517632" lon="7.8075607"><ele>423.33333333333337</ele><time>2026-04-03T15:55:35.696Z</time></trkpt><trkpt lat="45.0519665" lon="7.8075435"><ele>426.6666666666667</ele><time>2026-04-03T15:55:36.693Z</time></trkpt><trkpt lat="45.0521732" lon="7.8075224"><ele>430.0</ele><time>2026-04-03T15:55:37.691Z</time></trkpt><trkpt lat="45.0523677" lon="7.807503"><ele>432.0</ele><time>2026-04-03T15:55:38.704Z</time></trkpt><trkpt lat="45.0525471" lon="7.8074885"><ele>434.0</ele><time>2026-04-03T15:55:39.69Z</time></trkpt><trkpt lat="45.0527121" lon="7.8074767"><ele>436.0</ele><time>2026-04-03T15:55:40.696Z</time></trkpt><trkpt lat="45.0528684" lon="7.8074647"><ele>436.0</ele><time>2026-04-03T15:55:41.695Z</time></trkpt><trkpt lat="45.0530242" lon="7.8074455"><ele>436.0</ele><time>2026-04-03T15:55:42.695Z</time></trkpt><trkpt lat="45.0531815" lon="7.8074033"><ele>436.0</ele><time>2026-04-03T15:55:43.697Z</time></trkpt><trkpt lat="45.0533292" lon="7.807345"><ele>438.0</ele><time>2026-04-03T15:55:44.692Z</time></trkpt><trkpt lat="45.053483" lon="7.807256"><ele>440.0</ele><time>2026-04-03T15:55:45.71Z</time></trkpt><trkpt lat="45.0536326" lon="7.8071665"><ele>442.0</ele><time>2026-04-03T15:55:46.701Z</time></trkpt><trkpt lat="45.0537624" lon="7.8070912"><ele>442.0</ele><time>2026-04-03T15:55:47.698Z</time></trkpt><trkpt lat="45.0538884" lon="7.8070373"><ele>442.0</ele><time>2026-04-03T15:55:48.692Z</time></trkpt><trkpt lat="45.0540455" lon="7.8069947"><ele>442.0</ele><time>2026-04-03T15:55:49.691Z</time></trkpt><trkpt lat="45.0542133" lon="7.8069344"><ele>443.0</ele><time>2026-04-03T15:55:50.694Z</time></trkpt><trkpt lat="45.0543906" lon="7.8068709"><ele>444.0</ele><time>2026-04-03T15:55:51.693Z</time></trkpt><trkpt lat="45.0545742" lon="7.806816"><ele>445.0</ele><time>2026-04-03T15:55:52.699Z</time></trkpt><trkpt lat="45.054749" lon="7.8067865"><ele>445.0</ele><time>2026-04-03T15:55:53.691Z</time></trkpt><trkpt lat="45.0549071" lon="7.8067628"><ele>445.0</ele><time>2026-04-03T15:55:54.692Z</time></trkpt><trkpt lat="45.0550649" lon="7.8067545"><ele>445.0</ele><time>2026-04-03T15:55:55.687Z</time></trkpt><trkpt lat="45.0552338" lon="7.8067586"><ele>445.6666666666667</ele><time>2026-04-03T15:55:56.692Z</time></trkpt><trkpt lat="45.0554059" lon="7.8067834"><ele>446.33333333333337</ele><time>2026-04-03T15:55:57.694Z</time></trkpt><trkpt lat="45.0555838" lon="7.8068327"><ele>447.0</ele><time>2026-04-03T15:55:58.69Z</time></trkpt><trkpt lat="45.0557607" lon="7.8069065"><ele>448.0</ele><time>2026-04-03T15:55:59.694Z</time></trkpt><trkpt lat="45.0559202" lon="7.8070214"><ele>449.0</ele><time>2026-04-03T15:56:00.696Z</time></trkpt><trkpt lat="45.0560692" lon="7.8071224"><ele>450.0</ele><time>2026-04-03T15:56:01.696Z</time></trkpt><trkpt lat="45.0562074" lon="7.8072084"><ele>450.0</ele><time>2026-04-03T15:56:02.701Z</time></trkpt><trkpt lat="45.0563261" lon="7.8072559"><ele>450.0</ele><time>2026-04-03T15:56:03.696Z</time></trkpt><trkpt lat="45.0564457" lon="7.8072846"><ele>450.0</ele><time>2026-04-03T15:56:04.695Z</time></trkpt><trkpt lat="45.0565815" lon="7.8072952"><ele>450.0</ele><time>2026-04-03T15:56:05.692Z</time></trkpt><trkpt lat="45.0567323" lon="7.807288"><ele>450.33333333333337</ele><time>2026-04-03T15:56:06.697Z</time></trkpt><trkpt lat="45.056894" lon="7.8072693"><ele>450.6666666666667</ele><time>2026-04-03T15:56:07.698Z</time></trkpt><trkpt lat="45.0570594" lon="7.8072612"><ele>451.0</ele><time>2026-04-03T15:56:08.697Z</time></trkpt><trkpt lat="45.0572329" lon="7.8072459"><ele>451.0</ele><time>2026-04-03T15:56:09.688Z</time></trkpt><trkpt lat="45.0574074" lon="7.807219"><ele>451.0</ele><time>2026-04-03T15:56:10.692Z</time></trkpt><trkpt lat="45.0575817" lon="7.8071763"><ele>451.0</ele><time>2026-04-03T15:56:11.691Z</time></trkpt><trkpt lat="45.0577468" lon="7.8071097"><ele>450.33333333333337</ele><time>2026-04-03T15:56:12.694Z</time></trkpt><trkpt lat="45.0578976" lon="7.8070108"><ele>449.66666666666663</ele><time>2026-04-03T15:56:13.687Z</time></trkpt><trkpt lat="45.0580473" lon="7.8068738"><ele>449.0</ele><time>2026-04-03T15:56:14.688Z</time></trkpt><trkpt lat="45.0581866" lon="7.806715"><ele>452.66666666666663</ele><time>2026-04-03T15:56:15.692Z</time></trkpt><trkpt lat="45.0583137" lon="7.8065543"><ele>456.33333333333337</ele><time>2026-04-03T15:56:16.695Z</time></trkpt><trkpt lat="45.0584525" lon="7.8063988"><ele>460.0</ele><time>2026-04-03T15:56:17.73Z</time></trkpt><trkpt lat="45.058578" lon="7.8062669"><ele>460.0</ele><time>2026-04-03T15:56:18.699Z</time></trkpt><trkpt lat="45.0587201" lon="7.8061508"><ele>460.0</ele><time>2026-04-03T15:56:19.69Z</time></trkpt><trkpt lat="45.0588582" lon="7.8060412"><ele>460.0</ele><time>2026-04-03T15:56:20.694Z</time></trkpt><trkpt lat="45.0589825" lon="7.8059621"><ele>459.25</ele><time>2026-04-03T15:56:21.697Z</time></trkpt><trkpt lat="45.0591002" lon="7.8058938"><ele>458.5</ele><time>2026-04-03T15:56:22.693Z</time></trkpt><trkpt lat="45.0592347" lon="7.8058214"><ele>457.75</ele><time>2026-04-03T15:56:23.689Z</time></trkpt><trkpt lat="45.0593852" lon="7.8057503"><ele>457.0</ele><time>2026-04-03T15:56:24.694Z</time></trkpt><trkpt lat="45.0595512" lon="7.8056692"><ele>458.33333333333337</ele><time>2026-04-03T15:56:25.689Z</time></trkpt><trkpt lat="45.059722" lon="7.8055789"><ele>459.66666666666663</ele><time>2026-04-03T15:56:26.686Z</time></trkpt><trkpt lat="45.0598857" lon="7.8054784"><ele>461.0</ele><time>2026-04-03T15:56:27.689Z</time></trkpt><trkpt lat="45.0600479" lon="7.8053713"><ele>461.0</ele><time>2026-04-03T15:56:28.696Z</time></trkpt><trkpt lat="45.0602006" lon="7.805254"><ele>461.0</ele><time>2026-04-03T15:56:29.697Z</time></trkpt><trkpt lat="45.0603501" lon="7.8051458"><ele>461.0</ele><time>2026-04-03T15:56:30.691Z</time></trkpt><trkpt lat="45.0605093" lon="7.80505"><ele>462.25</ele><time>2026-04-03T15:56:31.702Z</time></trkpt><trkpt lat="45.0606452" lon="7.8049852"><ele>463.5</ele><time>2026-04-03T15:56:32.7Z</time></trkpt><trkpt lat="45.0607694" lon="7.8049483"><ele>464.75</ele><time>2026-04-03T15:56:33.692Z</time></trkpt><trkpt lat="45.0608863" lon="7.8049372"><ele>466.0</ele><time>2026-04-03T15:56:34.71Z</time></trkpt><trkpt lat="45.0610203" lon="7.8049538"><ele>466.0</ele><time>2026-04-03T15:56:35.697Z</time></trkpt><trkpt lat="45.0611557" lon="7.8049782"><ele>466.0</ele><time>2026-04-03T15:56:36.701Z</time></trkpt><trkpt lat="45.0612503" lon="7.8050305"><ele>466.0</ele><time>2026-04-03T15:56:37.704Z</time></trkpt><trkpt lat="45.0613475" lon="7.805058"><ele>466.0</ele><time>2026-04-03T15:56:38.694Z</time></trkpt><trkpt lat="45.0614428" lon="7.8050726"><ele>466.0</ele><time>2026-04-03T15:56:39.698Z</time></trkpt><trkpt lat="45.0615334" lon="7.8050674"><ele>466.0</ele><time>2026-04-03T15:56:40.686Z</time></trkpt><trkpt lat="45.0616035" lon="7.805027"><ele>466.0</ele><time>2026-04-03T15:56:41.698Z</time></trkpt><trkpt lat="45.0616825" lon="7.8049627"><ele>466.0</ele><time>2026-04-03T15:56:42.696Z</time></trkpt><trkpt lat="45.061756" lon="7.8049034"><ele>466.0</ele><time>2026-04-03T15:56:43.69Z</time></trkpt><trkpt lat="45.06186" lon="7.8048301"><ele>466.0</ele><time>2026-04-03T15:56:44.698Z</time></trkpt><trkpt lat="45.0619683" lon="7.8047493"><ele>465.8</ele><time>2026-04-03T15:56:45.692Z</time></trkpt><trkpt lat="45.0620703" lon="7.804681"><ele>465.6</ele><time>2026-04-03T15:56:46.699Z</time></trkpt><trkpt lat="45.0621679" lon="7.8046274"><ele>465.4</ele><time>2026-04-03T15:56:47.7Z</time></trkpt><trkpt lat="45.0622544" lon="7.8045872"><ele>465.2</ele><time>2026-04-03T15:56:48.688Z</time></trkpt><trkpt lat="45.0623432" lon="7.8045348"><ele>465.0</ele><time>2026-04-03T15:56:49.696Z</time></trkpt><trkpt lat="45.0624083" lon="7.804448"><ele>464.5</ele><time>2026-04-03T15:56:50.691Z</time></trkpt><trkpt lat="45.0624733" lon="7.8043484"><ele>464.0</ele><time>2026-04-03T15:56:51.69Z</time></trkpt><trkpt lat="45.0625224" lon="7.8042758"><ele>463.5</ele><time>2026-04-03T15:56:52.693Z</time></trkpt><trkpt lat="45.0626154" lon="7.8043047"><ele>463.0</ele><time>2026-04-03T15:56:54.696Z</time></trkpt><trkpt lat="45.0626698" lon="7.8044029"><ele>462.5</ele><time>2026-04-03T15:56:55.692Z</time></trkpt><trkpt lat="45.0627165" lon="7.804526"><ele>462.0</ele><time>2026-04-03T15:56:56.692Z</time></trkpt><trkpt lat="45.0627669" lon="7.8046848"><ele>459.0</ele><time>2026-04-03T15:56:57.698Z</time></trkpt><trkpt lat="45.0628188" lon="7.8048509"><ele>456.0</ele><time>2026-04-03T15:56:58.697Z</time></trkpt><trkpt lat="45.0628754" lon="7.8050299"><ele>453.0</ele><time>2026-04-03T15:56:59.699Z</time></trkpt><trkpt lat="45.0629351" lon="7.8052192"><ele>450.0</ele><time>2026-04-03T15:57:00.702Z</time></trkpt><trkpt lat="45.0629945" lon="7.8054099"><ele>447.0</ele><time>2026-04-03T15:57:01.698Z</time></trkpt><trkpt lat="45.063065" lon="7.8056018"><ele>444.0</ele><time>2026-04-03T15:57:02.71Z</time></trkpt><trkpt lat="45.0631383" lon="7.8057888"><ele>441.0</ele><time>2026-04-03T15:57:03.697Z</time></trkpt><trkpt lat="45.063213" lon="7.8059693"><ele>440.0</ele><time>2026-04-03T15:57:04.705Z</time></trkpt><trkpt lat="45.0632878" lon="7.806141"><ele>439.0</ele><time>2026-04-03T15:57:05.693Z</time></trkpt><trkpt lat="45.0633674" lon="7.8063049"><ele>438.0</ele><time>2026-04-03T15:57:06.702Z</time></trkpt><trkpt lat="45.0634511" lon="7.8064654"><ele>437.0</ele><time>2026-04-03T15:57:07.699Z</time></trkpt><trkpt lat="45.0635305" lon="7.8066179"><ele>437.0</ele><time>2026-04-03T15:57:08.694Z</time></trkpt><trkpt lat="45.0636038" lon="7.8067709"><ele>437.00000000000006</ele><time>2026-04-03T15:57:09.698Z</time></trkpt><trkpt lat="45.0636581" lon="7.806909"><ele>437.00000000000006</ele><time>2026-04-03T15:57:10.698Z</time></trkpt><trkpt lat="45.0636827" lon="7.8070389"><ele>437.0</ele><time>2026-04-03T15:57:11.691Z</time></trkpt><trkpt lat="45.0636907" lon="7.8071365"><ele>437.0</ele><time>2026-04-03T15:57:12.706Z</time></trkpt><trkpt lat="45.0637172" lon="7.8072221"><ele>435.5</ele><time>2026-04-03T15:57:13.701Z</time></trkpt><trkpt lat="45.0637759" lon="7.8072994"><ele>434.0</ele><time>2026-04-03T15:57:14.687Z</time></trkpt><trkpt lat="45.0638647" lon="7.8073725"><ele>432.5</ele><time>2026-04-03T15:57:15.691Z</time></trkpt><trkpt lat="45.0639815" lon="7.8074842"><ele>431.0</ele><time>2026-04-03T15:57:16.696Z</time></trkpt><trkpt lat="45.064095" lon="7.8076123"><ele>425.3333333333333</ele><time>2026-04-03T15:57:17.698Z</time></trkpt><trkpt lat="45.0642171" lon="7.8077405"><ele>419.66666666666663</ele><time>2026-04-03T15:57:18.703Z</time></trkpt><trkpt lat="45.0643394" lon="7.8078755"><ele>414.0</ele><time>2026-04-03T15:57:19.701Z</time></trkpt><trkpt lat="45.064452" lon="7.8080061"><ele>414.0</ele><time>2026-04-03T15:57:20.696Z</time></trkpt><trkpt lat="45.0645527" lon="7.808128"><ele>414.0</ele><time>2026-04-03T15:57:21.701Z</time></trkpt><trkpt lat="45.0646493" lon="7.8082406"><ele>414.0</ele><time>2026-04-03T15:57:22.696Z</time></trkpt><trkpt lat="45.064724" lon="7.8083088"><ele>414.0</ele><time>2026-04-03T15:57:23.696Z</time></trkpt><trkpt lat="45.0648223" lon="7.8083824"><ele>414.0</ele><time>2026-04-03T15:57:24.703Z</time></trkpt><trkpt lat="45.0649185" lon="7.8084258"><ele>414.0</ele><time>2026-04-03T15:57:25.698Z</time></trkpt><trkpt lat="45.0650259" lon="7.8084511"><ele>414.0</ele><time>2026-04-03T15:57:26.695Z</time></trkpt><trkpt lat="45.0651204" lon="7.8084647"><ele>414.0</ele><time>2026-04-03T15:57:27.699Z</time></trkpt><trkpt lat="45.065206" lon="7.8084938"><ele>414.0</ele><time>2026-04-03T15:57:28.696Z</time></trkpt><trkpt lat="45.0652677" lon="7.808517"><ele>415.0</ele><time>2026-04-03T15:57:29.697Z</time></trkpt><trkpt lat="45.0653361" lon="7.8085873"><ele>416.0</ele><time>2026-04-03T15:57:31.703Z</time></trkpt><trkpt lat="45.0653121" lon="7.8087953"><ele>417.0</ele><time>2026-04-03T15:57:33.698Z</time></trkpt><trkpt lat="45.0652633" lon="7.808988"><ele>418.0</ele><time>2026-04-03T15:57:34.698Z</time></trkpt><trkpt lat="45.0652037" lon="7.809147"><ele>418.0</ele><time>2026-04-03T15:57:35.696Z</time></trkpt><trkpt lat="45.0651594" lon="7.8092919"><ele>418.0</ele><time>2026-04-03T15:57:36.704Z</time></trkpt><trkpt lat="45.065138" lon="7.8094038"><ele>418.0</ele><time>2026-04-03T15:57:37.701Z</time></trkpt><trkpt lat="45.0651534" lon="7.8095153"><ele>418.0</ele><time>2026-04-03T15:57:38.703Z</time></trkpt><trkpt lat="45.0651898" lon="7.8096341"><ele>418.0</ele><time>2026-04-03T15:57:39.697Z</time></trkpt><trkpt lat="45.0652749" lon="7.8097784"><ele>418.25</ele><time>2026-04-03T15:57:40.702Z</time></trkpt><trkpt lat="45.0654028" lon="7.8099393"><ele>418.5</ele><time>2026-04-03T15:57:41.692Z</time></trkpt><trkpt lat="45.0655011" lon="7.8100815"><ele>418.75</ele><time>2026-04-03T15:57:42.692Z</time></trkpt><trkpt lat="45.0655926" lon="7.8102146"><ele>419.0</ele><time>2026-04-03T15:57:43.701Z</time></trkpt><trkpt lat="45.0656979" lon="7.8103434"><ele>422.3333333333333</ele><time>2026-04-03T15:57:44.695Z</time></trkpt><trkpt lat="45.0658239" lon="7.8104794"><ele>425.66666666666663</ele><time>2026-04-03T15:57:45.703Z</time></trkpt><trkpt lat="45.0659595" lon="7.8106036"><ele>429.0</ele><time>2026-04-03T15:57:46.696Z</time></trkpt><trkpt lat="45.0661052" lon="7.8107308"><ele>429.0</ele><time>2026-04-03T15:57:47.701Z</time></trkpt><trkpt lat="45.0662314" lon="7.8108532"><ele>429.0</ele><time>2026-04-03T15:57:48.698Z</time></trkpt><trkpt lat="45.0663373" lon="7.8109745"><ele>429.0</ele><time>2026-04-03T15:57:49.698Z</time></trkpt><trkpt lat="45.0664317" lon="7.8111088"><ele>429.0</ele><time>2026-04-03T15:57:50.7Z</time></trkpt><trkpt lat="45.0665071" lon="7.8112718"><ele>430.5</ele><time>2026-04-03T15:57:51.702Z</time></trkpt><trkpt lat="45.0665709" lon="7.8114423"><ele>432.0</ele><time>2026-04-03T15:57:52.697Z</time></trkpt><trkpt lat="45.0666422" lon="7.8115991"><ele>433.5</ele><time>2026-04-03T15:57:53.697Z</time></trkpt><trkpt lat="45.0667093" lon="7.8117355"><ele>435.0</ele><time>2026-04-03T15:57:54.696Z</time></trkpt><trkpt lat="45.0667705" lon="7.8118721"><ele>441.0</ele><time>2026-04-03T15:57:55.698Z</time></trkpt><trkpt lat="45.0668356" lon="7.812061"><ele>447.0</ele><time>2026-04-03T15:57:56.696Z</time></trkpt><trkpt lat="45.0668844" lon="7.8122635"><ele>453.0</ele><time>2026-04-03T15:57:57.691Z</time></trkpt><trkpt lat="45.0669375" lon="7.8124675"><ele>453.0</ele><time>2026-04-03T15:57:58.69Z</time></trkpt><trkpt lat="45.0669854" lon="7.8126473"><ele>452.99999999999994</ele><time>2026-04-03T15:57:59.695Z</time></trkpt><trkpt lat="45.0670311" lon="7.8128074"><ele>452.99999999999994</ele><time>2026-04-03T15:58:00.695Z</time></trkpt><trkpt lat="45.067067" lon="7.8129361"><ele>453.0</ele><time>2026-04-03T15:58:01.696Z</time></trkpt><trkpt lat="45.067096" lon="7.8130346"><ele>453.0</ele><time>2026-04-03T15:58:02.698Z</time></trkpt><trkpt lat="45.067158" lon="7.813134"><ele>454.0</ele><time>2026-04-03T15:58:04.697Z</time></trkpt><trkpt lat="45.0672233" lon="7.8131418"><ele>454.99999999999994</ele><time>2026-04-03T15:58:05.695Z</time></trkpt><trkpt lat="45.0673148" lon="7.8131328"><ele>455.99999999999994</ele><time>2026-04-03T15:58:06.695Z</time></trkpt><trkpt lat="45.0674385" lon="7.8131064"><ele>457.0</ele><time>2026-04-03T15:58:07.693Z</time></trkpt><trkpt lat="45.0675452" lon="7.8130749"><ele>458.0</ele><time>2026-04-03T15:58:08.698Z</time></trkpt><trkpt lat="45.0676293" lon="7.8130491"><ele>458.0</ele><time>2026-04-03T15:58:09.697Z</time></trkpt><trkpt lat="45.0677278" lon="7.8130281"><ele>457.99999999999994</ele><time>2026-04-03T15:58:11.692Z</time></trkpt><trkpt lat="45.0678233" lon="7.8130169"><ele>457.99999999999994</ele><time>2026-04-03T15:58:13.696Z</time></trkpt><trkpt lat="45.0678995" lon="7.8129963"><ele>458.0</ele><time>2026-04-03T15:58:14.696Z</time></trkpt><trkpt lat="45.0680072" lon="7.812973"><ele>458.0</ele><time>2026-04-03T15:58:16.694Z</time></trkpt><trkpt lat="45.0680951" lon="7.812973"><ele>458.0</ele><time>2026-04-03T15:58:17.701Z</time></trkpt><trkpt lat="45.068174" lon="7.8129802"><ele>457.99999999999994</ele><time>2026-04-03T15:58:18.697Z</time></trkpt><trkpt lat="45.0682629" lon="7.8130359"><ele>457.99999999999994</ele><time>2026-04-03T15:58:19.707Z</time></trkpt><trkpt lat="45.0683559" lon="7.8131063"><ele>458.0</ele><time>2026-04-03T15:58:20.702Z</time></trkpt><trkpt lat="45.0684456" lon="7.8131593"><ele>458.0</ele><time>2026-04-03T15:58:21.695Z</time></trkpt><trkpt lat="45.0685382" lon="7.8131821"><ele>457.25</ele><time>2026-04-03T15:58:22.701Z</time></trkpt><trkpt lat="45.0686444" lon="7.8131745"><ele>456.5</ele><time>2026-04-03T15:58:23.698Z</time></trkpt><trkpt lat="45.068766" lon="7.8131186"><ele>455.75</ele><time>2026-04-03T15:58:24.696Z</time></trkpt><trkpt lat="45.068891" lon="7.8130152"><ele>455.0</ele><time>2026-04-03T15:58:25.706Z</time></trkpt><trkpt lat="45.0689991" lon="7.8128704"><ele>455.0</ele><time>2026-04-03T15:58:26.702Z</time></trkpt><trkpt lat="45.0690818" lon="7.8127703"><ele>455.0</ele><time>2026-04-03T15:58:27.695Z</time></trkpt><trkpt lat="45.0691754" lon="7.8127156"><ele>455.0</ele><time>2026-04-03T15:58:28.698Z</time></trkpt><trkpt lat="45.0692693" lon="7.8127083"><ele>455.0</ele><time>2026-04-03T15:58:29.694Z</time></trkpt><trkpt lat="45.069376" lon="7.8127766"><ele>455.0</ele><time>2026-04-03T15:58:30.696Z</time></trkpt><trkpt lat="45.069488" lon="7.8128927"><ele>451.75</ele><time>2026-04-03T15:58:31.692Z</time></trkpt><trkpt lat="45.0695801" lon="7.8130381"><ele>448.5</ele><time>2026-04-03T15:58:32.695Z</time></trkpt><trkpt lat="45.0696159" lon="7.813228"><ele>445.25</ele><time>2026-04-03T15:58:33.698Z</time></trkpt><trkpt lat="45.0696344" lon="7.813417"><ele>442.0</ele><time>2026-04-03T15:58:34.696Z</time></trkpt><trkpt lat="45.0696279" lon="7.8136326"><ele>438.6666666666667</ele><time>2026-04-03T15:58:35.703Z</time></trkpt><trkpt lat="45.069609" lon="7.8138589"><ele>435.33333333333337</ele><time>2026-04-03T15:58:36.7Z</time></trkpt><trkpt lat="45.0695947" lon="7.8140721"><ele>432.0</ele><time>2026-04-03T15:58:37.698Z</time></trkpt><trkpt lat="45.0695715" lon="7.8142776"><ele>430.5</ele><time>2026-04-03T15:58:38.694Z</time></trkpt><trkpt lat="45.0695522" lon="7.8144865"><ele>429.0</ele><time>2026-04-03T15:58:39.697Z</time></trkpt><trkpt lat="45.0695329" lon="7.8146866"><ele>427.5</ele><time>2026-04-03T15:58:40.703Z</time></trkpt><trkpt lat="45.0695047" lon="7.8148917"><ele>426.0</ele><time>2026-04-03T15:58:41.697Z</time></trkpt><trkpt lat="45.0694841" lon="7.8150854"><ele>425.25</ele><time>2026-04-03T15:58:42.699Z</time></trkpt><trkpt lat="45.0694672" lon="7.8152725"><ele>424.5</ele><time>2026-04-03T15:58:43.695Z</time></trkpt><trkpt lat="45.0694502" lon="7.8154622"><ele>423.75</ele><time>2026-04-03T15:58:44.697Z</time></trkpt><trkpt lat="45.0694334" lon="7.8156426"><ele>423.0</ele><time>2026-04-03T15:58:45.705Z</time></trkpt><trkpt lat="45.0694238" lon="7.8157937"><ele>423.0</ele><time>2026-04-03T15:58:46.694Z</time></trkpt><trkpt lat="45.0694152" lon="7.8159306"><ele>423.0</ele><time>2026-04-03T15:58:47.696Z</time></trkpt><trkpt lat="45.0694047" lon="7.8160587"><ele>423.0</ele><time>2026-04-03T15:58:48.695Z</time></trkpt><trkpt lat="45.0693866" lon="7.8161828"><ele>423.0</ele><time>2026-04-03T15:58:49.699Z</time></trkpt><trkpt lat="45.0693572" lon="7.8162908"><ele>423.0</ele><time>2026-04-03T15:58:50.696Z</time></trkpt><trkpt lat="45.0692972" lon="7.8163615"><ele>423.0</ele><time>2026-04-03T15:58:51.704Z</time></trkpt><trkpt lat="45.0692095" lon="7.8164193"><ele>419.25</ele><time>2026-04-03T15:58:52.697Z</time></trkpt><trkpt lat="45.0690916" lon="7.816455"><ele>415.5</ele><time>2026-04-03T15:58:53.7Z</time></trkpt><trkpt lat="45.0689428" lon="7.8164623"><ele>411.75</ele><time>2026-04-03T15:58:54.717Z</time></trkpt><trkpt lat="45.0688142" lon="7.8164488"><ele>408.0</ele><time>2026-04-03T15:58:55.698Z</time></trkpt><trkpt lat="45.0687348" lon="7.8164717"><ele>408.0</ele><time>2026-04-03T15:58:56.7Z</time></trkpt><trkpt lat="45.0686697" lon="7.8165528"><ele>408.0</ele><time>2026-04-03T15:58:57.694Z</time></trkpt><trkpt lat="45.06861" lon="7.8166074"><ele>408.0</ele><time>2026-04-03T15:58:58.702Z</time></trkpt><trkpt lat="45.0685445" lon="7.8166"><ele>408.0</ele><time>2026-04-03T15:59:01.697Z</time></trkpt><trkpt lat="45.06848" lon="7.8164967"><ele>408.0</ele><time>2026-04-03T15:59:03.699Z</time></trkpt><trkpt lat="45.0684621" lon="7.8163989"><ele>408.0</ele><time>2026-04-03T15:59:04.702Z</time></trkpt><trkpt lat="45.0684734" lon="7.8163005"><ele>408.0</ele><time>2026-04-03T15:59:05.697Z</time></trkpt><trkpt lat="45.0684937" lon="7.8161835"><ele>408.0</ele><time>2026-04-03T15:59:06.707Z</time></trkpt><trkpt lat="45.0685229" lon="7.8160824"><ele>408.0</ele><time>2026-04-03T15:59:07.702Z</time></trkpt><trkpt lat="45.0685473" lon="7.8159904"><ele>408.0</ele><time>2026-04-03T15:59:08.697Z</time></trkpt><trkpt lat="45.0685746" lon="7.8158754"><ele>408.0</ele><time>2026-04-03T15:59:10.717Z</time></trkpt><trkpt lat="45.0685403" lon="7.8157922"><ele>408.0</ele><time>2026-04-03T15:59:39.696Z</time></trkpt><trkpt lat="45.0685305" lon="7.8156564"><ele>407.8333333333333</ele><time>2026-04-03T15:59:41.697Z</time></trkpt><trkpt lat="45.0685136" lon="7.815556"><ele>407.66666666666663</ele><time>2026-04-03T15:59:42.705Z</time></trkpt><trkpt lat="45.0684731" lon="7.8154497"><ele>407.5</ele><time>2026-04-03T15:59:43.7Z</time></trkpt><trkpt lat="45.0683981" lon="7.815373"><ele>407.3333333333333</ele><time>2026-04-03T15:59:44.702Z</time></trkpt><trkpt lat="45.068307" lon="7.8153349"><ele>407.16666666666663</ele><time>2026-04-03T15:59:45.695Z</time></trkpt><trkpt lat="45.0682036" lon="7.8153329"><ele>407.0</ele><time>2026-04-03T15:59:46.695Z</time></trkpt><trkpt lat="45.068064" lon="7.8153893"><ele>404.66666666666663</ele><time>2026-04-03T15:59:47.698Z</time></trkpt><trkpt lat="45.0678971" lon="7.8155347"><ele>402.33333333333337</ele><time>2026-04-03T15:59:48.696Z</time></trkpt><trkpt lat="45.0677674" lon="7.8156743"><ele>400.0</ele><time>2026-04-03T15:59:49.703Z</time></trkpt><trkpt lat="45.0676921" lon="7.8158339"><ele>400.0</ele><time>2026-04-03T15:59:50.693Z</time></trkpt><trkpt lat="45.0677018" lon="7.8159559"><ele>400.0</ele><time>2026-04-03T15:59:51.7Z</time></trkpt><trkpt lat="45.0677124" lon="7.8160976"><ele>400.0</ele><time>2026-04-03T15:59:52.699Z</time></trkpt><trkpt lat="45.0677106" lon="7.8162515"><ele>400.0</ele><time>2026-04-03T15:59:53.697Z</time></trkpt><trkpt lat="45.0676896" lon="7.8164179"><ele>400.0</ele><time>2026-04-03T15:59:54.696Z</time></trkpt><trkpt lat="45.0676617" lon="7.8165928"><ele>398.4</ele><time>2026-04-03T15:59:55.7Z</time></trkpt><trkpt lat="45.0676598" lon="7.8167498"><ele>396.8</ele><time>2026-04-03T15:59:56.709Z</time></trkpt><trkpt lat="45.0676679" lon="7.8169059"><ele>395.20000000000005</ele><time>2026-04-03T15:59:57.697Z</time></trkpt><trkpt lat="45.0676621" lon="7.8170353"><ele>393.6</ele><time>2026-04-03T15:59:58.699Z</time></trkpt><trkpt lat="45.0676255" lon="7.8171692"><ele>392.0</ele><time>2026-04-03T15:59:59.696Z</time></trkpt><trkpt lat="45.0675996" lon="7.8173093"><ele>391.66666666666663</ele><time>2026-04-03T16:00:00.696Z</time></trkpt><trkpt lat="45.0675798" lon="7.8174737"><ele>391.33333333333337</ele><time>2026-04-03T16:00:01.699Z</time></trkpt><trkpt lat="45.0675924" lon="7.8176028"><ele>391.0</ele><time>2026-04-03T16:00:02.699Z</time></trkpt><trkpt lat="45.0672541" lon="7.8179255"><ele>389.0</ele><time>2026-04-03T16:00:03.695Z</time></trkpt><trkpt lat="45.0672769" lon="7.8180941"><ele>387.0</ele><time>2026-04-03T16:00:04.696Z</time></trkpt><trkpt lat="45.0674126" lon="7.8183095"><ele>385.0</ele><time>2026-04-03T16:00:05.707Z</time></trkpt><trkpt lat="45.0675024" lon="7.8185053"><ele>382.25</ele><time>2026-04-03T16:00:06.703Z</time></trkpt><trkpt lat="45.0675721" lon="7.8186898"><ele>379.5</ele><time>2026-04-03T16:00:07.704Z</time></trkpt><trkpt lat="45.0676249" lon="7.8188508"><ele>376.75</ele><time>2026-04-03T16:00:08.707Z</time></trkpt><trkpt lat="45.0676695" lon="7.8189805"><ele>374.0</ele><time>2026-04-03T16:00:09.701Z</time></trkpt><trkpt lat="45.0677124" lon="7.8190738"><ele>374.0</ele><time>2026-04-03T16:00:10.708Z</time></trkpt><trkpt lat="45.0678198" lon="7.8191866"><ele>374.0</ele><time>2026-04-03T16:00:12.703Z</time></trkpt><trkpt lat="45.0679215" lon="7.8192651"><ele>374.0</ele><time>2026-04-03T16:00:13.698Z</time></trkpt><trkpt lat="45.0680203" lon="7.8193672"><ele>374.0</ele><time>2026-04-03T16:00:14.697Z</time></trkpt><trkpt lat="45.0681176" lon="7.8195075"><ele>373.0</ele><time>2026-04-03T16:00:15.703Z</time></trkpt><trkpt lat="45.0682002" lon="7.8196538"><ele>372.0</ele><time>2026-04-03T16:00:16.696Z</time></trkpt><trkpt lat="45.0682687" lon="7.8197928"><ele>371.0</ele><time>2026-04-03T16:00:17.701Z</time></trkpt><trkpt lat="45.068323" lon="7.8198854"><ele>370.0</ele><time>2026-04-03T16:00:18.697Z</time></trkpt><trkpt lat="45.0683794" lon="7.8200032"><ele>369.0</ele><time>2026-04-03T16:00:20.706Z</time></trkpt><trkpt lat="45.0683626" lon="7.8201126"><ele>370.0</ele><time>2026-04-03T16:00:22.701Z</time></trkpt><trkpt lat="45.0683137" lon="7.8201748"><ele>371.0</ele><time>2026-04-03T16:00:23.719Z</time></trkpt><trkpt lat="45.0681953" lon="7.8202434"><ele>372.0</ele><time>2026-04-03T16:00:24.706Z</time></trkpt><trkpt lat="45.0680326" lon="7.8202952"><ele>373.0</ele><time>2026-04-03T16:00:25.71Z</time></trkpt><trkpt lat="45.0678905" lon="7.8203563"><ele>373.0</ele><time>2026-04-03T16:00:26.699Z</time></trkpt><trkpt lat="45.0677569" lon="7.8204238"><ele>373.0</ele><time>2026-04-03T16:00:27.697Z</time></trkpt><trkpt lat="45.0676353" lon="7.8205057"><ele>373.0</ele><time>2026-04-03T16:00:28.698Z</time></trkpt><trkpt lat="45.0675238" lon="7.8206292"><ele>373.0</ele><time>2026-04-03T16:00:29.704Z</time></trkpt><trkpt lat="45.0674289" lon="7.8207858"><ele>373.3333333333333</ele><time>2026-04-03T16:00:30.701Z</time></trkpt><trkpt lat="45.0673265" lon="7.8209521"><ele>373.6666666666667</ele><time>2026-04-03T16:00:31.701Z</time></trkpt><trkpt lat="45.0672307" lon="7.821125"><ele>374.0</ele><time>2026-04-03T16:00:32.699Z</time></trkpt><trkpt lat="45.0671333" lon="7.8212947"><ele>374.0</ele><time>2026-04-03T16:00:33.714Z</time></trkpt><trkpt lat="45.0670242" lon="7.8214365"><ele>374.0</ele><time>2026-04-03T16:00:34.702Z</time></trkpt><trkpt lat="45.0669027" lon="7.8215693"><ele>374.0</ele><time>2026-04-03T16:00:35.7Z</time></trkpt><trkpt lat="45.0667559" lon="7.8216922"><ele>373.6666666666667</ele><time>2026-04-03T16:00:36.702Z</time></trkpt><trkpt lat="45.0666118" lon="7.8218187"><ele>373.3333333333333</ele><time>2026-04-03T16:00:37.71Z</time></trkpt><trkpt lat="45.0664707" lon="7.8219456"><ele>373.0</ele><time>2026-04-03T16:00:38.705Z</time></trkpt><trkpt lat="45.0663361" lon="7.8220701"><ele>373.0</ele><time>2026-04-03T16:00:39.7Z</time></trkpt><trkpt lat="45.0661914" lon="7.8221914"><ele>373.0</ele><time>2026-04-03T16:00:40.703Z</time></trkpt><trkpt lat="45.0660519" lon="7.8223122"><ele>373.0</ele><time>2026-04-03T16:00:41.703Z</time></trkpt><trkpt lat="45.0659056" lon="7.8224477"><ele>371.0</ele><time>2026-04-03T16:00:42.707Z</time></trkpt><trkpt lat="45.0657717" lon="7.8225884"><ele>369.0</ele><time>2026-04-03T16:00:43.71Z</time></trkpt><trkpt lat="45.0656331" lon="7.8227446"><ele>367.0</ele><time>2026-04-03T16:00:44.695Z</time></trkpt><trkpt lat="45.0654876" lon="7.8228998"><ele>367.0</ele><time>2026-04-03T16:00:45.706Z</time></trkpt><trkpt lat="45.0653424" lon="7.8230686"><ele>367.0</ele><time>2026-04-03T16:00:46.697Z</time></trkpt><trkpt lat="45.0651967" lon="7.8232502"><ele>367.0</ele><time>2026-04-03T16:00:47.695Z</time></trkpt><trkpt lat="45.065066" lon="7.8234377"><ele>365.0</ele><time>2026-04-03T16:00:48.707Z</time></trkpt><trkpt lat="45.0649418" lon="7.8236343"><ele>363.0</ele><time>2026-04-03T16:00:49.7Z</time></trkpt><trkpt lat="45.064828" lon="7.8238163"><ele>361.0</ele><time>2026-04-03T16:00:50.706Z</time></trkpt><trkpt lat="45.0647304" lon="7.8239761"><ele>361.0</ele><time>2026-04-03T16:00:51.706Z</time></trkpt><trkpt lat="45.0646532" lon="7.8241272"><ele>361.0</ele><time>2026-04-03T16:00:52.707Z</time></trkpt><trkpt lat="45.0645878" lon="7.8242809"><ele>361.0</ele><time>2026-04-03T16:00:53.697Z</time></trkpt><trkpt lat="45.0645329" lon="7.824481"><ele>361.0</ele><time>2026-04-03T16:00:54.721Z</time></trkpt><trkpt lat="45.0645012" lon="7.8247026"><ele>363.0</ele><time>2026-04-03T16:00:55.708Z</time></trkpt><trkpt lat="45.0644822" lon="7.8249277"><ele>365.0</ele><time>2026-04-03T16:00:56.7Z</time></trkpt><trkpt lat="45.0644657" lon="7.8251451"><ele>367.0</ele><time>2026-04-03T16:00:57.698Z</time></trkpt><trkpt lat="45.0644459" lon="7.8253357"><ele>367.6</ele><time>2026-04-03T16:00:58.706Z</time></trkpt><trkpt lat="45.0644176" lon="7.8255012"><ele>368.20000000000005</ele><time>2026-04-03T16:00:59.699Z</time></trkpt><trkpt lat="45.064365" lon="7.8256373"><ele>368.8</ele><time>2026-04-03T16:01:00.701Z</time></trkpt><trkpt lat="45.0642926" lon="7.8257553"><ele>369.4</ele><time>2026-04-03T16:01:01.701Z</time></trkpt><trkpt lat="45.0642071" lon="7.8258344"><ele>370.0</ele><time>2026-04-03T16:01:02.709Z</time></trkpt><trkpt lat="45.0641489" lon="7.8258734"><ele>368.8</ele><time>2026-04-03T16:01:03.697Z</time></trkpt><trkpt lat="45.0640911" lon="7.8259588"><ele>367.6</ele><time>2026-04-03T16:01:05.705Z</time></trkpt><trkpt lat="45.0641415" lon="7.826128"><ele>366.4</ele><time>2026-04-03T16:01:07.706Z</time></trkpt><trkpt lat="45.0642205" lon="7.8262304"><ele>365.2</ele><time>2026-04-03T16:01:08.708Z</time></trkpt><trkpt lat="45.064322" lon="7.8263415"><ele>364.0</ele><time>2026-04-03T16:01:09.698Z</time></trkpt><trkpt lat="45.0644302" lon="7.8264586"><ele>367.25</ele><time>2026-04-03T16:01:10.703Z</time></trkpt><trkpt lat="45.0645416" lon="7.8265527"><ele>370.5</ele><time>2026-04-03T16:01:11.704Z</time></trkpt><trkpt lat="45.0646609" lon="7.826629"><ele>373.75</ele><time>2026-04-03T16:01:12.703Z</time></trkpt><trkpt lat="45.0647936" lon="7.826661"><ele>377.0</ele><time>2026-04-03T16:01:13.698Z</time></trkpt><trkpt lat="45.0649419" lon="7.8266668"><ele>371.33333333333337</ele><time>2026-04-03T16:01:14.703Z</time></trkpt><trkpt lat="45.0650841" lon="7.8266682"><ele>365.6666666666667</ele><time>2026-04-03T16:01:15.702Z</time></trkpt><trkpt lat="45.0652455" lon="7.8266715"><ele>360.0</ele><time>2026-04-03T16:01:16.699Z</time></trkpt><trkpt lat="45.0654051" lon="7.8266484"><ele>360.0</ele><time>2026-04-03T16:01:17.704Z</time></trkpt><trkpt lat="45.0655173" lon="7.8266073"><ele>360.0</ele><time>2026-04-03T16:01:18.698Z</time></trkpt><trkpt lat="45.0656242" lon="7.8265732"><ele>360.0</ele><time>2026-04-03T16:01:19.705Z</time></trkpt><trkpt lat="45.0657296" lon="7.8265534"><ele>360.0</ele><time>2026-04-03T16:01:20.694Z</time></trkpt><trkpt lat="45.0658087" lon="7.8265552"><ele>360.0</ele><time>2026-04-03T16:01:21.703Z</time></trkpt><trkpt lat="45.0658989" lon="7.8266954"><ele>360.4</ele><time>2026-04-03T16:01:23.705Z</time></trkpt><trkpt lat="45.0658841" lon="7.8268703"><ele>360.8</ele><time>2026-04-03T16:01:24.704Z</time></trkpt><trkpt lat="45.0658694" lon="7.8269783"><ele>361.20000000000005</ele><time>2026-04-03T16:01:25.706Z</time></trkpt><trkpt lat="45.0657976" lon="7.8270915"><ele>361.6</ele><time>2026-04-03T16:01:27.699Z</time></trkpt><trkpt lat="45.0656914" lon="7.8271831"><ele>362.0</ele><time>2026-04-03T16:01:28.703Z</time></trkpt><trkpt lat="45.0655802" lon="7.827302"><ele>362.0</ele><time>2026-04-03T16:01:29.701Z</time></trkpt><trkpt lat="45.0654468" lon="7.8274709"><ele>362.0</ele><time>2026-04-03T16:01:30.704Z</time></trkpt><trkpt lat="45.0654023" lon="7.827597"><ele>362.0</ele><time>2026-04-03T16:01:31.696Z</time></trkpt><trkpt lat="45.0653524" lon="7.8277648"><ele>362.0</ele><time>2026-04-03T16:01:32.702Z</time></trkpt><trkpt lat="45.0653194" lon="7.8279567"><ele>363.6666666666667</ele><time>2026-04-03T16:01:33.706Z</time></trkpt><trkpt lat="45.065319" lon="7.8281746"><ele>365.3333333333333</ele><time>2026-04-03T16:01:34.696Z</time></trkpt><trkpt lat="45.0653596" lon="7.8283951"><ele>367.0</ele><time>2026-04-03T16:01:35.706Z</time></trkpt><trkpt lat="45.0654468" lon="7.8286182"><ele>368.0</ele><time>2026-04-03T16:01:36.704Z</time></trkpt><trkpt lat="45.0655895" lon="7.8288386"><ele>369.0</ele><time>2026-04-03T16:01:37.706Z</time></trkpt><trkpt lat="45.0657659" lon="7.8290611"><ele>370.0</ele><time>2026-04-03T16:01:38.703Z</time></trkpt><trkpt lat="45.0659065" lon="7.829244"><ele>357.0</ele><time>2026-04-03T16:01:39.708Z</time></trkpt><trkpt lat="45.0660059" lon="7.8294099"><ele>344.0</ele><time>2026-04-03T16:01:40.704Z</time></trkpt><trkpt lat="45.0661128" lon="7.8295829"><ele>331.0</ele><time>2026-04-03T16:01:41.707Z</time></trkpt><trkpt lat="45.0662223" lon="7.8297697"><ele>331.0</ele><time>2026-04-03T16:01:42.706Z</time></trkpt><trkpt lat="45.066321" lon="7.8299689"><ele>331.0</ele><time>2026-04-03T16:01:43.702Z</time></trkpt><trkpt lat="45.0663844" lon="7.8301696"><ele>331.0</ele><time>2026-04-03T16:01:44.703Z</time></trkpt><trkpt lat="45.0664713" lon="7.830366"><ele>328.6</ele><time>2026-04-03T16:01:45.71Z</time></trkpt><trkpt lat="45.0664772" lon="7.8305659"><ele>326.20000000000005</ele><time>2026-04-03T16:01:46.702Z</time></trkpt><trkpt lat="45.0664835" lon="7.8307265"><ele>323.79999999999995</ele><time>2026-04-03T16:01:47.707Z</time></trkpt><trkpt lat="45.0664999" lon="7.8308671"><ele>321.4</ele><time>2026-04-03T16:01:48.699Z</time></trkpt><trkpt lat="45.066539" lon="7.8309815"><ele>319.0</ele><time>2026-04-03T16:01:49.704Z</time></trkpt><trkpt lat="45.0665745" lon="7.8310714"><ele>315.5</ele><time>2026-04-03T16:01:50.71Z</time></trkpt><trkpt lat="45.0666427" lon="7.8311261"><ele>312.0</ele><time>2026-04-03T16:01:51.701Z</time></trkpt><trkpt lat="45.0667297" lon="7.8312003"><ele>308.5</ele><time>2026-04-03T16:01:52.705Z</time></trkpt><trkpt lat="45.0668673" lon="7.8312703"><ele>305.0</ele><time>2026-04-03T16:01:53.705Z</time></trkpt><trkpt lat="45.0670036" lon="7.8313817"><ele>305.0</ele><time>2026-04-03T16:01:54.702Z</time></trkpt><trkpt lat="45.0671416" lon="7.8314795"><ele>305.0</ele><time>2026-04-03T16:01:55.699Z</time></trkpt><trkpt lat="45.0672687" lon="7.8316105"><ele>305.0</ele><time>2026-04-03T16:01:56.705Z</time></trkpt><trkpt lat="45.0673704" lon="7.8317443"><ele>306.0</ele><time>2026-04-03T16:01:57.698Z</time></trkpt><trkpt lat="45.0674288" lon="7.8318848"><ele>307.0</ele><time>2026-04-03T16:01:58.698Z</time></trkpt><trkpt lat="45.0674784" lon="7.832086"><ele>308.0</ele><time>2026-04-03T16:01:59.697Z</time></trkpt><trkpt lat="45.0675227" lon="7.8323105"><ele>309.0</ele><time>2026-04-03T16:02:00.698Z</time></trkpt><trkpt lat="45.067519" lon="7.8325261"><ele>309.0</ele><time>2026-04-03T16:02:01.698Z</time></trkpt><trkpt lat="45.0674864" lon="7.8327291"><ele>309.0</ele><time>2026-04-03T16:02:02.709Z</time></trkpt><trkpt lat="45.0674082" lon="7.8329605"><ele>309.0</ele><time>2026-04-03T16:02:03.705Z</time></trkpt><trkpt lat="45.0673201" lon="7.8332744"><ele>310.0</ele><time>2026-04-03T16:02:04.707Z</time></trkpt><trkpt lat="45.0672544" lon="7.833596"><ele>311.0</ele><time>2026-04-03T16:02:05.704Z</time></trkpt><trkpt lat="45.0671964" lon="7.83393"><ele>311.0</ele><time>2026-04-03T16:02:06.703Z</time></trkpt><trkpt lat="45.0671518" lon="7.8342326"><ele>311.0</ele><time>2026-04-03T16:02:07.705Z</time></trkpt><trkpt lat="45.067139" lon="7.8344975"><ele>311.0</ele><time>2026-04-03T16:02:08.708Z</time></trkpt><trkpt lat="45.0671322" lon="7.8347708"><ele>312.0</ele><time>2026-04-03T16:02:09.695Z</time></trkpt><trkpt lat="45.0671111" lon="7.8350126"><ele>313.0</ele><time>2026-04-03T16:02:10.706Z</time></trkpt><trkpt lat="45.067081" lon="7.8352229"><ele>314.0</ele><time>2026-04-03T16:02:11.707Z</time></trkpt><trkpt lat="45.0670633" lon="7.8353888"><ele>315.0</ele><time>2026-04-03T16:02:12.699Z</time></trkpt><trkpt lat="45.0670568" lon="7.8354998"><ele>317.4</ele><time>2026-04-03T16:02:13.71Z</time></trkpt><trkpt lat="45.0670454" lon="7.8356078"><ele>319.8</ele><time>2026-04-03T16:02:14.708Z</time></trkpt><trkpt lat="45.0670173" lon="7.8357162"><ele>322.20000000000005</ele><time>2026-04-03T16:02:15.702Z</time></trkpt><trkpt lat="45.0669704" lon="7.8358446"><ele>324.6</ele><time>2026-04-03T16:02:16.71Z</time></trkpt><trkpt lat="45.0668642" lon="7.8359777"><ele>327.0</ele><time>2026-04-03T16:02:17.696Z</time></trkpt><trkpt lat="45.0667385" lon="7.836141"><ele>327.3333333333333</ele><time>2026-04-03T16:02:18.709Z</time></trkpt><trkpt lat="45.0666151" lon="7.8363196"><ele>327.66666666666663</ele><time>2026-04-03T16:02:19.703Z</time></trkpt><trkpt lat="45.0664898" lon="7.8365057"><ele>328.0</ele><time>2026-04-03T16:02:20.698Z</time></trkpt><trkpt lat="45.0663755" lon="7.8366846"><ele>323.3333333333333</ele><time>2026-04-03T16:02:21.705Z</time></trkpt><trkpt lat="45.0662711" lon="7.8368533"><ele>318.6666666666667</ele><time>2026-04-03T16:02:22.696Z</time></trkpt><trkpt lat="45.066171" lon="7.837043"><ele>314.0</ele><time>2026-04-03T16:02:23.706Z</time></trkpt><trkpt lat="45.0660816" lon="7.8372376"><ele>314.0</ele><time>2026-04-03T16:02:24.716Z</time></trkpt><trkpt lat="45.0659894" lon="7.8374215"><ele>314.0</ele><time>2026-04-03T16:02:25.703Z</time></trkpt><trkpt lat="45.0658911" lon="7.8375965"><ele>314.0</ele><time>2026-04-03T16:02:26.705Z</time></trkpt><trkpt lat="45.0658016" lon="7.8377468"><ele>313.59999999999997</ele><time>2026-04-03T16:02:27.696Z</time></trkpt><trkpt lat="45.0657188" lon="7.8378699"><ele>313.2</ele><time>2026-04-03T16:02:28.702Z</time></trkpt><trkpt lat="45.0656657" lon="7.8379714"><ele>312.79999999999995</ele><time>2026-04-03T16:02:29.702Z</time></trkpt><trkpt lat="45.0656326" lon="7.8380882"><ele>312.4</ele><time>2026-04-03T16:02:30.704Z</time></trkpt><trkpt lat="45.0656432" lon="7.8382001"><ele>312.0</ele><time>2026-04-03T16:02:31.703Z</time></trkpt><trkpt lat="45.0656839" lon="7.838359"><ele>311.25</ele><time>2026-04-03T16:02:32.705Z</time></trkpt><trkpt lat="45.0657779" lon="7.8385291"><ele>310.5</ele><time>2026-04-03T16:02:33.7Z</time></trkpt><trkpt lat="45.0658369" lon="7.8386917"><ele>309.75</ele><time>2026-04-03T16:02:34.705Z</time></trkpt><trkpt lat="45.0658814" lon="7.8388394"><ele>309.0</ele><time>2026-04-03T16:02:35.709Z</time></trkpt><trkpt lat="45.0659179" lon="7.8389665"><ele>309.5</ele><time>2026-04-03T16:02:36.706Z</time></trkpt><trkpt lat="45.0659472" lon="7.8390728"><ele>310.0</ele><time>2026-04-03T16:02:37.705Z</time></trkpt><trkpt lat="45.0659598" lon="7.8391606"><ele>310.5</ele><time>2026-04-03T16:02:38.707Z</time></trkpt><trkpt lat="45.0659353" lon="7.8393284"><ele>311.0</ele><time>2026-04-03T16:02:40.709Z</time></trkpt><trkpt lat="45.0658858" lon="7.8394242"><ele>311.5</ele><time>2026-04-03T16:02:41.704Z</time></trkpt><trkpt lat="45.0658015" lon="7.839501"><ele>312.0</ele><time>2026-04-03T16:02:42.701Z</time></trkpt><trkpt lat="45.0656676" lon="7.8396017"><ele>310.25</ele><time>2026-04-03T16:02:43.71Z</time></trkpt><trkpt lat="45.065554" lon="7.8397007"><ele>308.5</ele><time>2026-04-03T16:02:44.698Z</time></trkpt><trkpt lat="45.0654407" lon="7.8398057"><ele>306.75</ele><time>2026-04-03T16:02:45.722Z</time></trkpt><trkpt lat="45.0653355" lon="7.8399104"><ele>305.0</ele><time>2026-04-03T16:02:46.699Z</time></trkpt><trkpt lat="45.0652398" lon="7.8400193"><ele>304.0</ele><time>2026-04-03T16:02:47.703Z</time></trkpt><trkpt lat="45.0651673" lon="7.8401336"><ele>303.0</ele><time>2026-04-03T16:02:48.703Z</time></trkpt><trkpt lat="45.0651229" lon="7.8402588"><ele>302.0</ele><time>2026-04-03T16:02:49.698Z</time></trkpt><trkpt lat="45.0651026" lon="7.8403866"><ele>301.0</ele><time>2026-04-03T16:02:50.699Z</time></trkpt><trkpt lat="45.0650948" lon="7.8405893"><ele>300.0</ele><time>2026-04-03T16:02:51.708Z</time></trkpt><trkpt lat="45.065125" lon="7.8408166"><ele>298.75</ele><time>2026-04-03T16:02:52.707Z</time></trkpt><trkpt lat="45.0652282" lon="7.8410528"><ele>297.5</ele><time>2026-04-03T16:02:53.706Z</time></trkpt><trkpt lat="45.0652845" lon="7.8412172"><ele>296.25</ele><time>2026-04-03T16:02:54.699Z</time></trkpt><trkpt lat="45.0653329" lon="7.8413765"><ele>295.0</ele><time>2026-04-03T16:02:55.702Z</time></trkpt><trkpt lat="45.0653825" lon="7.841523"><ele>295.0</ele><time>2026-04-03T16:02:56.701Z</time></trkpt><trkpt lat="45.0654203" lon="7.8416287"><ele>295.0</ele><time>2026-04-03T16:02:57.702Z</time></trkpt><trkpt lat="45.0654466" lon="7.8417506"><ele>295.0</ele><time>2026-04-03T16:02:59.706Z</time></trkpt><trkpt lat="45.0654398" lon="7.8419092"><ele>295.0</ele><time>2026-04-03T16:03:01.702Z</time></trkpt><trkpt lat="45.0654999" lon="7.842053"><ele>295.0</ele><time>2026-04-03T16:03:03.703Z</time></trkpt><trkpt lat="45.0656094" lon="7.8420827"><ele>294.66666666666663</ele><time>2026-04-03T16:03:05.702Z</time></trkpt><trkpt lat="45.0657069" lon="7.8420218"><ele>294.3333333333333</ele><time>2026-04-03T16:03:06.706Z</time></trkpt><trkpt lat="45.0658552" lon="7.841922"><ele>294.0</ele><time>2026-04-03T16:03:07.7Z</time></trkpt><trkpt lat="45.0660397" lon="7.8418268"><ele>294.0</ele><time>2026-04-03T16:03:08.709Z</time></trkpt><trkpt lat="45.0661957" lon="7.8417985"><ele>294.0</ele><time>2026-04-03T16:03:09.7Z</time></trkpt><trkpt lat="45.0663379" lon="7.8417983"><ele>294.0</ele><time>2026-04-03T16:03:10.707Z</time></trkpt><trkpt lat="45.0664774" lon="7.841793"><ele>294.0</ele><time>2026-04-03T16:03:11.705Z</time></trkpt><trkpt lat="45.0666128" lon="7.8417907"><ele>294.0</ele><time>2026-04-03T16:03:12.697Z</time></trkpt><trkpt lat="45.0667415" lon="7.841787"><ele>294.0</ele><time>2026-04-03T16:03:13.705Z</time></trkpt><trkpt lat="45.0668516" lon="7.8417914"><ele>294.0</ele><time>2026-04-03T16:03:14.7Z</time></trkpt><trkpt lat="45.0669376" lon="7.8418158"><ele>294.0</ele><time>2026-04-03T16:03:15.7Z</time></trkpt><trkpt lat="45.0669909" lon="7.8418645"><ele>294.0</ele><time>2026-04-03T16:03:16.708Z</time></trkpt><trkpt lat="45.0670386" lon="7.8419938"><ele>294.5</ele><time>2026-04-03T16:03:18.702Z</time></trkpt><trkpt lat="45.0670601" lon="7.8421297"><ele>295.0</ele><time>2026-04-03T16:03:19.7Z</time></trkpt><trkpt lat="45.0670525" lon="7.8423585"><ele>295.5</ele><time>2026-04-03T16:03:20.703Z</time></trkpt><trkpt lat="45.0670375" lon="7.8426151"><ele>296.0</ele><time>2026-04-03T16:03:21.705Z</time></trkpt><trkpt lat="45.0670384" lon="7.8428496"><ele>296.6666666666667</ele><time>2026-04-03T16:03:22.697Z</time></trkpt><trkpt lat="45.0670448" lon="7.8430841"><ele>297.3333333333333</ele><time>2026-04-03T16:03:23.709Z</time></trkpt><trkpt lat="45.0670547" lon="7.8433226"><ele>298.0</ele><time>2026-04-03T16:03:24.709Z</time></trkpt><trkpt lat="45.0670667" lon="7.8435747"><ele>298.3333333333333</ele><time>2026-04-03T16:03:25.702Z</time></trkpt><trkpt lat="45.0670824" lon="7.8438204"><ele>298.6666666666667</ele><time>2026-04-03T16:03:26.705Z</time></trkpt><trkpt lat="45.0670955" lon="7.8440492"><ele>299.0</ele><time>2026-04-03T16:03:27.706Z</time></trkpt><trkpt lat="45.0671068" lon="7.8442577"><ele>300.6666666666667</ele><time>2026-04-03T16:03:28.705Z</time></trkpt><trkpt lat="45.0671169" lon="7.8444435"><ele>302.33333333333337</ele><time>2026-04-03T16:03:29.698Z</time></trkpt><trkpt lat="45.0671315" lon="7.8445907"><ele>304.0</ele><time>2026-04-03T16:03:30.709Z</time></trkpt><trkpt lat="45.0671402" lon="7.8446935"><ele>305.6666666666667</ele><time>2026-04-03T16:03:31.699Z</time></trkpt><trkpt lat="45.0671392" lon="7.8447962"><ele>307.3333333333333</ele><time>2026-04-03T16:03:32.7Z</time></trkpt><trkpt lat="45.0671201" lon="7.8448846"><ele>309.0</ele><time>2026-04-03T16:03:33.705Z</time></trkpt><trkpt lat="45.067061" lon="7.8449441"><ele>309.0</ele><time>2026-04-03T16:03:34.704Z</time></trkpt><trkpt lat="45.0669325" lon="7.8450355"><ele>309.0</ele><time>2026-04-03T16:03:35.717Z</time></trkpt><trkpt lat="45.0668014" lon="7.845166"><ele>309.0</ele><time>2026-04-03T16:03:36.7Z</time></trkpt><trkpt lat="45.0666814" lon="7.8452865"><ele>311.75</ele><time>2026-04-03T16:03:37.704Z</time></trkpt><trkpt lat="45.0665793" lon="7.8453949"><ele>314.5</ele><time>2026-04-03T16:03:38.703Z</time></trkpt><trkpt lat="45.0664681" lon="7.8455138"><ele>317.25</ele><time>2026-04-03T16:03:39.702Z</time></trkpt><trkpt lat="45.0663417" lon="7.8456492"><ele>320.0</ele><time>2026-04-03T16:03:40.706Z</time></trkpt><trkpt lat="45.0662097" lon="7.8457829"><ele>320.0</ele><time>2026-04-03T16:03:41.701Z</time></trkpt><trkpt lat="45.0660678" lon="7.8459287"><ele>320.0</ele><time>2026-04-03T16:03:42.71Z</time></trkpt><trkpt lat="45.0659243" lon="7.8460742"><ele>320.0</ele><time>2026-04-03T16:03:43.706Z</time></trkpt><trkpt lat="45.0657899" lon="7.8462141"><ele>322.33333333333337</ele><time>2026-04-03T16:03:44.703Z</time></trkpt><trkpt lat="45.0656524" lon="7.8463567"><ele>324.6666666666667</ele><time>2026-04-03T16:03:45.71Z</time></trkpt><trkpt lat="45.0655246" lon="7.8464901"><ele>327.0</ele><time>2026-04-03T16:03:46.708Z</time></trkpt><trkpt lat="45.0653994" lon="7.8466124"><ele>327.0</ele><time>2026-04-03T16:03:47.708Z</time></trkpt><trkpt lat="45.0652789" lon="7.8467345"><ele>327.0</ele><time>2026-04-03T16:03:48.701Z</time></trkpt><trkpt lat="45.0651611" lon="7.8468571"><ele>327.0</ele><time>2026-04-03T16:03:49.706Z</time></trkpt><trkpt lat="45.0650551" lon="7.8469608"><ele>327.0</ele><time>2026-04-03T16:03:50.713Z</time></trkpt><trkpt lat="45.0649637" lon="7.8470613"><ele>326.40000000000003</ele><time>2026-04-03T16:03:51.722Z</time></trkpt><trkpt lat="45.0648909" lon="7.8471406"><ele>325.8</ele><time>2026-04-03T16:03:52.699Z</time></trkpt><trkpt lat="45.0648202" lon="7.8472427"><ele>325.2</ele><time>2026-04-03T16:03:53.706Z</time></trkpt><trkpt lat="45.0647548" lon="7.8473624"><ele>324.6</ele><time>2026-04-03T16:03:54.701Z</time></trkpt><trkpt lat="45.064686" lon="7.8475036"><ele>324.0</ele><time>2026-04-03T16:03:55.704Z</time></trkpt><trkpt lat="45.0646397" lon="7.8476921"><ele>328.6666666666667</ele><time>2026-04-03T16:03:56.704Z</time></trkpt><trkpt lat="45.0645928" lon="7.8478978"><ele>333.33333333333337</ele><time>2026-04-03T16:03:57.698Z</time></trkpt><trkpt lat="45.0645389" lon="7.8481037"><ele>338.0</ele><time>2026-04-03T16:03:58.706Z</time></trkpt><trkpt lat="45.064472" lon="7.8483009"><ele>341.25</ele><time>2026-04-03T16:03:59.705Z</time></trkpt><trkpt lat="45.0643983" lon="7.848493"><ele>344.5</ele><time>2026-04-03T16:04:00.704Z</time></trkpt><trkpt lat="45.0643344" lon="7.8486716"><ele>347.75</ele><time>2026-04-03T16:04:01.706Z</time></trkpt><trkpt lat="45.064281" lon="7.8488325"><ele>351.0</ele><time>2026-04-03T16:04:02.707Z</time></trkpt><trkpt lat="45.0642401" lon="7.8489838"><ele>351.0</ele><time>2026-04-03T16:04:03.704Z</time></trkpt><trkpt lat="45.064215" lon="7.8491285"><ele>351.0</ele><time>2026-04-03T16:04:04.713Z</time></trkpt><trkpt lat="45.0642026" lon="7.8492779"><ele>351.0</ele><time>2026-04-03T16:04:05.706Z</time></trkpt><trkpt lat="45.064192" lon="7.8494243"><ele>351.0</ele><time>2026-04-03T16:04:06.703Z</time></trkpt><trkpt lat="45.0641935" lon="7.84955"><ele>351.0</ele><time>2026-04-03T16:04:07.703Z</time></trkpt><trkpt lat="45.0642007" lon="7.8496766"><ele>351.6666666666667</ele><time>2026-04-03T16:04:08.702Z</time></trkpt><trkpt lat="45.06421" lon="7.8497869"><ele>352.3333333333333</ele><time>2026-04-03T16:04:09.7Z</time></trkpt><trkpt lat="45.0642738" lon="7.849875"><ele>353.0</ele><time>2026-04-03T16:04:11.708Z</time></trkpt><trkpt lat="45.0643315" lon="7.8499249"><ele>353.66666666666663</ele><time>2026-04-03T16:04:14.697Z</time></trkpt><trkpt lat="45.0643926" lon="7.849971"><ele>354.3333333333333</ele><time>2026-04-03T16:04:16.707Z</time></trkpt><trkpt lat="45.0645031" lon="7.849931"><ele>355.0</ele><time>2026-04-03T16:04:50.703Z</time></trkpt><trkpt lat="45.0645539" lon="7.8499948"><ele>354.2</ele><time>2026-04-03T16:05:01.706Z</time></trkpt><trkpt lat="45.064529" lon="7.850145"><ele>353.4</ele><time>2026-04-03T16:05:03.71Z</time></trkpt><trkpt lat="45.0645024" lon="7.8502333"><ele>352.6</ele><time>2026-04-03T16:05:04.711Z</time></trkpt><trkpt lat="45.0644238" lon="7.8503932"><ele>351.8</ele><time>2026-04-03T16:05:06.702Z</time></trkpt><trkpt lat="45.0643744" lon="7.8504977"><ele>351.0</ele><time>2026-04-03T16:05:07.698Z</time></trkpt><trkpt lat="45.0643121" lon="7.8506332"><ele>351.0</ele><time>2026-04-03T16:05:08.705Z</time></trkpt><trkpt lat="45.0642437" lon="7.8507704"><ele>351.0</ele><time>2026-04-03T16:05:09.706Z</time></trkpt><trkpt lat="45.064159" lon="7.8509091"><ele>351.0</ele><time>2026-04-03T16:05:10.712Z</time></trkpt><trkpt lat="45.0640648" lon="7.851017"><ele>351.0</ele><time>2026-04-03T16:05:11.708Z</time></trkpt><trkpt lat="45.063967" lon="7.8511202"><ele>349.5</ele><time>2026-04-03T16:05:12.708Z</time></trkpt><trkpt lat="45.0638697" lon="7.8512298"><ele>348.0</ele><time>2026-04-03T16:05:13.709Z</time></trkpt><trkpt lat="45.0637883" lon="7.8513602"><ele>346.5</ele><time>2026-04-03T16:05:14.705Z</time></trkpt><trkpt lat="45.0637232" lon="7.8514989"><ele>345.0</ele><time>2026-04-03T16:05:15.698Z</time></trkpt><trkpt lat="45.0636722" lon="7.8516638"><ele>342.5</ele><time>2026-04-03T16:05:16.702Z</time></trkpt><trkpt lat="45.0636344" lon="7.8518478"><ele>340.0</ele><time>2026-04-03T16:05:17.7Z</time></trkpt><trkpt lat="45.063591" lon="7.8520581"><ele>337.5</ele><time>2026-04-03T16:05:18.704Z</time></trkpt><trkpt lat="45.0635471" lon="7.8522685"><ele>335.0</ele><time>2026-04-03T16:05:19.706Z</time></trkpt><trkpt lat="45.0634916" lon="7.8524738"><ele>334.0</ele><time>2026-04-03T16:05:20.706Z</time></trkpt><trkpt lat="45.0634296" lon="7.8526868"><ele>333.0</ele><time>2026-04-03T16:05:21.698Z</time></trkpt><trkpt lat="45.0633588" lon="7.8529106"><ele>332.0</ele><time>2026-04-03T16:05:22.701Z</time></trkpt><trkpt lat="45.0632807" lon="7.8531519"><ele>332.33333333333337</ele><time>2026-04-03T16:05:23.751Z</time></trkpt><trkpt lat="45.0632117" lon="7.8533758"><ele>332.6666666666667</ele><time>2026-04-03T16:05:24.715Z</time></trkpt><trkpt lat="45.063144" lon="7.8536104"><ele>333.0</ele><time>2026-04-03T16:05:25.702Z</time></trkpt><trkpt lat="45.0630712" lon="7.8538567"><ele>332.0</ele><time>2026-04-03T16:05:26.72Z</time></trkpt><trkpt lat="45.0630016" lon="7.8540975"><ele>331.0</ele><time>2026-04-03T16:05:27.711Z</time></trkpt><trkpt lat="45.0629241" lon="7.8543364"><ele>330.0</ele><time>2026-04-03T16:05:28.713Z</time></trkpt><trkpt lat="45.0628425" lon="7.8545612"><ele>329.3333333333333</ele><time>2026-04-03T16:05:29.71Z</time></trkpt><trkpt lat="45.0627509" lon="7.8547697"><ele>328.66666666666663</ele><time>2026-04-03T16:05:30.715Z</time></trkpt><trkpt lat="45.0626711" lon="7.854958"><ele>328.0</ele><time>2026-04-03T16:05:31.708Z</time></trkpt><trkpt lat="45.0625877" lon="7.8551414"><ele>327.66666666666663</ele><time>2026-04-03T16:05:32.703Z</time></trkpt><trkpt lat="45.0624989" lon="7.8553251"><ele>327.3333333333333</ele><time>2026-04-03T16:05:33.704Z</time></trkpt><trkpt lat="45.0624123" lon="7.8555125"><ele>327.0</ele><time>2026-04-03T16:05:34.707Z</time></trkpt><trkpt lat="45.0623345" lon="7.8557163"><ele>325.3333333333333</ele><time>2026-04-03T16:05:35.703Z</time></trkpt><trkpt lat="45.0622612" lon="7.8559333"><ele>323.66666666666663</ele><time>2026-04-03T16:05:36.708Z</time></trkpt><trkpt lat="45.0621879" lon="7.8561499"><ele>322.0</ele><time>2026-04-03T16:05:37.711Z</time></trkpt><trkpt lat="45.0621099" lon="7.8563738"><ele>322.0</ele><time>2026-04-03T16:05:38.705Z</time></trkpt><trkpt lat="45.0620237" lon="7.856608"><ele>322.0</ele><time>2026-04-03T16:05:39.701Z</time></trkpt><trkpt lat="45.061932" lon="7.8568432"><ele>322.0</ele><time>2026-04-03T16:05:40.708Z</time></trkpt><trkpt lat="45.0618342" lon="7.8570727"><ele>322.0</ele><time>2026-04-03T16:05:41.713Z</time></trkpt><trkpt lat="45.061733" lon="7.857285"><ele>322.0</ele><time>2026-04-03T16:05:42.709Z</time></trkpt><trkpt lat="45.0616267" lon="7.8574997"><ele>322.0</ele><time>2026-04-03T16:05:43.707Z</time></trkpt><trkpt lat="45.0615217" lon="7.857709"><ele>320.3333333333333</ele><time>2026-04-03T16:05:44.717Z</time></trkpt><trkpt lat="45.0614182" lon="7.8578983"><ele>318.6666666666667</ele><time>2026-04-03T16:05:45.701Z</time></trkpt><trkpt lat="45.0612991" lon="7.858093"><ele>317.0</ele><time>2026-04-03T16:05:46.706Z</time></trkpt><trkpt lat="45.0611701" lon="7.8582688"><ele>317.0</ele><time>2026-04-03T16:05:47.71Z</time></trkpt><trkpt lat="45.0610296" lon="7.8584473"><ele>317.0</ele><time>2026-04-03T16:05:48.711Z</time></trkpt><trkpt lat="45.0608785" lon="7.8586259"><ele>317.0</ele><time>2026-04-03T16:05:49.711Z</time></trkpt><trkpt lat="45.0607248" lon="7.8588091"><ele>315.33333333333337</ele><time>2026-04-03T16:05:50.711Z</time></trkpt><trkpt lat="45.0605633" lon="7.8589931"><ele>313.6666666666667</ele><time>2026-04-03T16:05:51.711Z</time></trkpt><trkpt lat="45.0604049" lon="7.8591834"><ele>312.0</ele><time>2026-04-03T16:05:52.709Z</time></trkpt><trkpt lat="45.0602398" lon="7.8593672"><ele>312.0</ele><time>2026-04-03T16:05:53.71Z</time></trkpt><trkpt lat="45.0600749" lon="7.8595472"><ele>312.0</ele><time>2026-04-03T16:05:54.714Z</time></trkpt><trkpt lat="45.0599171" lon="7.8597247"><ele>312.0</ele><time>2026-04-03T16:05:55.71Z</time></trkpt><trkpt lat="45.0597674" lon="7.8598959"><ele>310.3333333333333</ele><time>2026-04-03T16:05:56.708Z</time></trkpt><trkpt lat="45.0596273" lon="7.8600557"><ele>308.66666666666663</ele><time>2026-04-03T16:05:57.711Z</time></trkpt><trkpt lat="45.0594922" lon="7.8602135"><ele>307.0</ele><time>2026-04-03T16:05:58.707Z</time></trkpt><trkpt lat="45.0593598" lon="7.8603786"><ele>307.0</ele><time>2026-04-03T16:05:59.716Z</time></trkpt><trkpt lat="45.0592215" lon="7.8605622"><ele>307.0</ele><time>2026-04-03T16:06:00.71Z</time></trkpt><trkpt lat="45.0590814" lon="7.860737"><ele>307.0</ele><time>2026-04-03T16:06:01.705Z</time></trkpt><trkpt lat="45.0589479" lon="7.8608951"><ele>307.0</ele><time>2026-04-03T16:06:02.711Z</time></trkpt><trkpt lat="45.0588174" lon="7.8610255"><ele>307.0</ele><time>2026-04-03T16:06:03.705Z</time></trkpt><trkpt lat="45.0587055" lon="7.8611485"><ele>307.0</ele><time>2026-04-03T16:06:04.711Z</time></trkpt><trkpt lat="45.0586215" lon="7.8612704"><ele>307.0</ele><time>2026-04-03T16:06:05.706Z</time></trkpt><trkpt lat="45.0585426" lon="7.8614278"><ele>307.0</ele><time>2026-04-03T16:06:06.701Z</time></trkpt><trkpt lat="45.0584925" lon="7.8616072"><ele>307.0</ele><time>2026-04-03T16:06:07.704Z</time></trkpt><trkpt lat="45.0584689" lon="7.8617978"><ele>307.0</ele><time>2026-04-03T16:06:08.707Z</time></trkpt><trkpt lat="45.0584756" lon="7.8619732"><ele>307.0</ele><time>2026-04-03T16:06:09.706Z</time></trkpt><trkpt lat="45.0584645" lon="7.8621289"><ele>307.4</ele><time>2026-04-03T16:06:10.706Z</time></trkpt><trkpt lat="45.0584336" lon="7.8622422"><ele>307.79999999999995</ele><time>2026-04-03T16:06:11.712Z</time></trkpt><trkpt lat="45.0583717" lon="7.8623313"><ele>308.2</ele><time>2026-04-03T16:06:12.704Z</time></trkpt><trkpt lat="45.0582971" lon="7.8624167"><ele>308.59999999999997</ele><time>2026-04-03T16:06:13.716Z</time></trkpt><trkpt lat="45.0581736" lon="7.8624787"><ele>309.0</ele><time>2026-04-03T16:06:14.708Z</time></trkpt><trkpt lat="45.0580085" lon="7.8625297"><ele>308.6666666666667</ele><time>2026-04-03T16:06:15.713Z</time></trkpt><trkpt lat="45.0578536" lon="7.8625937"><ele>308.33333333333337</ele><time>2026-04-03T16:06:16.709Z</time></trkpt><trkpt lat="45.0576977" lon="7.8626681"><ele>308.0</ele><time>2026-04-03T16:06:17.708Z</time></trkpt><trkpt lat="45.0575501" lon="7.8627549"><ele>307.0</ele><time>2026-04-03T16:06:18.705Z</time></trkpt><trkpt lat="45.0574176" lon="7.8628432"><ele>306.0</ele><time>2026-04-03T16:06:19.712Z</time></trkpt><trkpt lat="45.0573043" lon="7.8629195"><ele>305.0</ele><time>2026-04-03T16:06:20.706Z</time></trkpt><trkpt lat="45.057197" lon="7.8629976"><ele>304.0</ele><time>2026-04-03T16:06:21.705Z</time></trkpt><trkpt lat="45.0571115" lon="7.8630749"><ele>304.0</ele><time>2026-04-03T16:06:22.705Z</time></trkpt><trkpt lat="45.0570472" lon="7.8631597"><ele>304.0</ele><time>2026-04-03T16:06:23.709Z</time></trkpt><trkpt lat="45.0570096" lon="7.8632719"><ele>304.0</ele><time>2026-04-03T16:06:24.706Z</time></trkpt><trkpt lat="45.0569909" lon="7.8634126"><ele>304.0</ele><time>2026-04-03T16:06:25.715Z</time></trkpt><trkpt lat="45.0569908" lon="7.8635732"><ele>304.0</ele><time>2026-04-03T16:06:26.708Z</time></trkpt><trkpt lat="45.0570108" lon="7.8637431"><ele>304.0</ele><time>2026-04-03T16:06:27.709Z</time></trkpt><trkpt lat="45.0570467" lon="7.8639133"><ele>304.0</ele><time>2026-04-03T16:06:28.708Z</time></trkpt><trkpt lat="45.0570925" lon="7.8640696"><ele>304.0</ele><time>2026-04-03T16:06:29.703Z</time></trkpt><trkpt lat="45.0571649" lon="7.8642271"><ele>304.0</ele><time>2026-04-03T16:06:30.708Z</time></trkpt><trkpt lat="45.0572586" lon="7.8643805"><ele>304.0</ele><time>2026-04-03T16:06:31.708Z</time></trkpt><trkpt lat="45.057368" lon="7.8645228"><ele>304.0</ele><time>2026-04-03T16:06:32.709Z</time></trkpt><trkpt lat="45.0574884" lon="7.8646856"><ele>304.0</ele><time>2026-04-03T16:06:33.711Z</time></trkpt><trkpt lat="45.0575968" lon="7.8648664"><ele>304.5</ele><time>2026-04-03T16:06:34.711Z</time></trkpt><trkpt lat="45.0576897" lon="7.8650522"><ele>305.0</ele><time>2026-04-03T16:06:35.706Z</time></trkpt><trkpt lat="45.0577694" lon="7.8652229"><ele>305.5</ele><time>2026-04-03T16:06:36.709Z</time></trkpt><trkpt lat="45.057844" lon="7.8653772"><ele>306.0</ele><time>2026-04-03T16:06:37.703Z</time></trkpt><trkpt lat="45.0579084" lon="7.8655134"><ele>307.0</ele><time>2026-04-03T16:06:38.713Z</time></trkpt><trkpt lat="45.0579523" lon="7.8656337"><ele>308.0</ele><time>2026-04-03T16:06:39.712Z</time></trkpt><trkpt lat="45.0579766" lon="7.8657477"><ele>309.0</ele><time>2026-04-03T16:06:40.713Z</time></trkpt><trkpt lat="45.0579838" lon="7.8658974"><ele>310.0</ele><time>2026-04-03T16:06:41.711Z</time></trkpt><trkpt lat="45.0579814" lon="7.8660572"><ele>311.0</ele><time>2026-04-03T16:06:42.716Z</time></trkpt><trkpt lat="45.0579794" lon="7.8662302"><ele>313.0</ele><time>2026-04-03T16:06:43.706Z</time></trkpt><trkpt lat="45.0579723" lon="7.8664124"><ele>315.0</ele><time>2026-04-03T16:06:44.706Z</time></trkpt><trkpt lat="45.0579578" lon="7.8665968"><ele>317.0</ele><time>2026-04-03T16:06:45.702Z</time></trkpt><trkpt lat="45.057945" lon="7.8667767"><ele>319.0</ele><time>2026-04-03T16:06:46.709Z</time></trkpt><trkpt lat="45.0579311" lon="7.8669616"><ele>320.0</ele><time>2026-04-03T16:06:47.713Z</time></trkpt><trkpt lat="45.0579115" lon="7.8671233"><ele>321.0</ele><time>2026-04-03T16:06:48.711Z</time></trkpt><trkpt lat="45.0578781" lon="7.8672784"><ele>322.0</ele><time>2026-04-03T16:06:49.711Z</time></trkpt><trkpt lat="45.0578342" lon="7.8673988"><ele>323.0</ele><time>2026-04-03T16:06:50.709Z</time></trkpt><trkpt lat="45.0577883" lon="7.8675165"><ele>324.0</ele><time>2026-04-03T16:06:51.708Z</time></trkpt><trkpt lat="45.0577551" lon="7.8676328"><ele>324.2</ele><time>2026-04-03T16:06:52.713Z</time></trkpt><trkpt lat="45.0577407" lon="7.8677357"><ele>324.4</ele><time>2026-04-03T16:06:53.715Z</time></trkpt><trkpt lat="45.0577352" lon="7.8678455"><ele>324.6</ele><time>2026-04-03T16:06:54.714Z</time></trkpt><trkpt lat="45.0577261" lon="7.8679896"><ele>324.8</ele><time>2026-04-03T16:06:55.715Z</time></trkpt><trkpt lat="45.0577147" lon="7.8681604"><ele>325.0</ele><time>2026-04-03T16:06:56.701Z</time></trkpt><trkpt lat="45.0577085" lon="7.8683332"><ele>325.25</ele><time>2026-04-03T16:06:57.709Z</time></trkpt><trkpt lat="45.0577092" lon="7.8685118"><ele>325.5</ele><time>2026-04-03T16:06:58.708Z</time></trkpt><trkpt lat="45.0577076" lon="7.8687066"><ele>325.75</ele><time>2026-04-03T16:06:59.721Z</time></trkpt><trkpt lat="45.0577029" lon="7.8689043"><ele>326.0</ele><time>2026-04-03T16:07:00.709Z</time></trkpt><trkpt lat="45.0576963" lon="7.8691255"><ele>326.5</ele><time>2026-04-03T16:07:01.711Z</time></trkpt><trkpt lat="45.0576883" lon="7.8693352"><ele>327.0</ele><time>2026-04-03T16:07:02.706Z</time></trkpt><trkpt lat="45.0576853" lon="7.8695495"><ele>327.5</ele><time>2026-04-03T16:07:03.719Z</time></trkpt><trkpt lat="45.0576818" lon="7.8697526"><ele>328.0</ele><time>2026-04-03T16:07:04.707Z</time></trkpt><trkpt lat="45.057683" lon="7.8699745"><ele>328.75</ele><time>2026-04-03T16:07:05.715Z</time></trkpt><trkpt lat="45.057686" lon="7.8701786"><ele>329.5</ele><time>2026-04-03T16:07:06.708Z</time></trkpt><trkpt lat="45.0576924" lon="7.8703641"><ele>330.25</ele><time>2026-04-03T16:07:07.706Z</time></trkpt><trkpt lat="45.0576986" lon="7.8705302"><ele>331.0</ele><time>2026-04-03T16:07:08.709Z</time></trkpt><trkpt lat="45.0576999" lon="7.8706911"><ele>331.0</ele><time>2026-04-03T16:07:09.706Z</time></trkpt><trkpt lat="45.0576894" lon="7.8708394"><ele>331.0</ele><time>2026-04-03T16:07:10.712Z</time></trkpt><trkpt lat="45.057656" lon="7.8709974"><ele>331.0</ele><time>2026-04-03T16:07:11.705Z</time></trkpt><trkpt lat="45.0575906" lon="7.8711422"><ele>331.0</ele><time>2026-04-03T16:07:12.701Z</time></trkpt><trkpt lat="45.0574912" lon="7.8712904"><ele>332.66666666666663</ele><time>2026-04-03T16:07:13.713Z</time></trkpt><trkpt lat="45.0573836" lon="7.8714551"><ele>334.3333333333333</ele><time>2026-04-03T16:07:14.711Z</time></trkpt><trkpt lat="45.0572808" lon="7.8716222"><ele>336.0</ele><time>2026-04-03T16:07:15.71Z</time></trkpt><trkpt lat="45.0571856" lon="7.8717633"><ele>338.20000000000005</ele><time>2026-04-03T16:07:16.71Z</time></trkpt><trkpt lat="45.0571034" lon="7.8718726"><ele>340.40000000000003</ele><time>2026-04-03T16:07:17.709Z</time></trkpt><trkpt lat="45.0570505" lon="7.8719406"><ele>342.6</ele><time>2026-04-03T16:07:18.711Z</time></trkpt><trkpt lat="45.0569909" lon="7.8720344"><ele>344.8</ele><time>2026-04-03T16:07:20.713Z</time></trkpt><trkpt lat="45.0569372" lon="7.8721662"><ele>347.0</ele><time>2026-04-03T16:07:22.712Z</time></trkpt><trkpt lat="45.0569205" lon="7.8723473"><ele>347.0</ele><time>2026-04-03T16:07:24.704Z</time></trkpt><trkpt lat="45.0569232" lon="7.8724557"><ele>347.0</ele><time>2026-04-03T16:07:25.707Z</time></trkpt><trkpt lat="45.0569418" lon="7.8725683"><ele>347.0</ele><time>2026-04-03T16:07:26.701Z</time></trkpt><trkpt lat="45.0569715" lon="7.8726765"><ele>347.0</ele><time>2026-04-03T16:07:27.711Z</time></trkpt><trkpt lat="45.056999" lon="7.8727918"><ele>347.0</ele><time>2026-04-03T16:07:28.703Z</time></trkpt><trkpt lat="45.0570249" lon="7.8729141"><ele>347.0</ele><time>2026-04-03T16:07:29.707Z</time></trkpt><trkpt lat="45.0570389" lon="7.8730429"><ele>347.5</ele><time>2026-04-03T16:07:30.714Z</time></trkpt><trkpt lat="45.0570463" lon="7.8731761"><ele>348.0</ele><time>2026-04-03T16:07:31.705Z</time></trkpt><trkpt lat="45.0570485" lon="7.8733122"><ele>348.5</ele><time>2026-04-03T16:07:32.7Z</time></trkpt><trkpt lat="45.0570477" lon="7.8734267"><ele>349.0</ele><time>2026-04-03T16:07:33.701Z</time></trkpt><trkpt lat="45.0570537" lon="7.8735221"><ele>349.5</ele><time>2026-04-03T16:07:34.711Z</time></trkpt><trkpt lat="45.0571149" lon="7.8736226"><ele>350.0</ele><time>2026-04-03T16:07:36.717Z</time></trkpt><trkpt lat="45.0572526" lon="7.8736048"><ele>352.4</ele><time>2026-04-03T16:07:38.703Z</time></trkpt><trkpt lat="45.0573347" lon="7.8735429"><ele>354.8</ele><time>2026-04-03T16:07:39.71Z</time></trkpt><trkpt lat="45.0574347" lon="7.8734696"><ele>357.20000000000005</ele><time>2026-04-03T16:07:40.714Z</time></trkpt><trkpt lat="45.057501" lon="7.8733659"><ele>359.6</ele><time>2026-04-03T16:07:41.703Z</time></trkpt><trkpt lat="45.0575572" lon="7.8732486"><ele>362.0</ele><time>2026-04-03T16:07:42.702Z</time></trkpt><trkpt lat="45.057601" lon="7.8731146"><ele>362.0</ele><time>2026-04-03T16:07:44.705Z</time></trkpt><trkpt lat="45.0576172" lon="7.8732016"><ele>362.0</ele><time>2026-04-03T16:07:50.716Z</time></trkpt><trkpt lat="45.057575" lon="7.8732966"><ele>362.0</ele><time>2026-04-03T16:07:52.711Z</time></trkpt><trkpt lat="45.0575102" lon="7.8734227"><ele>362.0</ele><time>2026-04-03T16:07:54.703Z</time></trkpt><trkpt lat="45.0574578" lon="7.8735388"><ele>362.0</ele><time>2026-04-03T16:07:56.712Z</time></trkpt><trkpt lat="45.0574076" lon="7.8736068"><ele>362.0</ele><time>2026-04-03T16:08:00.701Z</time></trkpt><trkpt lat="45.0573458" lon="7.8736285"><ele>362.0</ele><time>2026-04-03T16:08:12.704Z</time></trkpt><trkpt lat="45.0572799" lon="7.8736189"><ele>362.0</ele><time>2026-04-03T16:08:24.706Z</time></trkpt><trkpt lat="45.0573566" lon="7.8735761"><ele>362.0</ele><time>2026-04-03T16:08:33.717Z</time></trkpt><trkpt lat="45.0574242" lon="7.8734326"><ele>362.0</ele><time>2026-04-03T16:08:35.704Z</time></trkpt><trkpt lat="45.0575057" lon="7.8732909"><ele>362.0</ele><time>2026-04-03T16:08:37.704Z</time></trkpt><trkpt lat="45.0575677" lon="7.8732158"><ele>364.20000000000005</ele><time>2026-04-03T16:08:38.708Z</time></trkpt><trkpt lat="45.0576573" lon="7.8730476"><ele>366.4</ele><time>2026-04-03T16:08:39.708Z</time></trkpt><trkpt lat="45.057739" lon="7.872978"><ele>368.6</ele><time>2026-04-03T16:08:40.708Z</time></trkpt><trkpt lat="45.0578098" lon="7.8729318"><ele>370.79999999999995</ele><time>2026-04-03T16:08:41.707Z</time></trkpt><trkpt lat="45.057893" lon="7.8729325"><ele>373.0</ele><time>2026-04-03T16:08:42.713Z</time></trkpt><trkpt lat="45.0579715" lon="7.8729748"><ele>373.0</ele><time>2026-04-03T16:08:43.706Z</time></trkpt><trkpt lat="45.0580554" lon="7.8730591"><ele>373.0</ele><time>2026-04-03T16:08:44.708Z</time></trkpt><trkpt lat="45.0581445" lon="7.8731634"><ele>373.0</ele><time>2026-04-03T16:08:45.705Z</time></trkpt><trkpt lat="45.0582186" lon="7.8732449"><ele>373.0</ele><time>2026-04-03T16:08:46.706Z</time></trkpt><trkpt lat="45.0582855" lon="7.8733079"><ele>373.0</ele><time>2026-04-03T16:08:47.709Z</time></trkpt><trkpt lat="45.0583643" lon="7.8734001"><ele>373.5</ele><time>2026-04-03T16:08:49.717Z</time></trkpt><trkpt lat="45.0584196" lon="7.8734545"><ele>374.0</ele><time>2026-04-03T16:09:05.702Z</time></trkpt><trkpt lat="45.0585051" lon="7.8735235"><ele>374.5</ele><time>2026-04-03T16:09:07.707Z</time></trkpt><trkpt lat="45.0586097" lon="7.8735779"><ele>375.0</ele><time>2026-04-03T16:09:09.711Z</time></trkpt><trkpt lat="45.058683" lon="7.8736093"><ele>375.5</ele><time>2026-04-03T16:09:10.707Z</time></trkpt><trkpt lat="45.0587635" lon="7.8736507"><ele>376.0</ele><time>2026-04-03T16:09:11.716Z</time></trkpt><trkpt lat="45.0588464" lon="7.8736851"><ele>376.0</ele><time>2026-04-03T16:09:12.706Z</time></trkpt><trkpt lat="45.0589261" lon="7.8737281"><ele>376.0</ele><time>2026-04-03T16:09:13.713Z</time></trkpt><trkpt lat="45.0589943" lon="7.8737633"><ele>376.0</ele><time>2026-04-03T16:09:14.706Z</time></trkpt><trkpt lat="45.0590861" lon="7.8738133"><ele>376.0</ele><time>2026-04-03T16:09:15.707Z</time></trkpt><trkpt lat="45.0591617" lon="7.8738377"><ele>376.0</ele><time>2026-04-03T16:09:16.712Z</time></trkpt><trkpt lat="45.059237" lon="7.8738451"><ele>376.0</ele><time>2026-04-03T16:09:17.714Z</time></trkpt><trkpt lat="45.0593069" lon="7.8738525"><ele>375.4</ele><time>2026-04-03T16:09:18.704Z</time></trkpt><trkpt lat="45.0593727" lon="7.8738631"><ele>374.8</ele><time>2026-04-03T16:09:19.711Z</time></trkpt><trkpt lat="45.0594385" lon="7.8738665"><ele>374.2</ele><time>2026-04-03T16:09:20.706Z</time></trkpt><trkpt lat="45.0595756" lon="7.8738718"><ele>373.59999999999997</ele><time>2026-04-03T16:09:22.704Z</time></trkpt><trkpt lat="45.0596741" lon="7.8738732"><ele>373.0</ele><time>2026-04-03T16:09:23.712Z</time></trkpt><trkpt lat="45.0597775" lon="7.8738628"><ele>373.0</ele><time>2026-04-03T16:09:24.709Z</time></trkpt><trkpt lat="45.0598783" lon="7.8738437"><ele>373.0</ele><time>2026-04-03T16:09:25.716Z</time></trkpt><trkpt lat="45.0599749" lon="7.873826"><ele>373.0</ele><time>2026-04-03T16:09:26.725Z</time></trkpt><trkpt lat="45.0600622" lon="7.8738116"><ele>373.0</ele><time>2026-04-03T16:09:27.724Z</time></trkpt><trkpt lat="45.0601569" lon="7.8738004"><ele>373.0</ele><time>2026-04-03T16:09:28.714Z</time></trkpt><trkpt lat="45.0602515" lon="7.8737861"><ele>373.0</ele><time>2026-04-03T16:09:29.707Z</time></trkpt><trkpt lat="45.0603541" lon="7.8737668"><ele>373.0</ele><time>2026-04-03T16:09:30.716Z</time></trkpt><trkpt lat="45.0604613" lon="7.8737491"><ele>373.0</ele><time>2026-04-03T16:09:31.714Z</time></trkpt><trkpt lat="45.0605763" lon="7.8737272"><ele>373.0</ele><time>2026-04-03T16:09:32.722Z</time></trkpt><trkpt lat="45.060698" lon="7.8737006"><ele>374.75</ele><time>2026-04-03T16:09:33.709Z</time></trkpt><trkpt lat="45.0608245" lon="7.8736801"><ele>376.5</ele><time>2026-04-03T16:09:34.71Z</time></trkpt><trkpt lat="45.0609476" lon="7.8736676"><ele>378.25</ele><time>2026-04-03T16:09:35.715Z</time></trkpt><trkpt lat="45.061067" lon="7.8736548"><ele>380.0</ele><time>2026-04-03T16:09:36.712Z</time></trkpt><trkpt lat="45.0611794" lon="7.8736445"><ele>380.0</ele><time>2026-04-03T16:09:37.707Z</time></trkpt><trkpt lat="45.0612805" lon="7.8736383"><ele>380.0</ele><time>2026-04-03T16:09:38.712Z</time></trkpt><trkpt lat="45.0613788" lon="7.8736337"><ele>380.0</ele><time>2026-04-03T16:09:39.706Z</time></trkpt><trkpt lat="45.0614739" lon="7.8736443"><ele>380.0</ele><time>2026-04-03T16:09:40.71Z</time></trkpt><trkpt lat="45.0615526" lon="7.8736689"><ele>380.0</ele><time>2026-04-03T16:09:41.715Z</time></trkpt><trkpt lat="45.0616357" lon="7.8736953"><ele>381.4</ele><time>2026-04-03T16:09:42.714Z</time></trkpt><trkpt lat="45.0617268" lon="7.8737287"><ele>382.8</ele><time>2026-04-03T16:09:43.704Z</time></trkpt><trkpt lat="45.0618127" lon="7.8737478"><ele>384.20000000000005</ele><time>2026-04-03T16:09:44.704Z</time></trkpt><trkpt lat="45.0619088" lon="7.8737628"><ele>385.6</ele><time>2026-04-03T16:09:45.704Z</time></trkpt><trkpt lat="45.0620062" lon="7.8737629"><ele>387.0</ele><time>2026-04-03T16:09:46.709Z</time></trkpt><trkpt lat="45.0621384" lon="7.8737419"><ele>387.0</ele><time>2026-04-03T16:09:47.704Z</time></trkpt><trkpt lat="45.0622972" lon="7.8737121"><ele>387.0</ele><time>2026-04-03T16:09:48.709Z</time></trkpt><trkpt lat="45.0624653" lon="7.8736859"><ele>387.0</ele><time>2026-04-03T16:09:49.713Z</time></trkpt><trkpt lat="45.0626489" lon="7.8736635"><ele>388.0</ele><time>2026-04-03T16:09:50.71Z</time></trkpt><trkpt lat="45.0628415" lon="7.8736464"><ele>389.0</ele><time>2026-04-03T16:09:51.702Z</time></trkpt><trkpt lat="45.0630198" lon="7.873633"><ele>390.0</ele><time>2026-04-03T16:09:52.707Z</time></trkpt><trkpt lat="45.0631867" lon="7.8736185"><ele>390.5</ele><time>2026-04-03T16:09:53.701Z</time></trkpt><trkpt lat="45.0633434" lon="7.8735974"><ele>391.0</ele><time>2026-04-03T16:09:54.709Z</time></trkpt><trkpt lat="45.0634757" lon="7.8735777"><ele>391.5</ele><time>2026-04-03T16:09:55.705Z</time></trkpt><trkpt lat="45.0635956" lon="7.8735572"><ele>392.0</ele><time>2026-04-03T16:09:56.706Z</time></trkpt><trkpt lat="45.0638096" lon="7.8735404"><ele>392.0</ele><time>2026-04-03T16:09:58.709Z</time></trkpt><trkpt lat="45.0639116" lon="7.8735398"><ele>392.0</ele><time>2026-04-03T16:09:59.716Z</time></trkpt><trkpt lat="45.0640166" lon="7.8735415"><ele>392.0</ele><time>2026-04-03T16:10:00.703Z</time></trkpt><trkpt lat="45.0641277" lon="7.8735527"><ele>392.0</ele><time>2026-04-03T16:10:01.709Z</time></trkpt><trkpt lat="45.0642483" lon="7.8735841"><ele>392.0</ele><time>2026-04-03T16:10:02.702Z</time></trkpt><trkpt lat="45.0643748" lon="7.8736491"><ele>389.6</ele><time>2026-04-03T16:10:03.715Z</time></trkpt><trkpt lat="45.0644985" lon="7.8737108"><ele>387.20000000000005</ele><time>2026-04-03T16:10:04.709Z</time></trkpt><trkpt lat="45.0645956" lon="7.8737543"><ele>384.8</ele><time>2026-04-03T16:10:05.709Z</time></trkpt><trkpt lat="45.0646956" lon="7.8737692"><ele>382.4</ele><time>2026-04-03T16:10:06.71Z</time></trkpt><trkpt lat="45.0648086" lon="7.8737515"><ele>380.0</ele><time>2026-04-03T16:10:07.712Z</time></trkpt><trkpt lat="45.0649275" lon="7.8737041"><ele>380.25</ele><time>2026-04-03T16:10:08.712Z</time></trkpt><trkpt lat="45.0650436" lon="7.8736361"><ele>380.5</ele><time>2026-04-03T16:10:09.719Z</time></trkpt><trkpt lat="45.0651489" lon="7.8735586"><ele>380.75</ele><time>2026-04-03T16:10:10.704Z</time></trkpt><trkpt lat="45.0652652" lon="7.8734558"><ele>381.0</ele><time>2026-04-03T16:10:11.713Z</time></trkpt><trkpt lat="45.0653607" lon="7.8733087"><ele>381.0</ele><time>2026-04-03T16:10:12.709Z</time></trkpt><trkpt lat="45.0654317" lon="7.8731917"><ele>381.0</ele><time>2026-04-03T16:10:13.702Z</time></trkpt><trkpt lat="45.0654951" lon="7.8730908"><ele>381.0</ele><time>2026-04-03T16:10:14.708Z</time></trkpt><trkpt lat="45.0655581" lon="7.8730224"><ele>381.0</ele><time>2026-04-03T16:10:15.709Z</time></trkpt><trkpt lat="45.0656213" lon="7.8729748"><ele>381.0</ele><time>2026-04-03T16:10:16.716Z</time></trkpt><trkpt lat="45.065738" lon="7.8729943"><ele>381.0</ele><time>2026-04-03T16:10:18.716Z</time></trkpt><trkpt lat="45.0657981" lon="7.8730349"><ele>381.0</ele><time>2026-04-03T16:10:19.712Z</time></trkpt><trkpt lat="45.0658466" lon="7.8731177"><ele>381.0</ele><time>2026-04-03T16:10:21.718Z</time></trkpt><trkpt lat="45.0657763" lon="7.8732409"><ele>381.0</ele><time>2026-04-03T16:10:22.715Z</time></trkpt><trkpt lat="45.0656509" lon="7.8733547"><ele>381.0</ele><time>2026-04-03T16:10:23.714Z</time></trkpt><trkpt lat="45.0655101" lon="7.8734831"><ele>377.6</ele><time>2026-04-03T16:10:24.715Z</time></trkpt><trkpt lat="45.0654422" lon="7.87361"><ele>374.20000000000005</ele><time>2026-04-03T16:10:25.718Z</time></trkpt><trkpt lat="45.0654259" lon="7.873729"><ele>370.79999999999995</ele><time>2026-04-03T16:10:26.711Z</time></trkpt><trkpt lat="45.0655013" lon="7.873842"><ele>367.4</ele><time>2026-04-03T16:10:28.715Z</time></trkpt><trkpt lat="45.0655733" lon="7.8738247"><ele>364.0</ele><time>2026-04-03T16:10:29.719Z</time></trkpt><trkpt lat="45.0656593" lon="7.8737982"><ele>364.0</ele><time>2026-04-03T16:10:30.709Z</time></trkpt><trkpt lat="45.0657378" lon="7.8737554"><ele>364.0</ele><time>2026-04-03T16:10:31.714Z</time></trkpt><trkpt lat="45.0658366" lon="7.8737136"><ele>364.0</ele><time>2026-04-03T16:10:32.718Z</time></trkpt><trkpt lat="45.065928" lon="7.8736728"><ele>364.0</ele><time>2026-04-03T16:10:33.706Z</time></trkpt><trkpt lat="45.0660112" lon="7.8736141"><ele>364.0</ele><time>2026-04-03T16:10:34.714Z</time></trkpt><trkpt lat="45.0660752" lon="7.8735415"><ele>362.8333333333333</ele><time>2026-04-03T16:10:35.708Z</time></trkpt><trkpt lat="45.0661096" lon="7.8734437"><ele>361.66666666666663</ele><time>2026-04-03T16:10:36.72Z</time></trkpt><trkpt lat="45.0661055" lon="7.8733231"><ele>360.5</ele><time>2026-04-03T16:10:37.716Z</time></trkpt><trkpt lat="45.0660795" lon="7.8732139"><ele>359.3333333333333</ele><time>2026-04-03T16:10:38.722Z</time></trkpt><trkpt lat="45.0660692" lon="7.873083"><ele>358.1666666666667</ele><time>2026-04-03T16:10:39.718Z</time></trkpt><trkpt lat="45.0660741" lon="7.8729506"><ele>357.0</ele><time>2026-04-03T16:10:40.712Z</time></trkpt><trkpt lat="45.0661055" lon="7.8728161"><ele>357.0</ele><time>2026-04-03T16:10:41.712Z</time></trkpt><trkpt lat="45.0661421" lon="7.8726661"><ele>357.0</ele><time>2026-04-03T16:10:42.71Z</time></trkpt><trkpt lat="45.0661922" lon="7.8725309"><ele>357.0</ele><time>2026-04-03T16:10:43.726Z</time></trkpt><trkpt lat="45.0662447" lon="7.8724119"><ele>357.0</ele><time>2026-04-03T16:10:44.718Z</time></trkpt><trkpt lat="45.0662974" lon="7.8722961"><ele>357.0</ele><time>2026-04-03T16:10:45.711Z</time></trkpt><trkpt lat="45.0663561" lon="7.8721885"><ele>356.20000000000005</ele><time>2026-04-03T16:10:46.715Z</time></trkpt><trkpt lat="45.0664298" lon="7.87211"><ele>355.4</ele><time>2026-04-03T16:10:47.713Z</time></trkpt><trkpt lat="45.0665211" lon="7.8720783"><ele>354.6</ele><time>2026-04-03T16:10:48.715Z</time></trkpt><trkpt lat="45.0666239" lon="7.8720844"><ele>353.79999999999995</ele><time>2026-04-03T16:10:49.717Z</time></trkpt><trkpt lat="45.0667195" lon="7.8721527"><ele>353.0</ele><time>2026-04-03T16:10:50.715Z</time></trkpt><trkpt lat="45.0668265" lon="7.872259"><ele>353.0</ele><time>2026-04-03T16:10:51.719Z</time></trkpt><trkpt lat="45.0669411" lon="7.8723365"><ele>353.0</ele><time>2026-04-03T16:10:52.725Z</time></trkpt><trkpt lat="45.0670737" lon="7.8723709"><ele>353.0</ele><time>2026-04-03T16:10:53.719Z</time></trkpt><trkpt lat="45.0671991" lon="7.87238"><ele>353.0</ele><time>2026-04-03T16:10:54.722Z</time></trkpt><trkpt lat="45.0673204" lon="7.872389"><ele>353.0</ele><time>2026-04-03T16:10:55.712Z</time></trkpt><trkpt lat="45.0674107" lon="7.8723999"><ele>353.0</ele><time>2026-04-03T16:10:56.715Z</time></trkpt><trkpt lat="45.0674772" lon="7.8724199"><ele>353.0</ele><time>2026-04-03T16:10:57.713Z</time></trkpt><trkpt lat="45.0675547" lon="7.8724359"><ele>353.0</ele><time>2026-04-03T16:10:59.713Z</time></trkpt><trkpt lat="45.0674795" lon="7.8724007"><ele>353.0</ele><time>2026-04-03T16:11:17.718Z</time></trkpt><trkpt lat="45.0673291" lon="7.8723668"><ele>353.0</ele><time>2026-04-03T16:11:19.717Z</time></trkpt><trkpt lat="45.0672281" lon="7.872351"><ele>353.0</ele><time>2026-04-03T16:11:20.724Z</time></trkpt><trkpt lat="45.0671316" lon="7.8723361"><ele>353.0</ele><time>2026-04-03T16:11:21.715Z</time></trkpt><trkpt lat="45.0670311" lon="7.8723219"><ele>353.0</ele><time>2026-04-03T16:11:22.712Z</time></trkpt><trkpt lat="45.0669049" lon="7.8723024"><ele>353.0</ele><time>2026-04-03T16:11:23.715Z</time></trkpt><trkpt lat="45.0667902" lon="7.8722571"><ele>353.0</ele><time>2026-04-03T16:11:24.712Z</time></trkpt><trkpt lat="45.066674" lon="7.8721708"><ele>353.0</ele><time>2026-04-03T16:11:25.714Z</time></trkpt><trkpt lat="45.0665919" lon="7.8720795"><ele>353.0</ele><time>2026-04-03T16:11:26.71Z</time></trkpt><trkpt lat="45.0665105" lon="7.8720214"><ele>353.0</ele><time>2026-04-03T16:11:27.716Z</time></trkpt><trkpt lat="45.0664362" lon="7.8719879"><ele>353.0</ele><time>2026-04-03T16:11:28.711Z</time></trkpt><trkpt lat="45.06637" lon="7.8719984"><ele>354.0</ele><time>2026-04-03T16:11:29.72Z</time></trkpt><trkpt lat="45.0662782" lon="7.8720568"><ele>355.0</ele><time>2026-04-03T16:11:30.714Z</time></trkpt><trkpt lat="45.0662074" lon="7.8721994"><ele>356.0</ele><time>2026-04-03T16:11:31.712Z</time></trkpt><trkpt lat="45.0661313" lon="7.8724156"><ele>357.0</ele><time>2026-04-03T16:11:32.716Z</time></trkpt><trkpt lat="45.0660552" lon="7.8726678"><ele>357.0</ele><time>2026-04-03T16:11:33.719Z</time></trkpt><trkpt lat="45.0660076" lon="7.8729083"><ele>357.0</ele><time>2026-04-03T16:11:34.716Z</time></trkpt><trkpt lat="45.0659874" lon="7.8731582"><ele>357.0</ele><time>2026-04-03T16:11:35.709Z</time></trkpt><trkpt lat="45.0659919" lon="7.8733578"><ele>358.40000000000003</ele><time>2026-04-03T16:11:36.708Z</time></trkpt><trkpt lat="45.0659976" lon="7.873511"><ele>359.8</ele><time>2026-04-03T16:11:37.705Z</time></trkpt><trkpt lat="45.0659769" lon="7.8736027"><ele>361.2</ele><time>2026-04-03T16:11:38.712Z</time></trkpt><trkpt lat="45.0659089" lon="7.8736613"><ele>362.6</ele><time>2026-04-03T16:11:39.707Z</time></trkpt><trkpt lat="45.0657953" lon="7.8737377"><ele>364.0</ele><time>2026-04-03T16:11:40.712Z</time></trkpt><trkpt lat="45.0656722" lon="7.873792"><ele>364.0</ele><time>2026-04-03T16:11:41.72Z</time></trkpt><trkpt lat="45.0655718" lon="7.8738221"><ele>364.0</ele><time>2026-04-03T16:11:42.715Z</time></trkpt><trkpt lat="45.0654862" lon="7.8738252"><ele>364.0</ele><time>2026-04-03T16:11:43.706Z</time></trkpt><trkpt lat="45.065422" lon="7.8736714"><ele>364.0</ele><time>2026-04-03T16:11:45.711Z</time></trkpt><trkpt lat="45.0654403" lon="7.873577"><ele>364.0</ele><time>2026-04-03T16:11:46.715Z</time></trkpt><trkpt lat="45.0655109" lon="7.873508"><ele>364.0</ele><time>2026-04-03T16:11:47.706Z</time></trkpt><trkpt lat="45.0656112" lon="7.8734441"><ele>364.0</ele><time>2026-04-03T16:11:48.718Z</time></trkpt><trkpt lat="45.0657069" lon="7.8733664"><ele>364.0</ele><time>2026-04-03T16:11:49.71Z</time></trkpt><trkpt lat="45.0657686" lon="7.8732866"><ele>364.0</ele><time>2026-04-03T16:11:50.71Z</time></trkpt><trkpt lat="45.0658107" lon="7.8731927"><ele>364.0</ele><time>2026-04-03T16:11:51.713Z</time></trkpt><trkpt lat="45.0657386" lon="7.8730452"><ele>368.25</ele><time>2026-04-03T16:11:53.722Z</time></trkpt><trkpt lat="45.0656381" lon="7.8729599"><ele>372.5</ele><time>2026-04-03T16:11:54.711Z</time></trkpt><trkpt lat="45.0655241" lon="7.872963"><ele>376.75</ele><time>2026-04-03T16:11:55.71Z</time></trkpt><trkpt lat="45.0654111" lon="7.8730435"><ele>381.0</ele><time>2026-04-03T16:11:56.711Z</time></trkpt><trkpt lat="45.0652998" lon="7.8731941"><ele>381.0</ele><time>2026-04-03T16:11:57.715Z</time></trkpt><trkpt lat="45.0652004" lon="7.8733434"><ele>381.0</ele><time>2026-04-03T16:11:58.716Z</time></trkpt><trkpt lat="45.065089" lon="7.8734752"><ele>381.0</ele><time>2026-04-03T16:11:59.712Z</time></trkpt><trkpt lat="45.0649708" lon="7.8735678"><ele>381.0</ele><time>2026-04-03T16:12:00.708Z</time></trkpt><trkpt lat="45.0648394" lon="7.8736546"><ele>380.75</ele><time>2026-04-03T16:12:01.714Z</time></trkpt><trkpt lat="45.0647072" lon="7.8737199"><ele>380.5</ele><time>2026-04-03T16:12:02.719Z</time></trkpt><trkpt lat="45.0645744" lon="7.8737572"><ele>380.25</ele><time>2026-04-03T16:12:03.714Z</time></trkpt><trkpt lat="45.064436" lon="7.8737652"><ele>380.0</ele><time>2026-04-03T16:12:04.706Z</time></trkpt><trkpt lat="45.0643141" lon="7.8737333"><ele>380.0</ele><time>2026-04-03T16:12:05.707Z</time></trkpt><trkpt lat="45.064194" lon="7.8736532"><ele>380.0</ele><time>2026-04-03T16:12:06.714Z</time></trkpt><trkpt lat="45.0640706" lon="7.8735668"><ele>380.0</ele><time>2026-04-03T16:12:07.713Z</time></trkpt><trkpt lat="45.0639652" lon="7.8735039"><ele>380.0</ele><time>2026-04-03T16:12:08.716Z</time></trkpt><trkpt lat="45.0638704" lon="7.873482"><ele>382.0</ele><time>2026-04-03T16:12:09.716Z</time></trkpt><trkpt lat="45.0637829" lon="7.8734904"><ele>384.0</ele><time>2026-04-03T16:12:10.712Z</time></trkpt><trkpt lat="45.0636963" lon="7.8735055"><ele>386.0</ele><time>2026-04-03T16:12:11.71Z</time></trkpt><trkpt lat="45.063605" lon="7.873517"><ele>388.0</ele><time>2026-04-03T16:12:13.712Z</time></trkpt><trkpt lat="45.0636593" lon="7.873451"><ele>389.99999999999994</ele><time>2026-04-03T16:12:18.715Z</time></trkpt><trkpt lat="45.0637631" lon="7.8734704"><ele>392.0</ele><time>2026-04-03T16:12:20.713Z</time></trkpt><trkpt lat="45.0638302" lon="7.8734727"><ele>392.0</ele><time>2026-04-03T16:12:21.711Z</time></trkpt><trkpt lat="45.0639062" lon="7.8734735"><ele>392.0</ele><time>2026-04-03T16:12:22.713Z</time></trkpt><trkpt lat="45.0640027" lon="7.8734787"><ele>392.0</ele><time>2026-04-03T16:12:23.715Z</time></trkpt><trkpt lat="45.0641109" lon="7.8734869"><ele>392.0</ele><time>2026-04-03T16:12:24.712Z</time></trkpt><trkpt lat="45.0642132" lon="7.8734962"><ele>392.0</ele><time>2026-04-03T16:12:25.714Z</time></trkpt><trkpt lat="45.0643079" lon="7.8735084"><ele>391.0</ele><time>2026-04-03T16:12:26.715Z</time></trkpt><trkpt lat="45.0643976" lon="7.8735279"><ele>390.0</ele><time>2026-04-03T16:12:27.714Z</time></trkpt><trkpt lat="45.0644768" lon="7.8735285"><ele>389.0</ele><time>2026-04-03T16:12:28.708Z</time></trkpt><trkpt lat="45.0645587" lon="7.8735164"><ele>388.0</ele><time>2026-04-03T16:12:29.716Z</time></trkpt><trkpt lat="45.0646454" lon="7.8734739"><ele>387.0</ele><time>2026-04-03T16:12:30.717Z</time></trkpt><trkpt lat="45.0647394" lon="7.8734058"><ele>387.0</ele><time>2026-04-03T16:12:31.717Z</time></trkpt><trkpt lat="45.0648135" lon="7.8733222"><ele>387.0</ele><time>2026-04-03T16:12:32.704Z</time></trkpt><trkpt lat="45.064889" lon="7.8732348"><ele>387.0</ele><time>2026-04-03T16:12:33.709Z</time></trkpt><trkpt lat="45.0649612" lon="7.8731354"><ele>387.0</ele><time>2026-04-03T16:12:34.714Z</time></trkpt><trkpt lat="45.0650301" lon="7.8730145"><ele>387.0</ele><time>2026-04-03T16:12:35.709Z</time></trkpt><trkpt lat="45.0650892" lon="7.8728708"><ele>385.5</ele><time>2026-04-03T16:12:36.719Z</time></trkpt><trkpt lat="45.0651492" lon="7.8727029"><ele>384.0</ele><time>2026-04-03T16:12:37.714Z</time></trkpt><trkpt lat="45.0652142" lon="7.8725444"><ele>382.5</ele><time>2026-04-03T16:12:38.717Z</time></trkpt><trkpt lat="45.0652851" lon="7.8723757"><ele>381.0</ele><time>2026-04-03T16:12:39.721Z</time></trkpt><trkpt lat="45.0653562" lon="7.8722073"><ele>384.0</ele><time>2026-04-03T16:12:40.716Z</time></trkpt><trkpt lat="45.0654221" lon="7.8720291"><ele>387.0</ele><time>2026-04-03T16:12:41.721Z</time></trkpt><trkpt lat="45.0654878" lon="7.8718576"><ele>390.0</ele><time>2026-04-03T16:12:42.714Z</time></trkpt><trkpt lat="45.0655509" lon="7.8716935"><ele>393.0</ele><time>2026-04-03T16:12:43.706Z</time></trkpt><trkpt lat="45.0656131" lon="7.8715359"><ele>394.5</ele><time>2026-04-03T16:12:44.711Z</time></trkpt><trkpt lat="45.065686" lon="7.8713648"><ele>396.0</ele><time>2026-04-03T16:12:45.714Z</time></trkpt><trkpt lat="45.0657616" lon="7.8712151"><ele>397.5</ele><time>2026-04-03T16:12:46.709Z</time></trkpt><trkpt lat="45.065837" lon="7.8710927"><ele>399.0</ele><time>2026-04-03T16:12:47.706Z</time></trkpt><trkpt lat="45.0659227" lon="7.8709868"><ele>398.75</ele><time>2026-04-03T16:12:48.706Z</time></trkpt><trkpt lat="45.0660115" lon="7.8708962"><ele>398.5</ele><time>2026-04-03T16:12:49.714Z</time></trkpt><trkpt lat="45.066128" lon="7.8708069"><ele>398.25</ele><time>2026-04-03T16:12:50.71Z</time></trkpt><trkpt lat="45.066223" lon="7.8707336"><ele>398.0</ele><time>2026-04-03T16:12:51.742Z</time></trkpt><trkpt lat="45.0663158" lon="7.870666"><ele>398.0</ele><time>2026-04-03T16:12:52.715Z</time></trkpt><trkpt lat="45.0664053" lon="7.8705735"><ele>398.0</ele><time>2026-04-03T16:12:53.71Z</time></trkpt><trkpt lat="45.0664993" lon="7.8704533"><ele>398.0</ele><time>2026-04-03T16:12:54.714Z</time></trkpt><trkpt lat="45.0665843" lon="7.8703326"><ele>398.0</ele><time>2026-04-03T16:12:55.708Z</time></trkpt><trkpt lat="45.0666587" lon="7.8702028"><ele>398.2</ele><time>2026-04-03T16:12:56.717Z</time></trkpt><trkpt lat="45.0667314" lon="7.8700838"><ele>398.4</ele><time>2026-04-03T16:12:57.711Z</time></trkpt><trkpt lat="45.066802" lon="7.8699743"><ele>398.59999999999997</ele><time>2026-04-03T16:12:58.715Z</time></trkpt><trkpt lat="45.0668752" lon="7.869875"><ele>398.79999999999995</ele><time>2026-04-03T16:12:59.711Z</time></trkpt><trkpt lat="45.0669507" lon="7.8697963"><ele>399.0</ele><time>2026-04-03T16:13:00.716Z</time></trkpt><trkpt lat="45.0670266" lon="7.8697311"><ele>399.0</ele><time>2026-04-03T16:13:01.711Z</time></trkpt><trkpt lat="45.0670963" lon="7.8696819"><ele>399.0</ele><time>2026-04-03T16:13:02.71Z</time></trkpt><trkpt lat="45.0671654" lon="7.8696339"><ele>399.0</ele><time>2026-04-03T16:13:03.717Z</time></trkpt><trkpt lat="45.0672432" lon="7.869572"><ele>399.0</ele><time>2026-04-03T16:13:04.713Z</time></trkpt><trkpt lat="45.067305" lon="7.8694991"><ele>399.0</ele><time>2026-04-03T16:13:05.713Z</time></trkpt><trkpt lat="45.0673586" lon="7.8694053"><ele>399.0</ele><time>2026-04-03T16:13:06.713Z</time></trkpt><trkpt lat="45.0674012" lon="7.8693095"><ele>400.6</ele><time>2026-04-03T16:13:07.712Z</time></trkpt><trkpt lat="45.0674391" lon="7.8691545"><ele>402.2</ele><time>2026-04-03T16:13:09.709Z</time></trkpt><trkpt lat="45.067473" lon="7.8689645"><ele>403.8</ele><time>2026-04-03T16:13:11.705Z</time></trkpt><trkpt lat="45.0674885" lon="7.8688421"><ele>405.40000000000003</ele><time>2026-04-03T16:13:12.712Z</time></trkpt><trkpt lat="45.0675058" lon="7.8687257"><ele>407.0</ele><time>2026-04-03T16:13:13.708Z</time></trkpt><trkpt lat="45.0675176" lon="7.868611"><ele>403.8333333333333</ele><time>2026-04-03T16:13:14.72Z</time></trkpt><trkpt lat="45.06752" lon="7.8684939"><ele>400.66666666666663</ele><time>2026-04-03T16:13:15.711Z</time></trkpt><trkpt lat="45.067516" lon="7.8683676"><ele>397.5</ele><time>2026-04-03T16:13:16.705Z</time></trkpt><trkpt lat="45.0675091" lon="7.8682385"><ele>394.33333333333337</ele><time>2026-04-03T16:13:17.714Z</time></trkpt><trkpt lat="45.0675034" lon="7.868113"><ele>391.1666666666667</ele><time>2026-04-03T16:13:18.715Z</time></trkpt><trkpt lat="45.0675111" lon="7.8680178"><ele>388.0</ele><time>2026-04-03T16:13:19.712Z</time></trkpt><trkpt lat="45.0675617" lon="7.8678921"><ele>387.59999999999997</ele><time>2026-04-03T16:13:21.71Z</time></trkpt><trkpt lat="45.0676294" lon="7.8678291"><ele>387.2</ele><time>2026-04-03T16:13:22.713Z</time></trkpt><trkpt lat="45.0677008" lon="7.8677651"><ele>386.8</ele><time>2026-04-03T16:13:23.714Z</time></trkpt><trkpt lat="45.0677922" lon="7.8676889"><ele>386.4</ele><time>2026-04-03T16:13:24.711Z</time></trkpt><trkpt lat="45.0678901" lon="7.8676041"><ele>386.0</ele><time>2026-04-03T16:13:25.716Z</time></trkpt><trkpt lat="45.067995" lon="7.8675144"><ele>385.5</ele><time>2026-04-03T16:13:26.708Z</time></trkpt><trkpt lat="45.068103" lon="7.8674252"><ele>385.0</ele><time>2026-04-03T16:13:27.713Z</time></trkpt><trkpt lat="45.0681996" lon="7.8673493"><ele>384.5</ele><time>2026-04-03T16:13:28.716Z</time></trkpt><trkpt lat="45.068301" lon="7.8672683"><ele>384.0</ele><time>2026-04-03T16:13:29.718Z</time></trkpt><trkpt lat="45.0683902" lon="7.8671844"><ele>384.0</ele><time>2026-04-03T16:13:30.71Z</time></trkpt><trkpt lat="45.0684781" lon="7.8671003"><ele>384.0</ele><time>2026-04-03T16:13:31.714Z</time></trkpt><trkpt lat="45.0685706" lon="7.8670178"><ele>384.0</ele><time>2026-04-03T16:13:32.71Z</time></trkpt><trkpt lat="45.0686619" lon="7.8669293"><ele>384.0</ele><time>2026-04-03T16:13:33.713Z</time></trkpt><trkpt lat="45.0687476" lon="7.8668349"><ele>384.0</ele><time>2026-04-03T16:13:34.711Z</time></trkpt><trkpt lat="45.0688301" lon="7.8667371"><ele>385.0</ele><time>2026-04-03T16:13:35.716Z</time></trkpt><trkpt lat="45.0689033" lon="7.8666264"><ele>386.0</ele><time>2026-04-03T16:13:36.713Z</time></trkpt><trkpt lat="45.0689715" lon="7.8665202"><ele>387.0</ele><time>2026-04-03T16:13:37.705Z</time></trkpt><trkpt lat="45.0690376" lon="7.8664235"><ele>388.0</ele><time>2026-04-03T16:13:38.709Z</time></trkpt><trkpt lat="45.069103" lon="7.8663455"><ele>389.0</ele><time>2026-04-03T16:13:39.704Z</time></trkpt><trkpt lat="45.0691884" lon="7.8662663"><ele>390.25</ele><time>2026-04-03T16:13:40.71Z</time></trkpt><trkpt lat="45.0692952" lon="7.8661902"><ele>391.5</ele><time>2026-04-03T16:13:41.714Z</time></trkpt><trkpt lat="45.0694136" lon="7.8661104"><ele>392.75</ele><time>2026-04-03T16:13:42.712Z</time></trkpt><trkpt lat="45.0695332" lon="7.8660327"><ele>394.0</ele><time>2026-04-03T16:13:43.706Z</time></trkpt><trkpt lat="45.0696455" lon="7.8659627"><ele>393.79999999999995</ele><time>2026-04-03T16:13:44.707Z</time></trkpt><trkpt lat="45.0697589" lon="7.8659033"><ele>393.59999999999997</ele><time>2026-04-03T16:13:45.706Z</time></trkpt><trkpt lat="45.0698624" lon="7.8658623"><ele>393.4</ele><time>2026-04-03T16:13:46.708Z</time></trkpt><trkpt lat="45.0699502" lon="7.8658295"><ele>393.2</ele><time>2026-04-03T16:13:47.71Z</time></trkpt><trkpt lat="45.0700155" lon="7.8658014"><ele>393.0</ele><time>2026-04-03T16:13:48.708Z</time></trkpt><trkpt lat="45.0701332" lon="7.8657161"><ele>393.0</ele><time>2026-04-03T16:13:50.709Z</time></trkpt><trkpt lat="45.0701954" lon="7.8656385"><ele>393.0</ele><time>2026-04-03T16:13:51.709Z</time></trkpt><trkpt lat="45.070259" lon="7.8655248"><ele>393.0</ele><time>2026-04-03T16:13:52.711Z</time></trkpt><trkpt lat="45.0703194" lon="7.865396"><ele>393.0</ele><time>2026-04-03T16:13:53.721Z</time></trkpt><trkpt lat="45.0703819" lon="7.8652798"><ele>393.0</ele><time>2026-04-03T16:13:54.714Z</time></trkpt><trkpt lat="45.0704506" lon="7.8651851"><ele>393.0</ele><time>2026-04-03T16:13:55.738Z</time></trkpt><trkpt lat="45.0705338" lon="7.8651224"><ele>393.0</ele><time>2026-04-03T16:13:56.711Z</time></trkpt><trkpt lat="45.0706427" lon="7.8650513"><ele>393.0</ele><time>2026-04-03T16:13:57.71Z</time></trkpt><trkpt lat="45.0707534" lon="7.8649834"><ele>393.0</ele><time>2026-04-03T16:13:58.713Z</time></trkpt><trkpt lat="45.0708768" lon="7.8648976"><ele>393.75</ele><time>2026-04-03T16:13:59.718Z</time></trkpt><trkpt lat="45.0710025" lon="7.8648126"><ele>394.5</ele><time>2026-04-03T16:14:00.712Z</time></trkpt><trkpt lat="45.0711338" lon="7.8647339"><ele>395.25</ele><time>2026-04-03T16:14:01.715Z</time></trkpt><trkpt lat="45.0712665" lon="7.8646577"><ele>396.0</ele><time>2026-04-03T16:14:02.711Z</time></trkpt><trkpt lat="45.0713876" lon="7.8645877"><ele>396.0</ele><time>2026-04-03T16:14:03.708Z</time></trkpt><trkpt lat="45.0715148" lon="7.8645086"><ele>396.0</ele><time>2026-04-03T16:14:04.708Z</time></trkpt><trkpt lat="45.0716482" lon="7.8644178"><ele>396.0</ele><time>2026-04-03T16:14:05.71Z</time></trkpt><trkpt lat="45.0717755" lon="7.8643184"><ele>396.0</ele><time>2026-04-03T16:14:06.709Z</time></trkpt><trkpt lat="45.0718889" lon="7.8642161"><ele>395.4</ele><time>2026-04-03T16:14:07.712Z</time></trkpt><trkpt lat="45.0719879" lon="7.864119"><ele>394.8</ele><time>2026-04-03T16:14:08.708Z</time></trkpt><trkpt lat="45.0720715" lon="7.8640482"><ele>394.2</ele><time>2026-04-03T16:14:09.715Z</time></trkpt><trkpt lat="45.072142" lon="7.8639872"><ele>393.59999999999997</ele><time>2026-04-03T16:14:10.71Z</time></trkpt><trkpt lat="45.0722001" lon="7.8639174"><ele>393.0</ele><time>2026-04-03T16:14:11.717Z</time></trkpt><trkpt lat="45.0722598" lon="7.8638023"><ele>393.0</ele><time>2026-04-03T16:14:12.711Z</time></trkpt><trkpt lat="45.0723209" lon="7.8636714"><ele>393.0</ele><time>2026-04-03T16:14:13.709Z</time></trkpt><trkpt lat="45.0723876" lon="7.8635328"><ele>393.0</ele><time>2026-04-03T16:14:14.716Z</time></trkpt><trkpt lat="45.0724592" lon="7.8633863"><ele>393.0</ele><time>2026-04-03T16:14:15.705Z</time></trkpt><trkpt lat="45.0725408" lon="7.8632286"><ele>396.0</ele><time>2026-04-03T16:14:16.718Z</time></trkpt><trkpt lat="45.0726237" lon="7.863084"><ele>399.0</ele><time>2026-04-03T16:14:17.719Z</time></trkpt><trkpt lat="45.0727044" lon="7.8629508"><ele>402.0</ele><time>2026-04-03T16:14:18.705Z</time></trkpt><trkpt lat="45.0727952" lon="7.8628139"><ele>405.0</ele><time>2026-04-03T16:14:19.714Z</time></trkpt><trkpt lat="45.072885" lon="7.8626706"><ele>404.25</ele><time>2026-04-03T16:14:20.708Z</time></trkpt><trkpt lat="45.07298" lon="7.86251"><ele>403.5</ele><time>2026-04-03T16:14:21.709Z</time></trkpt><trkpt lat="45.0730619" lon="7.8623404"><ele>402.75</ele><time>2026-04-03T16:14:22.711Z</time></trkpt><trkpt lat="45.0731433" lon="7.8621598"><ele>402.0</ele><time>2026-04-03T16:14:23.713Z</time></trkpt><trkpt lat="45.073218" lon="7.8619781"><ele>402.20000000000005</ele><time>2026-04-03T16:14:24.709Z</time></trkpt><trkpt lat="45.0732741" lon="7.8618029"><ele>402.4</ele><time>2026-04-03T16:14:25.707Z</time></trkpt><trkpt lat="45.0733093" lon="7.8616435"><ele>402.6</ele><time>2026-04-03T16:14:26.716Z</time></trkpt><trkpt lat="45.0733332" lon="7.8615119"><ele>402.79999999999995</ele><time>2026-04-03T16:14:27.711Z</time></trkpt><trkpt lat="45.0733552" lon="7.8613899"><ele>403.0</ele><time>2026-04-03T16:14:28.722Z</time></trkpt><trkpt lat="45.0733661" lon="7.8612898"><ele>404.59999999999997</ele><time>2026-04-03T16:14:29.712Z</time></trkpt><trkpt lat="45.0733896" lon="7.8611344"><ele>406.2</ele><time>2026-04-03T16:14:31.711Z</time></trkpt><trkpt lat="45.073408" lon="7.8610478"><ele>407.8</ele><time>2026-04-03T16:14:32.714Z</time></trkpt><trkpt lat="45.0734379" lon="7.8609357"><ele>409.4</ele><time>2026-04-03T16:14:33.711Z</time></trkpt><trkpt lat="45.0734649" lon="7.8608231"><ele>411.0</ele><time>2026-04-03T16:14:34.707Z</time></trkpt><trkpt lat="45.0735032" lon="7.8606806"><ele>412.8</ele><time>2026-04-03T16:14:35.718Z</time></trkpt><trkpt lat="45.0735314" lon="7.8605636"><ele>414.6</ele><time>2026-04-03T16:14:36.717Z</time></trkpt><trkpt lat="45.0735882" lon="7.8604369"><ele>416.4</ele><time>2026-04-03T16:14:37.713Z</time></trkpt><trkpt lat="45.0736704" lon="7.8603168"><ele>418.2</ele><time>2026-04-03T16:14:38.719Z</time></trkpt><trkpt lat="45.0737574" lon="7.8601916"><ele>420.0</ele><time>2026-04-03T16:14:39.717Z</time></trkpt><trkpt lat="45.0738452" lon="7.8600722"><ele>420.25</ele><time>2026-04-03T16:14:40.714Z</time></trkpt><trkpt lat="45.0739209" lon="7.8599397"><ele>420.5</ele><time>2026-04-03T16:14:41.708Z</time></trkpt><trkpt lat="45.0739824" lon="7.8597884"><ele>420.75</ele><time>2026-04-03T16:14:42.711Z</time></trkpt><trkpt lat="45.0740504" lon="7.859645"><ele>421.0</ele><time>2026-04-03T16:14:43.719Z</time></trkpt><trkpt lat="45.0741316" lon="7.8594987"><ele>418.75</ele><time>2026-04-03T16:14:44.71Z</time></trkpt><trkpt lat="45.074221" lon="7.8593623"><ele>416.5</ele><time>2026-04-03T16:14:45.714Z</time></trkpt><trkpt lat="45.0743181" lon="7.8592391"><ele>414.25</ele><time>2026-04-03T16:14:46.716Z</time></trkpt><trkpt lat="45.0744089" lon="7.8591354"><ele>412.0</ele><time>2026-04-03T16:14:47.711Z</time></trkpt><trkpt lat="45.0744957" lon="7.8590315"><ele>412.0</ele><time>2026-04-03T16:14:48.737Z</time></trkpt><trkpt lat="45.0745746" lon="7.858941"><ele>412.0</ele><time>2026-04-03T16:14:49.727Z</time></trkpt><trkpt lat="45.0746502" lon="7.858878"><ele>412.0</ele><time>2026-04-03T16:14:50.716Z</time></trkpt><trkpt lat="45.0747436" lon="7.8588303"><ele>412.0</ele><time>2026-04-03T16:14:51.718Z</time></trkpt><trkpt lat="45.0748719" lon="7.8587939"><ele>412.0</ele><time>2026-04-03T16:14:52.714Z</time></trkpt><trkpt lat="45.0750032" lon="7.858751"><ele>408.6</ele><time>2026-04-03T16:14:53.712Z</time></trkpt><trkpt lat="45.0751242" lon="7.8587102"><ele>405.20000000000005</ele><time>2026-04-03T16:14:54.74Z</time></trkpt><trkpt lat="45.0752301" lon="7.8586756"><ele>401.8</ele><time>2026-04-03T16:14:55.717Z</time></trkpt><trkpt lat="45.0753256" lon="7.8586454"><ele>398.4</ele><time>2026-04-03T16:14:56.711Z</time></trkpt><trkpt lat="45.0754155" lon="7.8585989"><ele>395.0</ele><time>2026-04-03T16:14:57.708Z</time></trkpt><trkpt lat="45.0754956" lon="7.858533"><ele>395.25</ele><time>2026-04-03T16:14:58.712Z</time></trkpt><trkpt lat="45.0755976" lon="7.8584346"><ele>395.5</ele><time>2026-04-03T16:14:59.711Z</time></trkpt><trkpt lat="45.0757131" lon="7.8583007"><ele>395.75</ele><time>2026-04-03T16:15:00.71Z</time></trkpt><trkpt lat="45.0758224" lon="7.8581802"><ele>396.0</ele><time>2026-04-03T16:15:01.714Z</time></trkpt><trkpt lat="45.0759294" lon="7.8580694"><ele>396.0</ele><time>2026-04-03T16:15:02.717Z</time></trkpt><trkpt lat="45.0760195" lon="7.8579908"><ele>396.0</ele><time>2026-04-03T16:15:03.717Z</time></trkpt><trkpt lat="45.0761127" lon="7.8579388"><ele>396.0</ele><time>2026-04-03T16:15:04.713Z</time></trkpt><trkpt lat="45.0762096" lon="7.8579184"><ele>396.0</ele><time>2026-04-03T16:15:05.709Z</time></trkpt><trkpt lat="45.0763341" lon="7.8579148"><ele>396.0</ele><time>2026-04-03T16:15:06.717Z</time></trkpt><trkpt lat="45.0764674" lon="7.8579435"><ele>396.0</ele><time>2026-04-03T16:15:07.713Z</time></trkpt><trkpt lat="45.0765879" lon="7.8579754"><ele>396.0</ele><time>2026-04-03T16:15:08.71Z</time></trkpt><trkpt lat="45.0767007" lon="7.8580038"><ele>396.0</ele><time>2026-04-03T16:15:09.708Z</time></trkpt><trkpt lat="45.0767891" lon="7.8580318"><ele>396.0</ele><time>2026-04-03T16:15:10.711Z</time></trkpt><trkpt lat="45.0768659" lon="7.8580618"><ele>396.0</ele><time>2026-04-03T16:15:11.71Z</time></trkpt><trkpt lat="45.0769279" lon="7.8581072"><ele>395.0</ele><time>2026-04-03T16:15:12.713Z</time></trkpt><trkpt lat="45.0769912" lon="7.8581664"><ele>394.0</ele><time>2026-04-03T16:15:13.726Z</time></trkpt><trkpt lat="45.0770661" lon="7.8582279"><ele>393.0</ele><time>2026-04-03T16:15:14.711Z</time></trkpt><trkpt lat="45.0771315" lon="7.8582619"><ele>392.0</ele><time>2026-04-03T16:15:15.718Z</time></trkpt><trkpt lat="45.077218" lon="7.8582824"><ele>391.0</ele><time>2026-04-03T16:15:17.714Z</time></trkpt><trkpt lat="45.0772876" lon="7.8583218"><ele>390.0</ele><time>2026-04-03T16:15:19.721Z</time></trkpt><trkpt lat="45.0773446" lon="7.8583645"><ele>390.0</ele><time>2026-04-03T16:15:20.713Z</time></trkpt><trkpt lat="45.0774288" lon="7.8584185"><ele>390.0</ele><time>2026-04-03T16:15:21.706Z</time></trkpt><trkpt lat="45.0775419" lon="7.8584851"><ele>390.0</ele><time>2026-04-03T16:15:22.711Z</time></trkpt><trkpt lat="45.0776724" lon="7.8585633"><ele>390.0</ele><time>2026-04-03T16:15:23.718Z</time></trkpt><trkpt lat="45.0777913" lon="7.8586194"><ele>389.5</ele><time>2026-04-03T16:15:24.706Z</time></trkpt><trkpt lat="45.0779107" lon="7.858655"><ele>389.0</ele><time>2026-04-03T16:15:25.72Z</time></trkpt><trkpt lat="45.0780213" lon="7.8586679"><ele>388.5</ele><time>2026-04-03T16:15:26.714Z</time></trkpt><trkpt lat="45.0781302" lon="7.8586543"><ele>388.0</ele><time>2026-04-03T16:15:27.72Z</time></trkpt><trkpt lat="45.0782562" lon="7.8585989"><ele>387.5</ele><time>2026-04-03T16:15:28.711Z</time></trkpt><trkpt lat="45.0783844" lon="7.8585287"><ele>387.0</ele><time>2026-04-03T16:15:29.708Z</time></trkpt><trkpt lat="45.0784915" lon="7.8584169"><ele>386.5</ele><time>2026-04-03T16:15:30.715Z</time></trkpt><trkpt lat="45.0785869" lon="7.8583116"><ele>386.0</ele><time>2026-04-03T16:15:31.713Z</time></trkpt><trkpt lat="45.0786597" lon="7.8582566"><ele>386.0</ele><time>2026-04-03T16:15:32.713Z</time></trkpt><trkpt lat="45.078733" lon="7.858231"><ele>386.0</ele><time>2026-04-03T16:15:34.707Z</time></trkpt><trkpt lat="45.0788681" lon="7.8583426"><ele>386.0</ele><time>2026-04-03T16:15:36.725Z</time></trkpt><trkpt lat="45.0789816" lon="7.8584217"><ele>386.0</ele><time>2026-04-03T16:15:37.715Z</time></trkpt><trkpt lat="45.0791265" lon="7.8585034"><ele>384.5</ele><time>2026-04-03T16:15:38.715Z</time></trkpt><trkpt lat="45.0792646" lon="7.8585604"><ele>383.0</ele><time>2026-04-03T16:15:39.719Z</time></trkpt><trkpt lat="45.0793955" lon="7.8586142"><ele>381.5</ele><time>2026-04-03T16:15:40.714Z</time></trkpt><trkpt lat="45.0795404" lon="7.8586688"><ele>380.0</ele><time>2026-04-03T16:15:41.721Z</time></trkpt><trkpt lat="45.0796872" lon="7.8587275"><ele>380.0</ele><time>2026-04-03T16:15:42.726Z</time></trkpt><trkpt lat="45.0798322" lon="7.8587827"><ele>380.0</ele><time>2026-04-03T16:15:43.72Z</time></trkpt><trkpt lat="45.0799622" lon="7.8588424"><ele>380.0</ele><time>2026-04-03T16:15:44.722Z</time></trkpt><trkpt lat="45.0800891" lon="7.8589172"><ele>380.0</ele><time>2026-04-03T16:15:45.721Z</time></trkpt><trkpt lat="45.0802128" lon="7.8590181"><ele>381.0</ele><time>2026-04-03T16:15:46.721Z</time></trkpt><trkpt lat="45.0803362" lon="7.8591215"><ele>382.0</ele><time>2026-04-03T16:15:47.717Z</time></trkpt><trkpt lat="45.0804591" lon="7.8592296"><ele>383.0</ele><time>2026-04-03T16:15:48.719Z</time></trkpt><trkpt lat="45.0805683" lon="7.8593405"><ele>384.0</ele><time>2026-04-03T16:15:49.712Z</time></trkpt><trkpt lat="45.0806473" lon="7.8594568"><ele>384.0</ele><time>2026-04-03T16:15:50.723Z</time></trkpt><trkpt lat="45.0807138" lon="7.8595571"><ele>384.0</ele><time>2026-04-03T16:15:51.721Z</time></trkpt><trkpt lat="45.0807699" lon="7.8596579"><ele>384.0</ele><time>2026-04-03T16:15:52.722Z</time></trkpt><trkpt lat="45.0808186" lon="7.8597649"><ele>384.0</ele><time>2026-04-03T16:15:53.722Z</time></trkpt><trkpt lat="45.0808654" lon="7.8598964"><ele>384.0</ele><time>2026-04-03T16:15:54.712Z</time></trkpt><trkpt lat="45.0808963" lon="7.8600673"><ele>387.75</ele><time>2026-04-03T16:15:55.715Z</time></trkpt><trkpt lat="45.0809415" lon="7.8602578"><ele>391.5</ele><time>2026-04-03T16:15:56.718Z</time></trkpt><trkpt lat="45.0809936" lon="7.8604373"><ele>395.25</ele><time>2026-04-03T16:15:57.726Z</time></trkpt><trkpt lat="45.0810587" lon="7.8606196"><ele>399.0</ele><time>2026-04-03T16:15:58.714Z</time></trkpt><trkpt lat="45.0811302" lon="7.8607784"><ele>399.0</ele><time>2026-04-03T16:15:59.716Z</time></trkpt><trkpt lat="45.0812025" lon="7.8609115"><ele>399.0</ele><time>2026-04-03T16:16:00.724Z</time></trkpt><trkpt lat="45.0812603" lon="7.8610253"><ele>399.0</ele><time>2026-04-03T16:16:01.719Z</time></trkpt><trkpt lat="45.0813048" lon="7.8611438"><ele>399.0</ele><time>2026-04-03T16:16:02.719Z</time></trkpt><trkpt lat="45.0813391" lon="7.861285"><ele>399.0</ele><time>2026-04-03T16:16:03.719Z</time></trkpt><trkpt lat="45.0813627" lon="7.8614514"><ele>397.5</ele><time>2026-04-03T16:16:04.718Z</time></trkpt><trkpt lat="45.0813802" lon="7.8616299"><ele>396.0</ele><time>2026-04-03T16:16:05.721Z</time></trkpt><trkpt lat="45.0813836" lon="7.8618133"><ele>394.5</ele><time>2026-04-03T16:16:06.72Z</time></trkpt><trkpt lat="45.0813709" lon="7.8620078"><ele>393.0</ele><time>2026-04-03T16:16:07.723Z</time></trkpt><trkpt lat="45.0813444" lon="7.8622335"><ele>393.0</ele><time>2026-04-03T16:16:08.728Z</time></trkpt><trkpt lat="45.0813204" lon="7.8624705"><ele>393.0</ele><time>2026-04-03T16:16:09.726Z</time></trkpt><trkpt lat="45.0813046" lon="7.8626879"><ele>393.0</ele><time>2026-04-03T16:16:10.722Z</time></trkpt><trkpt lat="45.0812988" lon="7.8628791"><ele>394.5</ele><time>2026-04-03T16:16:11.719Z</time></trkpt><trkpt lat="45.0813052" lon="7.863052"><ele>396.0</ele><time>2026-04-03T16:16:12.718Z</time></trkpt><trkpt lat="45.0813183" lon="7.8632067"><ele>397.5</ele><time>2026-04-03T16:16:13.723Z</time></trkpt><trkpt lat="45.0813409" lon="7.8633539"><ele>399.0</ele><time>2026-04-03T16:16:14.716Z</time></trkpt><trkpt lat="45.0813698" lon="7.8635197"><ele>402.25</ele><time>2026-04-03T16:16:15.73Z</time></trkpt><trkpt lat="45.0814073" lon="7.8636999"><ele>405.5</ele><time>2026-04-03T16:16:16.718Z</time></trkpt><trkpt lat="45.0814532" lon="7.8638997"><ele>408.75</ele><time>2026-04-03T16:16:17.721Z</time></trkpt><trkpt lat="45.081513" lon="7.8641112"><ele>412.0</ele><time>2026-04-03T16:16:18.718Z</time></trkpt><trkpt lat="45.0815707" lon="7.8643021"><ele>413.0</ele><time>2026-04-03T16:16:19.714Z</time></trkpt><trkpt lat="45.081631" lon="7.8644875"><ele>414.0</ele><time>2026-04-03T16:16:20.72Z</time></trkpt><trkpt lat="45.0816898" lon="7.8646681"><ele>415.0</ele><time>2026-04-03T16:16:21.719Z</time></trkpt><trkpt lat="45.0817533" lon="7.8648321"><ele>416.0</ele><time>2026-04-03T16:16:22.72Z</time></trkpt><trkpt lat="45.081817" lon="7.8649865"><ele>416.0</ele><time>2026-04-03T16:16:23.717Z</time></trkpt><trkpt lat="45.0818844" lon="7.8651329"><ele>416.0</ele><time>2026-04-03T16:16:24.722Z</time></trkpt><trkpt lat="45.0819587" lon="7.865292"><ele>416.0</ele><time>2026-04-03T16:16:25.722Z</time></trkpt><trkpt lat="45.0820172" lon="7.8654403"><ele>416.0</ele><time>2026-04-03T16:16:26.724Z</time></trkpt><trkpt lat="45.0820492" lon="7.8655938"><ele>416.0</ele><time>2026-04-03T16:16:27.734Z</time></trkpt><trkpt lat="45.082064" lon="7.8657488"><ele>416.0</ele><time>2026-04-03T16:16:28.717Z</time></trkpt><trkpt lat="45.0820729" lon="7.8659147"><ele>416.0</ele><time>2026-04-03T16:16:29.722Z</time></trkpt><trkpt lat="45.0820765" lon="7.866057"><ele>416.0</ele><time>2026-04-03T16:16:30.725Z</time></trkpt><trkpt lat="45.0820938" lon="7.866197"><ele>416.0</ele><time>2026-04-03T16:16:31.718Z</time></trkpt><trkpt lat="45.0821143" lon="7.8663015"><ele>413.20000000000005</ele><time>2026-04-03T16:16:32.724Z</time></trkpt><trkpt lat="45.0821616" lon="7.8663783"><ele>410.40000000000003</ele><time>2026-04-03T16:16:33.727Z</time></trkpt><trkpt lat="45.0822407" lon="7.8664357"><ele>407.6</ele><time>2026-04-03T16:16:34.717Z</time></trkpt><trkpt lat="45.0823441" lon="7.8664753"><ele>404.8</ele><time>2026-04-03T16:16:35.716Z</time></trkpt><trkpt lat="45.0824846" lon="7.8665008"><ele>402.0</ele><time>2026-04-03T16:16:36.722Z</time></trkpt><trkpt lat="45.0826245" lon="7.8665065"><ele>402.0</ele><time>2026-04-03T16:16:37.731Z</time></trkpt><trkpt lat="45.082758" lon="7.8664881"><ele>402.0</ele><time>2026-04-03T16:16:38.72Z</time></trkpt><trkpt lat="45.082896" lon="7.8664693"><ele>402.0</ele><time>2026-04-03T16:16:39.718Z</time></trkpt><trkpt lat="45.0830257" lon="7.8664677"><ele>402.0</ele><time>2026-04-03T16:16:40.717Z</time></trkpt><trkpt lat="45.0831522" lon="7.866483"><ele>400.25</ele><time>2026-04-03T16:16:41.721Z</time></trkpt><trkpt lat="45.0832669" lon="7.866518"><ele>398.5</ele><time>2026-04-03T16:16:42.719Z</time></trkpt><trkpt lat="45.0833663" lon="7.8665576"><ele>396.75</ele><time>2026-04-03T16:16:43.721Z</time></trkpt><trkpt lat="45.0834758" lon="7.86662"><ele>395.0</ele><time>2026-04-03T16:16:44.721Z</time></trkpt><trkpt lat="45.0835718" lon="7.8667136"><ele>397.25</ele><time>2026-04-03T16:16:45.721Z</time></trkpt><trkpt lat="45.0836758" lon="7.8668469"><ele>399.5</ele><time>2026-04-03T16:16:46.725Z</time></trkpt><trkpt lat="45.0837785" lon="7.8669966"><ele>401.75</ele><time>2026-04-03T16:16:47.713Z</time></trkpt><trkpt lat="45.0838655" lon="7.8671401"><ele>404.0</ele><time>2026-04-03T16:16:48.721Z</time></trkpt><trkpt lat="45.0839484" lon="7.8672864"><ele>404.0</ele><time>2026-04-03T16:16:49.719Z</time></trkpt><trkpt lat="45.0840109" lon="7.8674292"><ele>404.0</ele><time>2026-04-03T16:16:50.723Z</time></trkpt><trkpt lat="45.0840464" lon="7.8675611"><ele>404.0</ele><time>2026-04-03T16:16:51.724Z</time></trkpt><trkpt lat="45.0840594" lon="7.8677215"><ele>404.0</ele><time>2026-04-03T16:16:52.723Z</time></trkpt><trkpt lat="45.0840643" lon="7.867857"><ele>404.0</ele><time>2026-04-03T16:16:53.717Z</time></trkpt><trkpt lat="45.0840838" lon="7.8679587"><ele>399.75</ele><time>2026-04-03T16:16:54.718Z</time></trkpt><trkpt lat="45.0841933" lon="7.8680888"><ele>395.5</ele><time>2026-04-03T16:16:56.726Z</time></trkpt><trkpt lat="45.0843123" lon="7.8681572"><ele>391.25</ele><time>2026-04-03T16:16:57.721Z</time></trkpt><trkpt lat="45.0844668" lon="7.8682258"><ele>387.0</ele><time>2026-04-03T16:16:58.723Z</time></trkpt><trkpt lat="45.0846194" lon="7.8682881"><ele>387.0</ele><time>2026-04-03T16:16:59.722Z</time></trkpt><trkpt lat="45.0847706" lon="7.8683348"><ele>387.0</ele><time>2026-04-03T16:17:00.724Z</time></trkpt><trkpt lat="45.0848967" lon="7.868388"><ele>387.0</ele><time>2026-04-03T16:17:01.717Z</time></trkpt><trkpt lat="45.084994" lon="7.8684537"><ele>387.0</ele><time>2026-04-03T16:17:02.718Z</time></trkpt><trkpt lat="45.0850745" lon="7.868549"><ele>388.75</ele><time>2026-04-03T16:17:03.721Z</time></trkpt><trkpt lat="45.085134" lon="7.8686753"><ele>390.5</ele><time>2026-04-03T16:17:04.715Z</time></trkpt><trkpt lat="45.0851797" lon="7.8688596"><ele>392.25</ele><time>2026-04-03T16:17:05.721Z</time></trkpt><trkpt lat="45.0852355" lon="7.8690334"><ele>394.0</ele><time>2026-04-03T16:17:06.726Z</time></trkpt><trkpt lat="45.0853034" lon="7.8691756"><ele>392.6</ele><time>2026-04-03T16:17:07.719Z</time></trkpt><trkpt lat="45.0853698" lon="7.8692846"><ele>391.2</ele><time>2026-04-03T16:17:08.723Z</time></trkpt><trkpt lat="45.0854426" lon="7.8693582"><ele>389.8</ele><time>2026-04-03T16:17:09.722Z</time></trkpt><trkpt lat="45.0855181" lon="7.8693896"><ele>388.40000000000003</ele><time>2026-04-03T16:17:10.717Z</time></trkpt><trkpt lat="45.0856018" lon="7.8693829"><ele>387.0</ele><time>2026-04-03T16:17:11.727Z</time></trkpt><trkpt lat="45.0857239" lon="7.8693492"><ele>389.33333333333337</ele><time>2026-04-03T16:17:12.713Z</time></trkpt><trkpt lat="45.0858737" lon="7.8693036"><ele>391.6666666666667</ele><time>2026-04-03T16:17:13.713Z</time></trkpt><trkpt lat="45.0860227" lon="7.8692614"><ele>394.0</ele><time>2026-04-03T16:17:14.72Z</time></trkpt><trkpt lat="45.0861826" lon="7.8692033"><ele>399.6666666666667</ele><time>2026-04-03T16:17:15.721Z</time></trkpt><trkpt lat="45.0863459" lon="7.869122"><ele>405.33333333333337</ele><time>2026-04-03T16:17:16.716Z</time></trkpt><trkpt lat="45.0865013" lon="7.8690228"><ele>411.0</ele><time>2026-04-03T16:17:17.723Z</time></trkpt><trkpt lat="45.0866281" lon="7.8689401"><ele>411.4</ele><time>2026-04-03T16:17:18.733Z</time></trkpt><trkpt lat="45.0867418" lon="7.8688535"><ele>411.8</ele><time>2026-04-03T16:17:19.725Z</time></trkpt><trkpt lat="45.0868408" lon="7.8687636"><ele>412.2</ele><time>2026-04-03T16:17:20.717Z</time></trkpt><trkpt lat="45.0869241" lon="7.8686972"><ele>412.59999999999997</ele><time>2026-04-03T16:17:21.712Z</time></trkpt><trkpt lat="45.0870026" lon="7.8686585"><ele>413.0</ele><time>2026-04-03T16:17:22.718Z</time></trkpt><trkpt lat="45.0870926" lon="7.8686242"><ele>413.0</ele><time>2026-04-03T16:17:23.731Z</time></trkpt><trkpt lat="45.0871889" lon="7.8685942"><ele>413.0</ele><time>2026-04-03T16:17:24.715Z</time></trkpt><trkpt lat="45.0872976" lon="7.8685772"><ele>413.0</ele><time>2026-04-03T16:17:25.721Z</time></trkpt><trkpt lat="45.0874139" lon="7.8686196"><ele>413.0</ele><time>2026-04-03T16:17:26.727Z</time></trkpt><trkpt lat="45.0875212" lon="7.8687099"><ele>413.66666666666663</ele><time>2026-04-03T16:17:27.722Z</time></trkpt><trkpt lat="45.0876387" lon="7.8688513"><ele>414.33333333333337</ele><time>2026-04-03T16:17:28.725Z</time></trkpt><trkpt lat="45.0877459" lon="7.869027"><ele>415.0</ele><time>2026-04-03T16:17:29.723Z</time></trkpt><trkpt lat="45.0878607" lon="7.8691604"><ele>413.5</ele><time>2026-04-03T16:17:30.724Z</time></trkpt><trkpt lat="45.0879651" lon="7.8692769"><ele>412.0</ele><time>2026-04-03T16:17:31.72Z</time></trkpt><trkpt lat="45.0880657" lon="7.8693785"><ele>410.5</ele><time>2026-04-03T16:17:32.722Z</time></trkpt><trkpt lat="45.0881507" lon="7.8694603"><ele>409.0</ele><time>2026-04-03T16:17:33.719Z</time></trkpt><trkpt lat="45.0882328" lon="7.8695206"><ele>410.79999999999995</ele><time>2026-04-03T16:17:34.726Z</time></trkpt><trkpt lat="45.0883048" lon="7.8695594"><ele>412.59999999999997</ele><time>2026-04-03T16:17:35.716Z</time></trkpt><trkpt lat="45.088375" lon="7.8695791"><ele>414.4</ele><time>2026-04-03T16:17:36.72Z</time></trkpt><trkpt lat="45.0884509" lon="7.8695725"><ele>416.2</ele><time>2026-04-03T16:17:37.716Z</time></trkpt><trkpt lat="45.0885862" lon="7.8694639"><ele>418.0</ele><time>2026-04-03T16:17:38.724Z</time></trkpt><trkpt lat="45.0887367" lon="7.8693824"><ele>418.0</ele><time>2026-04-03T16:17:39.724Z</time></trkpt><trkpt lat="45.0888738" lon="7.8692999"><ele>418.0</ele><time>2026-04-03T16:17:40.721Z</time></trkpt><trkpt lat="45.0890135" lon="7.8692457"><ele>418.0</ele><time>2026-04-03T16:17:41.721Z</time></trkpt><trkpt lat="45.0891518" lon="7.8692131"><ele>418.0</ele><time>2026-04-03T16:17:42.722Z</time></trkpt><trkpt lat="45.089294" lon="7.8691988"><ele>419.79999999999995</ele><time>2026-04-03T16:17:43.724Z</time></trkpt><trkpt lat="45.089408" lon="7.8692323"><ele>421.6</ele><time>2026-04-03T16:17:44.728Z</time></trkpt><trkpt lat="45.0895062" lon="7.8692517"><ele>423.40000000000003</ele><time>2026-04-03T16:17:45.714Z</time></trkpt><trkpt lat="45.0895923" lon="7.8692643"><ele>425.20000000000005</ele><time>2026-04-03T16:17:46.721Z</time></trkpt><trkpt lat="45.0896818" lon="7.8692438"><ele>427.0</ele><time>2026-04-03T16:17:47.717Z</time></trkpt><trkpt lat="45.0897907" lon="7.8691949"><ele>427.0</ele><time>2026-04-03T16:17:48.714Z</time></trkpt><trkpt lat="45.0898984" lon="7.8691068"><ele>427.0</ele><time>2026-04-03T16:17:49.718Z</time></trkpt><trkpt lat="45.0900183" lon="7.869017"><ele>427.0</ele><time>2026-04-03T16:17:50.72Z</time></trkpt><trkpt lat="45.0901411" lon="7.868915"><ele>427.0</ele><time>2026-04-03T16:17:51.721Z</time></trkpt><trkpt lat="45.0902696" lon="7.8687939"><ele>426.33333333333337</ele><time>2026-04-03T16:17:52.727Z</time></trkpt><trkpt lat="45.0903948" lon="7.8686494"><ele>425.66666666666663</ele><time>2026-04-03T16:17:53.724Z</time></trkpt><trkpt lat="45.09052" lon="7.8685122"><ele>425.0</ele><time>2026-04-03T16:17:54.723Z</time></trkpt><trkpt lat="45.0906287" lon="7.8683939"><ele>426.8</ele><time>2026-04-03T16:17:55.722Z</time></trkpt><trkpt lat="45.090716" lon="7.8682913"><ele>428.6</ele><time>2026-04-03T16:17:56.721Z</time></trkpt><trkpt lat="45.0908058" lon="7.868205"><ele>430.4</ele><time>2026-04-03T16:17:57.722Z</time></trkpt><trkpt lat="45.0909046" lon="7.8681285"><ele>432.2</ele><time>2026-04-03T16:17:58.722Z</time></trkpt><trkpt lat="45.0909939" lon="7.8680858"><ele>434.0</ele><time>2026-04-03T16:17:59.721Z</time></trkpt><trkpt lat="45.0911267" lon="7.8681204"><ele>434.0</ele><time>2026-04-03T16:18:00.722Z</time></trkpt><trkpt lat="45.0912736" lon="7.8681574"><ele>434.0</ele><time>2026-04-03T16:18:01.726Z</time></trkpt><trkpt lat="45.0914016" lon="7.8681853"><ele>434.0</ele><time>2026-04-03T16:18:02.753Z</time></trkpt><trkpt lat="45.0915171" lon="7.868209"><ele>434.0</ele><time>2026-04-03T16:18:03.719Z</time></trkpt><trkpt lat="45.0916244" lon="7.8682259"><ele>433.25</ele><time>2026-04-03T16:18:04.721Z</time></trkpt><trkpt lat="45.0917342" lon="7.8682221"><ele>432.5</ele><time>2026-04-03T16:18:05.723Z</time></trkpt><trkpt lat="45.0918651" lon="7.8681907"><ele>431.75</ele><time>2026-04-03T16:18:06.717Z</time></trkpt><trkpt lat="45.0920015" lon="7.8681544"><ele>431.0</ele><time>2026-04-03T16:18:07.725Z</time></trkpt><trkpt lat="45.0921244" lon="7.8681204"><ele>431.0</ele><time>2026-04-03T16:18:08.72Z</time></trkpt><trkpt lat="45.0922386" lon="7.8680915"><ele>431.0</ele><time>2026-04-03T16:18:09.72Z</time></trkpt><trkpt lat="45.0923469" lon="7.8680733"><ele>431.0</ele><time>2026-04-03T16:18:10.724Z</time></trkpt><trkpt lat="45.0924625" lon="7.8680853"><ele>431.0</ele><time>2026-04-03T16:18:11.724Z</time></trkpt><trkpt lat="45.0925826" lon="7.8681086"><ele>428.0</ele><time>2026-04-03T16:18:12.718Z</time></trkpt><trkpt lat="45.0927251" lon="7.8681267"><ele>425.0</ele><time>2026-04-03T16:18:13.72Z</time></trkpt><trkpt lat="45.0928936" lon="7.8681324"><ele>422.0</ele><time>2026-04-03T16:18:14.73Z</time></trkpt><trkpt lat="45.0930634" lon="7.8681186"><ele>422.0</ele><time>2026-04-03T16:18:15.734Z</time></trkpt><trkpt lat="45.0932199" lon="7.8680893"><ele>422.0</ele><time>2026-04-03T16:18:16.722Z</time></trkpt><trkpt lat="45.0933659" lon="7.8680859"><ele>422.0</ele><time>2026-04-03T16:18:17.725Z</time></trkpt><trkpt lat="45.0935132" lon="7.8680964"><ele>420.66666666666663</ele><time>2026-04-03T16:18:18.719Z</time></trkpt><trkpt lat="45.0936877" lon="7.8681179"><ele>419.33333333333337</ele><time>2026-04-03T16:18:19.719Z</time></trkpt><trkpt lat="45.0938411" lon="7.8681707"><ele>418.0</ele><time>2026-04-03T16:18:20.715Z</time></trkpt><trkpt lat="45.0939691" lon="7.8683049"><ele>421.0</ele><time>2026-04-03T16:18:21.714Z</time></trkpt><trkpt lat="45.0940942" lon="7.8684689"><ele>424.0</ele><time>2026-04-03T16:18:22.717Z</time></trkpt><trkpt lat="45.0942082" lon="7.8686384"><ele>427.0</ele><time>2026-04-03T16:18:23.71Z</time></trkpt><trkpt lat="45.0943132" lon="7.8688113"><ele>427.0</ele><time>2026-04-03T16:18:24.723Z</time></trkpt><trkpt lat="45.0944041" lon="7.8690058"><ele>427.0</ele><time>2026-04-03T16:18:25.717Z</time></trkpt><trkpt lat="45.0945008" lon="7.8692034"><ele>427.0</ele><time>2026-04-03T16:18:26.719Z</time></trkpt><trkpt lat="45.0945868" lon="7.8693634"><ele>427.0</ele><time>2026-04-03T16:18:27.72Z</time></trkpt><trkpt lat="45.0946548" lon="7.8695081"><ele>427.0</ele><time>2026-04-03T16:18:28.717Z</time></trkpt><trkpt lat="45.0947057" lon="7.8696498"><ele>427.0</ele><time>2026-04-03T16:18:29.716Z</time></trkpt><trkpt lat="45.0947426" lon="7.8698066"><ele>427.0</ele><time>2026-04-03T16:18:30.721Z</time></trkpt><trkpt lat="45.0947601" lon="7.8699816"><ele>428.25</ele><time>2026-04-03T16:18:31.724Z</time></trkpt><trkpt lat="45.0947582" lon="7.8701603"><ele>429.5</ele><time>2026-04-03T16:18:32.721Z</time></trkpt><trkpt lat="45.0947225" lon="7.8703507"><ele>430.75</ele><time>2026-04-03T16:18:33.71Z</time></trkpt><trkpt lat="45.094671" lon="7.8705398"><ele>432.0</ele><time>2026-04-03T16:18:34.714Z</time></trkpt><trkpt lat="45.0946362" lon="7.870691"><ele>432.0</ele><time>2026-04-03T16:18:35.724Z</time></trkpt><trkpt lat="45.0946184" lon="7.8708094"><ele>432.0</ele><time>2026-04-03T16:18:36.715Z</time></trkpt><trkpt lat="45.0946026" lon="7.8709452"><ele>432.0</ele><time>2026-04-03T16:18:37.716Z</time></trkpt><trkpt lat="45.0945832" lon="7.8710802"><ele>432.0</ele><time>2026-04-03T16:18:38.716Z</time></trkpt><trkpt lat="45.0945665" lon="7.8712153"><ele>432.0</ele><time>2026-04-03T16:18:39.715Z</time></trkpt><trkpt lat="45.0945612" lon="7.8713077"><ele>432.0</ele><time>2026-04-03T16:18:40.717Z</time></trkpt><trkpt lat="45.0945715" lon="7.8714185"><ele>433.5</ele><time>2026-04-03T16:18:42.717Z</time></trkpt><trkpt lat="45.094674" lon="7.8714576"><ele>435.0</ele><time>2026-04-03T16:18:45.724Z</time></trkpt><trkpt lat="45.0947562" lon="7.8714367"><ele>436.5</ele><time>2026-04-03T16:18:46.722Z</time></trkpt><trkpt lat="45.0948662" lon="7.8713671"><ele>438.0</ele><time>2026-04-03T16:18:47.725Z</time></trkpt><trkpt lat="45.0950176" lon="7.8712563"><ele>438.0</ele><time>2026-04-03T16:18:48.719Z</time></trkpt><trkpt lat="45.0951452" lon="7.8711691"><ele>438.0</ele><time>2026-04-03T16:18:49.718Z</time></trkpt><trkpt lat="45.0952756" lon="7.8710741"><ele>438.0</ele><time>2026-04-03T16:18:50.717Z</time></trkpt><trkpt lat="45.0953874" lon="7.8709828"><ele>438.0</ele><time>2026-04-03T16:18:51.722Z</time></trkpt><trkpt lat="45.0954646" lon="7.8709078"><ele>438.0</ele><time>2026-04-03T16:18:52.722Z</time></trkpt><trkpt lat="45.0955273" lon="7.8708439"><ele>438.0</ele><time>2026-04-03T16:18:53.715Z</time></trkpt><trkpt lat="45.0956004" lon="7.8707747"><ele>438.0</ele><time>2026-04-03T16:18:55.719Z</time></trkpt><trkpt lat="45.0956419" lon="7.8708478"><ele>438.0</ele><time>2026-04-03T16:18:59.724Z</time></trkpt><trkpt lat="45.0956115" lon="7.8709618"><ele>438.0</ele><time>2026-04-03T16:19:01.711Z</time></trkpt><trkpt lat="45.0955509" lon="7.8710463"><ele>438.0</ele><time>2026-04-03T16:19:02.741Z</time></trkpt><trkpt lat="45.0954746" lon="7.8711566"><ele>438.0</ele><time>2026-04-03T16:19:03.725Z</time></trkpt><trkpt lat="45.0953735" lon="7.8713148"><ele>438.0</ele><time>2026-04-03T16:19:04.725Z</time></trkpt><trkpt lat="45.0953167" lon="7.8714783"><ele>438.0</ele><time>2026-04-03T16:19:05.717Z</time></trkpt><trkpt lat="45.095293" lon="7.8716244"><ele>438.0</ele><time>2026-04-03T16:19:06.725Z</time></trkpt><trkpt lat="45.0953078" lon="7.871784"><ele>433.75</ele><time>2026-04-03T16:19:07.724Z</time></trkpt><trkpt lat="45.0953508" lon="7.8719679"><ele>429.5</ele><time>2026-04-03T16:19:08.725Z</time></trkpt><trkpt lat="45.0953802" lon="7.8721602"><ele>425.25</ele><time>2026-04-03T16:19:09.725Z</time></trkpt><trkpt lat="45.095401" lon="7.8723617"><ele>421.0</ele><time>2026-04-03T16:19:10.724Z</time></trkpt><trkpt lat="45.0954177" lon="7.8725516"><ele>418.25</ele><time>2026-04-03T16:19:11.723Z</time></trkpt><trkpt lat="45.0954326" lon="7.8727486"><ele>415.5</ele><time>2026-04-03T16:19:12.719Z</time></trkpt><trkpt lat="45.095455" lon="7.8729474"><ele>412.75</ele><time>2026-04-03T16:19:13.723Z</time></trkpt><trkpt lat="45.0954822" lon="7.8731403"><ele>410.0</ele><time>2026-04-03T16:19:14.725Z</time></trkpt><trkpt lat="45.0955092" lon="7.8733321"><ele>408.0</ele><time>2026-04-03T16:19:15.719Z</time></trkpt><trkpt lat="45.095541" lon="7.8735217"><ele>406.0</ele><time>2026-04-03T16:19:16.718Z</time></trkpt><trkpt lat="45.0955685" lon="7.8737067"><ele>404.0</ele><time>2026-04-03T16:19:17.729Z</time></trkpt><trkpt lat="45.0955842" lon="7.8738716"><ele>402.0</ele><time>2026-04-03T16:19:18.719Z</time></trkpt><trkpt lat="45.0955856" lon="7.8740438"><ele>402.0</ele><time>2026-04-03T16:19:19.74Z</time></trkpt><trkpt lat="45.0955671" lon="7.8741904"><ele>402.0</ele><time>2026-04-03T16:19:20.73Z</time></trkpt><trkpt lat="45.0955263" lon="7.8743445"><ele>402.0</ele><time>2026-04-03T16:19:21.727Z</time></trkpt><trkpt lat="45.0954785" lon="7.8744985"><ele>402.0</ele><time>2026-04-03T16:19:22.728Z</time></trkpt><trkpt lat="45.0954465" lon="7.8746458"><ele>402.0</ele><time>2026-04-03T16:19:23.723Z</time></trkpt><trkpt lat="45.0954138" lon="7.8747944"><ele>401.8</ele><time>2026-04-03T16:19:24.725Z</time></trkpt><trkpt lat="45.0953745" lon="7.874946"><ele>401.6</ele><time>2026-04-03T16:19:25.721Z</time></trkpt><trkpt lat="45.0953309" lon="7.8750881"><ele>401.40000000000003</ele><time>2026-04-03T16:19:26.72Z</time></trkpt><trkpt lat="45.0952903" lon="7.8752242"><ele>401.20000000000005</ele><time>2026-04-03T16:19:27.724Z</time></trkpt><trkpt lat="45.0952625" lon="7.8753564"><ele>401.0</ele><time>2026-04-03T16:19:28.715Z</time></trkpt><trkpt lat="45.0952403" lon="7.8754715"><ele>400.99999999999994</ele><time>2026-04-03T16:19:29.721Z</time></trkpt><trkpt lat="45.0952208" lon="7.8755848"><ele>401.0</ele><time>2026-04-03T16:19:30.716Z</time></trkpt><trkpt lat="45.0952041" lon="7.8756874"><ele>401.0</ele><time>2026-04-03T16:19:31.72Z</time></trkpt><trkpt lat="45.0951879" lon="7.8757787"><ele>401.0</ele><time>2026-04-03T16:19:32.726Z</time></trkpt><trkpt lat="45.095167" lon="7.8758927"><ele>400.99999999999994</ele><time>2026-04-03T16:19:34.719Z</time></trkpt><trkpt lat="45.0951642" lon="7.876011"><ele>401.0</ele><time>2026-04-03T16:19:38.715Z</time></trkpt><trkpt lat="45.0951382" lon="7.8761058"><ele>400.99999999999994</ele><time>2026-04-03T16:19:41.715Z</time></trkpt><trkpt lat="45.0951031" lon="7.8761945"><ele>401.0</ele><time>2026-04-03T16:19:44.712Z</time></trkpt><trkpt lat="45.0951761" lon="7.876225"><ele>401.0</ele><time>2026-04-03T16:19:47.717Z</time></trkpt><trkpt lat="45.0951993" lon="7.8761365"><ele>401.0</ele><time>2026-04-03T16:19:49.718Z</time></trkpt><trkpt lat="45.0952079" lon="7.875987"><ele>400.99999999999994</ele><time>2026-04-03T16:19:51.72Z</time></trkpt><trkpt lat="45.0952148" lon="7.8758835"><ele>401.0</ele><time>2026-04-03T16:19:52.719Z</time></trkpt><trkpt lat="45.0952267" lon="7.8757671"><ele>401.0</ele><time>2026-04-03T16:19:53.719Z</time></trkpt><trkpt lat="45.0952398" lon="7.8756428"><ele>401.0</ele><time>2026-04-03T16:19:54.72Z</time></trkpt><trkpt lat="45.0952543" lon="7.8755137"><ele>401.0</ele><time>2026-04-03T16:19:55.72Z</time></trkpt><trkpt lat="45.0952883" lon="7.8753376"><ele>401.0</ele><time>2026-04-03T16:19:56.722Z</time></trkpt><trkpt lat="45.0953265" lon="7.8751574"><ele>401.0</ele><time>2026-04-03T16:19:57.723Z</time></trkpt><trkpt lat="45.0953634" lon="7.8750077"><ele>400.75</ele><time>2026-04-03T16:19:58.715Z</time></trkpt><trkpt lat="45.0954" lon="7.8748634"><ele>400.5</ele><time>2026-04-03T16:19:59.726Z</time></trkpt><trkpt lat="45.0954456" lon="7.8746812"><ele>400.25</ele><time>2026-04-03T16:20:00.715Z</time></trkpt><trkpt lat="45.0954836" lon="7.8745097"><ele>400.0</ele><time>2026-04-03T16:20:01.714Z</time></trkpt><trkpt lat="45.0955157" lon="7.8743638"><ele>400.4</ele><time>2026-04-03T16:20:02.729Z</time></trkpt><trkpt lat="45.0955468" lon="7.8742461"><ele>400.8</ele><time>2026-04-03T16:20:03.72Z</time></trkpt><trkpt lat="45.095573" lon="7.8741049"><ele>401.20000000000005</ele><time>2026-04-03T16:20:04.716Z</time></trkpt><trkpt lat="45.0955813" lon="7.8739693"><ele>401.6</ele><time>2026-04-03T16:20:05.719Z</time></trkpt><trkpt lat="45.0955676" lon="7.8738069"><ele>402.0</ele><time>2026-04-03T16:20:06.715Z</time></trkpt><trkpt lat="45.0955565" lon="7.8736246"><ele>402.0</ele><time>2026-04-03T16:20:07.718Z</time></trkpt><trkpt lat="45.0955432" lon="7.8734496"><ele>402.0</ele><time>2026-04-03T16:20:08.724Z</time></trkpt><trkpt lat="45.0955228" lon="7.8732831"><ele>402.0</ele><time>2026-04-03T16:20:09.719Z</time></trkpt><trkpt lat="45.0955207" lon="7.8731782"><ele>402.0</ele><time>2026-04-03T16:20:10.724Z</time></trkpt><trkpt lat="45.0955113" lon="7.8730039"><ele>402.0</ele><time>2026-04-03T16:20:11.731Z</time></trkpt><trkpt lat="45.0955061" lon="7.8728271"><ele>404.66666666666663</ele><time>2026-04-03T16:20:12.721Z</time></trkpt><trkpt lat="45.0955019" lon="7.8726237"><ele>407.3333333333333</ele><time>2026-04-03T16:20:13.728Z</time></trkpt><trkpt lat="45.0954978" lon="7.8723964"><ele>410.0</ele><time>2026-04-03T16:20:14.716Z</time></trkpt><trkpt lat="45.0954963" lon="7.8721663"><ele>412.75</ele><time>2026-04-03T16:20:15.722Z</time></trkpt><trkpt lat="45.0954847" lon="7.8719492"><ele>415.5</ele><time>2026-04-03T16:20:16.72Z</time></trkpt><trkpt lat="45.0954812" lon="7.8717525"><ele>418.25</ele><time>2026-04-03T16:20:17.715Z</time></trkpt><trkpt lat="45.0954884" lon="7.8715333"><ele>421.0</ele><time>2026-04-03T16:20:18.73Z</time></trkpt><trkpt lat="45.0955196" lon="7.8713657"><ele>425.25</ele><time>2026-04-03T16:20:19.717Z</time></trkpt><trkpt lat="45.0955736" lon="7.8712351"><ele>429.5</ele><time>2026-04-03T16:20:20.727Z</time></trkpt><trkpt lat="45.0956425" lon="7.871123"><ele>433.75</ele><time>2026-04-03T16:20:21.722Z</time></trkpt><trkpt lat="45.0957285" lon="7.8709974"><ele>438.0</ele><time>2026-04-03T16:20:22.72Z</time></trkpt><trkpt lat="45.0957612" lon="7.8708384"><ele>439.2</ele><time>2026-04-03T16:20:23.726Z</time></trkpt><trkpt lat="45.0957985" lon="7.8706893"><ele>440.4</ele><time>2026-04-03T16:20:24.721Z</time></trkpt><trkpt lat="45.0958292" lon="7.8705408"><ele>441.59999999999997</ele><time>2026-04-03T16:20:25.72Z</time></trkpt><trkpt lat="45.0958549" lon="7.8703969"><ele>442.79999999999995</ele><time>2026-04-03T16:20:26.726Z</time></trkpt><trkpt lat="45.0958704" lon="7.8702634"><ele>444.0</ele><time>2026-04-03T16:20:27.725Z</time></trkpt><trkpt lat="45.095884" lon="7.8701414"><ele>447.4</ele><time>2026-04-03T16:20:28.721Z</time></trkpt><trkpt lat="45.0959444" lon="7.8700237"><ele>450.79999999999995</ele><time>2026-04-03T16:20:29.727Z</time></trkpt><trkpt lat="45.0960199" lon="7.8699146"><ele>454.20000000000005</ele><time>2026-04-03T16:20:30.728Z</time></trkpt><trkpt lat="45.0960699" lon="7.8698226"><ele>457.6</ele><time>2026-04-03T16:20:31.723Z</time></trkpt><trkpt lat="45.0961259" lon="7.8697203"><ele>461.0</ele><time>2026-04-03T16:20:32.719Z</time></trkpt><trkpt lat="45.0961691" lon="7.8696057"><ele>461.0</ele><time>2026-04-03T16:20:33.725Z</time></trkpt><trkpt lat="45.096215" lon="7.8694696"><ele>461.0</ele><time>2026-04-03T16:20:34.723Z</time></trkpt><trkpt lat="45.0962265" lon="7.8693069"><ele>461.0</ele><time>2026-04-03T16:20:35.724Z</time></trkpt><trkpt lat="45.096217" lon="7.8691573"><ele>461.0</ele><time>2026-04-03T16:20:36.721Z</time></trkpt><trkpt lat="45.0962173" lon="7.869014"><ele>461.0</ele><time>2026-04-03T16:20:37.722Z</time></trkpt><trkpt lat="45.0962247" lon="7.8688729"><ele>461.0</ele><time>2026-04-03T16:20:38.72Z</time></trkpt><trkpt lat="45.0962352" lon="7.8687306"><ele>461.0</ele><time>2026-04-03T16:20:39.727Z</time></trkpt><trkpt lat="45.0962694" lon="7.8685882"><ele>461.0</ele><time>2026-04-03T16:20:40.722Z</time></trkpt><trkpt lat="45.0963182" lon="7.8684426"><ele>461.0</ele><time>2026-04-03T16:20:41.722Z</time></trkpt><trkpt lat="45.0963633" lon="7.8682891"><ele>461.0</ele><time>2026-04-03T16:20:42.717Z</time></trkpt><trkpt lat="45.0964036" lon="7.8681336"><ele>458.4</ele><time>2026-04-03T16:20:43.719Z</time></trkpt><trkpt lat="45.0964329" lon="7.8679819"><ele>455.8</ele><time>2026-04-03T16:20:44.716Z</time></trkpt><trkpt lat="45.0964531" lon="7.8678377"><ele>453.19999999999993</ele><time>2026-04-03T16:20:45.716Z</time></trkpt><trkpt lat="45.0964618" lon="7.8677077"><ele>450.59999999999997</ele><time>2026-04-03T16:20:46.727Z</time></trkpt><trkpt lat="45.0964765" lon="7.8675642"><ele>448.0</ele><time>2026-04-03T16:20:47.718Z</time></trkpt><trkpt lat="45.0965009" lon="7.8674365"><ele>447.4</ele><time>2026-04-03T16:20:48.721Z</time></trkpt><trkpt lat="45.0965325" lon="7.8673165"><ele>446.79999999999995</ele><time>2026-04-03T16:20:49.725Z</time></trkpt><trkpt lat="45.096601" lon="7.8672024"><ele>446.2</ele><time>2026-04-03T16:20:50.716Z</time></trkpt><trkpt lat="45.0966783" lon="7.8670967"><ele>445.6</ele><time>2026-04-03T16:20:51.724Z</time></trkpt><trkpt lat="45.0967331" lon="7.8669943"><ele>445.0</ele><time>2026-04-03T16:20:52.719Z</time></trkpt><trkpt lat="45.0967726" lon="7.8668939"><ele>447.4</ele><time>2026-04-03T16:20:53.718Z</time></trkpt><trkpt lat="45.0967963" lon="7.8667876"><ele>449.8</ele><time>2026-04-03T16:20:54.723Z</time></trkpt><trkpt lat="45.096804" lon="7.8666591"><ele>452.20000000000005</ele><time>2026-04-03T16:20:55.722Z</time></trkpt><trkpt lat="45.0967983" lon="7.8665215"><ele>454.6</ele><time>2026-04-03T16:20:56.722Z</time></trkpt><trkpt lat="45.0967869" lon="7.8663836"><ele>457.0</ele><time>2026-04-03T16:20:57.725Z</time></trkpt><trkpt lat="45.096773" lon="7.8662492"><ele>459.0</ele><time>2026-04-03T16:20:58.723Z</time></trkpt><trkpt lat="45.0967591" lon="7.8661092"><ele>461.00000000000006</ele><time>2026-04-03T16:20:59.73Z</time></trkpt><trkpt lat="45.0967409" lon="7.8659657"><ele>463.00000000000006</ele><time>2026-04-03T16:21:00.714Z</time></trkpt><trkpt lat="45.0967204" lon="7.8658205"><ele>465.0</ele><time>2026-04-03T16:21:01.736Z</time></trkpt><trkpt lat="45.0967003" lon="7.8656925"><ele>467.0</ele><time>2026-04-03T16:21:02.722Z</time></trkpt><trkpt lat="45.0966802" lon="7.8655857"><ele>467.99999999999994</ele><time>2026-04-03T16:21:03.728Z</time></trkpt><trkpt lat="45.0966586" lon="7.8654973"><ele>469.0</ele><time>2026-04-03T16:21:04.722Z</time></trkpt><trkpt lat="45.0966313" lon="7.8653949"><ele>470.0</ele><time>2026-04-03T16:21:05.72Z</time></trkpt><trkpt lat="45.096609" lon="7.8653014"><ele>471.0</ele><time>2026-04-03T16:21:06.716Z</time></trkpt><trkpt lat="45.0965893" lon="7.8651905"><ele>471.99999999999994</ele><time>2026-04-03T16:21:07.722Z</time></trkpt><trkpt lat="45.0965687" lon="7.8650696"><ele>473.0</ele><time>2026-04-03T16:21:08.719Z</time></trkpt><trkpt lat="45.0965546" lon="7.8649387"><ele>471.2</ele><time>2026-04-03T16:21:09.723Z</time></trkpt><trkpt lat="45.0965498" lon="7.8647952"><ele>469.4</ele><time>2026-04-03T16:21:10.725Z</time></trkpt><trkpt lat="45.0965623" lon="7.8646393"><ele>467.59999999999997</ele><time>2026-04-03T16:21:11.736Z</time></trkpt><trkpt lat="45.0965744" lon="7.8644968"><ele>465.79999999999995</ele><time>2026-04-03T16:21:12.717Z</time></trkpt><trkpt lat="45.0965941" lon="7.8643599"><ele>464.0</ele><time>2026-04-03T16:21:13.729Z</time></trkpt><trkpt lat="45.0966211" lon="7.8642376"><ele>463.0</ele><time>2026-04-03T16:21:14.713Z</time></trkpt><trkpt lat="45.0966577" lon="7.8641124"><ele>462.0</ele><time>2026-04-03T16:21:15.712Z</time></trkpt><trkpt lat="45.0967131" lon="7.8639678"><ele>461.0</ele><time>2026-04-03T16:21:16.722Z</time></trkpt><trkpt lat="45.0967982" lon="7.8638333"><ele>460.0</ele><time>2026-04-03T16:21:17.725Z</time></trkpt><trkpt lat="45.0969068" lon="7.8637262"><ele>460.0</ele><time>2026-04-03T16:21:18.718Z</time></trkpt><trkpt lat="45.0970154" lon="7.8636102"><ele>460.0</ele><time>2026-04-03T16:21:19.727Z</time></trkpt><trkpt lat="45.0971023" lon="7.8635114"><ele>460.0</ele><time>2026-04-03T16:21:20.722Z</time></trkpt><trkpt lat="45.0971844" lon="7.8634195"><ele>460.0</ele><time>2026-04-03T16:21:21.729Z</time></trkpt><trkpt lat="45.0972553" lon="7.8633431"><ele>460.0</ele><time>2026-04-03T16:21:22.73Z</time></trkpt><trkpt lat="45.0973256" lon="7.8632641"><ele>459.4</ele><time>2026-04-03T16:21:23.723Z</time></trkpt><trkpt lat="45.0973816" lon="7.8631742"><ele>458.8</ele><time>2026-04-03T16:21:24.726Z</time></trkpt><trkpt lat="45.0974343" lon="7.8630591"><ele>458.20000000000005</ele><time>2026-04-03T16:21:25.721Z</time></trkpt><trkpt lat="45.0974737" lon="7.8629129"><ele>457.6</ele><time>2026-04-03T16:21:26.726Z</time></trkpt><trkpt lat="45.0974966" lon="7.8627389"><ele>457.0</ele><time>2026-04-03T16:21:27.727Z</time></trkpt><trkpt lat="45.0975149" lon="7.8625619"><ele>455.0</ele><time>2026-04-03T16:21:28.726Z</time></trkpt><trkpt lat="45.0975256" lon="7.8623936"><ele>453.00000000000006</ele><time>2026-04-03T16:21:29.723Z</time></trkpt><trkpt lat="45.0975303" lon="7.8622278"><ele>451.00000000000006</ele><time>2026-04-03T16:21:30.724Z</time></trkpt><trkpt lat="45.0975362" lon="7.8620751"><ele>449.0</ele><time>2026-04-03T16:21:31.721Z</time></trkpt><trkpt lat="45.0975416" lon="7.8619352"><ele>447.0</ele><time>2026-04-03T16:21:32.716Z</time></trkpt><trkpt lat="45.097557" lon="7.8618071"><ele>446.0</ele><time>2026-04-03T16:21:33.721Z</time></trkpt><trkpt lat="45.0975802" lon="7.8616538"><ele>445.0</ele><time>2026-04-03T16:21:34.725Z</time></trkpt><trkpt lat="45.0976111" lon="7.8614988"><ele>444.0</ele><time>2026-04-03T16:21:35.718Z</time></trkpt><trkpt lat="45.0976639" lon="7.8613457"><ele>443.0</ele><time>2026-04-03T16:21:36.719Z</time></trkpt><trkpt lat="45.0977109" lon="7.8611978"><ele>443.0</ele><time>2026-04-03T16:21:37.728Z</time></trkpt><trkpt lat="45.0977517" lon="7.8610714"><ele>442.99999999999994</ele><time>2026-04-03T16:21:38.721Z</time></trkpt><trkpt lat="45.0977952" lon="7.8609521"><ele>442.99999999999994</ele><time>2026-04-03T16:21:39.719Z</time></trkpt><trkpt lat="45.0978526" lon="7.8608198"><ele>443.0</ele><time>2026-04-03T16:21:40.724Z</time></trkpt><trkpt lat="45.0979065" lon="7.8606849"><ele>443.0</ele><time>2026-04-03T16:21:41.722Z</time></trkpt><trkpt lat="45.0979574" lon="7.860527"><ele>443.5</ele><time>2026-04-03T16:21:42.718Z</time></trkpt><trkpt lat="45.0979903" lon="7.8603607"><ele>444.0</ele><time>2026-04-03T16:21:43.721Z</time></trkpt><trkpt lat="45.0980107" lon="7.8601649"><ele>444.5</ele><time>2026-04-03T16:21:44.725Z</time></trkpt><trkpt lat="45.0980216" lon="7.8599885"><ele>445.0</ele><time>2026-04-03T16:21:45.722Z</time></trkpt><trkpt lat="45.0980298" lon="7.8598309"><ele>445.0</ele><time>2026-04-03T16:21:46.725Z</time></trkpt><trkpt lat="45.0980336" lon="7.8596884"><ele>445.0</ele><time>2026-04-03T16:21:47.72Z</time></trkpt><trkpt lat="45.0980434" lon="7.8595499"><ele>445.0</ele><time>2026-04-03T16:21:48.723Z</time></trkpt><trkpt lat="45.0980542" lon="7.8593885"><ele>445.0</ele><time>2026-04-03T16:21:49.719Z</time></trkpt><trkpt lat="45.0980729" lon="7.8592235"><ele>445.0</ele><time>2026-04-03T16:21:50.718Z</time></trkpt><trkpt lat="45.0980938" lon="7.8590585"><ele>445.25</ele><time>2026-04-03T16:21:51.72Z</time></trkpt><trkpt lat="45.0981195" lon="7.8588867"><ele>445.5</ele><time>2026-04-03T16:21:52.717Z</time></trkpt><trkpt lat="45.098139" lon="7.858711"><ele>445.75</ele><time>2026-04-03T16:21:53.724Z</time></trkpt><trkpt lat="45.0981588" lon="7.858554"><ele>446.0</ele><time>2026-04-03T16:21:54.722Z</time></trkpt><trkpt lat="45.0981811" lon="7.8584068"><ele>446.66666666666663</ele><time>2026-04-03T16:21:55.72Z</time></trkpt><trkpt lat="45.0982099" lon="7.8582671"><ele>447.3333333333333</ele><time>2026-04-03T16:21:56.723Z</time></trkpt><trkpt lat="45.0982394" lon="7.8581403"><ele>448.0</ele><time>2026-04-03T16:21:57.72Z</time></trkpt><trkpt lat="45.0982625" lon="7.8580356"><ele>448.66666666666663</ele><time>2026-04-03T16:21:58.717Z</time></trkpt><trkpt lat="45.0982719" lon="7.8579429"><ele>449.3333333333333</ele><time>2026-04-03T16:21:59.716Z</time></trkpt><trkpt lat="45.098273" lon="7.857843"><ele>450.0</ele><time>2026-04-03T16:22:00.719Z</time></trkpt><trkpt lat="45.0982519" lon="7.8577215"><ele>450.0</ele><time>2026-04-03T16:22:01.719Z</time></trkpt><trkpt lat="45.0982013" lon="7.8575709"><ele>450.0</ele><time>2026-04-03T16:22:02.727Z</time></trkpt><trkpt lat="45.0981378" lon="7.8574308"><ele>450.0</ele><time>2026-04-03T16:22:03.715Z</time></trkpt><trkpt lat="45.0980772" lon="7.857278"><ele>450.0</ele><time>2026-04-03T16:22:04.728Z</time></trkpt><trkpt lat="45.0980243" lon="7.8571232"><ele>450.0</ele><time>2026-04-03T16:22:05.72Z</time></trkpt><trkpt lat="45.0979861" lon="7.856967"><ele>450.0</ele><time>2026-04-03T16:22:06.713Z</time></trkpt><trkpt lat="45.0979518" lon="7.8567951"><ele>450.0</ele><time>2026-04-03T16:22:07.729Z</time></trkpt><trkpt lat="45.0979177" lon="7.8566398"><ele>450.0</ele><time>2026-04-03T16:22:08.723Z</time></trkpt><trkpt lat="45.0978863" lon="7.8565034"><ele>450.6</ele><time>2026-04-03T16:22:09.726Z</time></trkpt><trkpt lat="45.0978623" lon="7.8563689"><ele>451.2</ele><time>2026-04-03T16:22:10.726Z</time></trkpt><trkpt lat="45.0978452" lon="7.8562266"><ele>451.79999999999995</ele><time>2026-04-03T16:22:11.723Z</time></trkpt><trkpt lat="45.0978335" lon="7.8560728"><ele>452.4</ele><time>2026-04-03T16:22:12.72Z</time></trkpt><trkpt lat="45.0978438" lon="7.8559093"><ele>453.0</ele><time>2026-04-03T16:22:13.725Z</time></trkpt><trkpt lat="45.0978558" lon="7.8557672"><ele>453.1666666666667</ele><time>2026-04-03T16:22:14.731Z</time></trkpt><trkpt lat="45.0978582" lon="7.8556336"><ele>453.33333333333337</ele><time>2026-04-03T16:22:15.733Z</time></trkpt><trkpt lat="45.0978508" lon="7.8555066"><ele>453.5</ele><time>2026-04-03T16:22:16.723Z</time></trkpt><trkpt lat="45.0978207" lon="7.8553872"><ele>453.6666666666667</ele><time>2026-04-03T16:22:17.719Z</time></trkpt><trkpt lat="45.0977762" lon="7.855288"><ele>453.83333333333337</ele><time>2026-04-03T16:22:18.722Z</time></trkpt><trkpt lat="45.0977105" lon="7.8551978"><ele>454.0</ele><time>2026-04-03T16:22:19.718Z</time></trkpt><trkpt lat="45.0976231" lon="7.8550961"><ele>452.6</ele><time>2026-04-03T16:22:20.726Z</time></trkpt><trkpt lat="45.0975435" lon="7.854986"><ele>451.2</ele><time>2026-04-03T16:22:21.729Z</time></trkpt><trkpt lat="45.0974769" lon="7.8548513"><ele>449.80000000000007</ele><time>2026-04-03T16:22:22.727Z</time></trkpt><trkpt lat="45.0974334" lon="7.8547231"><ele>448.40000000000003</ele><time>2026-04-03T16:22:23.724Z</time></trkpt><trkpt lat="45.0974231" lon="7.8545632"><ele>447.0</ele><time>2026-04-03T16:22:24.728Z</time></trkpt><trkpt lat="45.0974328" lon="7.85441"><ele>447.0</ele><time>2026-04-03T16:22:25.727Z</time></trkpt><trkpt lat="45.097443" lon="7.8542612"><ele>447.0</ele><time>2026-04-03T16:22:26.723Z</time></trkpt><trkpt lat="45.0974785" lon="7.8541105"><ele>447.0</ele><time>2026-04-03T16:22:27.723Z</time></trkpt><trkpt lat="45.0975241" lon="7.8539557"><ele>447.0</ele><time>2026-04-03T16:22:28.733Z</time></trkpt><trkpt lat="45.0975769" lon="7.8538104"><ele>447.0</ele><time>2026-04-03T16:22:29.727Z</time></trkpt><trkpt lat="45.0976541" lon="7.8536954"><ele>447.0</ele><time>2026-04-03T16:22:30.728Z</time></trkpt><trkpt lat="45.0977423" lon="7.8536048"><ele>447.0</ele><time>2026-04-03T16:22:31.725Z</time></trkpt><trkpt lat="45.0978117" lon="7.8535432"><ele>447.0</ele><time>2026-04-03T16:22:32.728Z</time></trkpt><trkpt lat="45.0978889" lon="7.8535452"><ele>447.0</ele><time>2026-04-03T16:22:33.729Z</time></trkpt><trkpt lat="45.0979507" lon="7.8535704"><ele>447.0</ele><time>2026-04-03T16:22:34.724Z</time></trkpt><trkpt lat="45.0980188" lon="7.8535785"><ele>447.0</ele><time>2026-04-03T16:22:35.729Z</time></trkpt><trkpt lat="45.0980725" lon="7.8535134"><ele>447.00000000000006</ele><time>2026-04-03T16:22:39.722Z</time></trkpt><trkpt lat="45.0980567" lon="7.8533779"><ele>447.00000000000006</ele><time>2026-04-03T16:22:41.727Z</time></trkpt><trkpt lat="45.0980181" lon="7.8532752"><ele>447.0</ele><time>2026-04-03T16:22:42.728Z</time></trkpt><trkpt lat="45.0979547" lon="7.8531363"><ele>447.0</ele><time>2026-04-03T16:22:43.73Z</time></trkpt><trkpt lat="45.0979071" lon="7.8530028"><ele>447.6</ele><time>2026-04-03T16:22:44.757Z</time></trkpt><trkpt lat="45.0978612" lon="7.8528555"><ele>448.20000000000005</ele><time>2026-04-03T16:22:45.734Z</time></trkpt><trkpt lat="45.0978389" lon="7.8527074"><ele>448.8</ele><time>2026-04-03T16:22:46.729Z</time></trkpt><trkpt lat="45.0978298" lon="7.8525571"><ele>449.4</ele><time>2026-04-03T16:22:47.731Z</time></trkpt><trkpt lat="45.0978057" lon="7.8524245"><ele>450.0</ele><time>2026-04-03T16:22:48.728Z</time></trkpt><trkpt lat="45.0977803" lon="7.8523329"><ele>447.0</ele><time>2026-04-03T16:22:49.732Z</time></trkpt><trkpt lat="45.0977677" lon="7.8521664"><ele>444.0</ele><time>2026-04-03T16:22:51.729Z</time></trkpt><trkpt lat="45.097829" lon="7.8520276"><ele>441.0</ele><time>2026-04-03T16:22:53.731Z</time></trkpt><trkpt lat="45.0979208" lon="7.8519766"><ele>438.0</ele><time>2026-04-03T16:22:54.73Z</time></trkpt><trkpt lat="45.098058" lon="7.8519059"><ele>438.0</ele><time>2026-04-03T16:22:55.728Z</time></trkpt><trkpt lat="45.0981977" lon="7.8518464"><ele>437.99999999999994</ele><time>2026-04-03T16:22:56.724Z</time></trkpt><trkpt lat="45.0982851" lon="7.8518035"><ele>437.99999999999994</ele><time>2026-04-03T16:22:57.73Z</time></trkpt><trkpt lat="45.0983632" lon="7.8518133"><ele>438.0</ele><time>2026-04-03T16:22:58.731Z</time></trkpt><trkpt lat="45.0984129" lon="7.851909"><ele>438.0</ele><time>2026-04-03T16:22:59.723Z</time></trkpt><trkpt lat="45.0984309" lon="7.8520369"><ele>434.75</ele><time>2026-04-03T16:23:00.726Z</time></trkpt><trkpt lat="45.0984153" lon="7.8522019"><ele>431.5</ele><time>2026-04-03T16:23:01.725Z</time></trkpt><trkpt lat="45.098397" lon="7.8524139"><ele>428.25</ele><time>2026-04-03T16:23:02.736Z</time></trkpt><trkpt lat="45.0983858" lon="7.8525707"><ele>425.0</ele><time>2026-04-03T16:23:03.727Z</time></trkpt><trkpt lat="45.0983884" lon="7.8526956"><ele>425.0</ele><time>2026-04-03T16:23:04.73Z</time></trkpt><trkpt lat="45.0984285" lon="7.8527991"><ele>425.0</ele><time>2026-04-03T16:23:05.727Z</time></trkpt><trkpt lat="45.0985113" lon="7.852899"><ele>425.0</ele><time>2026-04-03T16:23:06.725Z</time></trkpt><trkpt lat="45.0986049" lon="7.8529748"><ele>425.0</ele><time>2026-04-03T16:23:07.725Z</time></trkpt><trkpt lat="45.0986849" lon="7.8530632"><ele>425.0</ele><time>2026-04-03T16:23:08.734Z</time></trkpt><trkpt lat="45.0987514" lon="7.8531763"><ele>425.0</ele><time>2026-04-03T16:23:09.725Z</time></trkpt><trkpt lat="45.098795" lon="7.8533227"><ele>425.0</ele><time>2026-04-03T16:23:10.735Z</time></trkpt><trkpt lat="45.0988145" lon="7.8534855"><ele>425.0</ele><time>2026-04-03T16:23:11.736Z</time></trkpt><trkpt lat="45.0988397" lon="7.8536021"><ele>425.0</ele><time>2026-04-03T16:23:12.733Z</time></trkpt><trkpt lat="45.0989384" lon="7.8536485"><ele>425.0</ele><time>2026-04-03T16:23:14.725Z</time></trkpt><trkpt lat="45.0990451" lon="7.8536149"><ele>422.25</ele><time>2026-04-03T16:23:15.729Z</time></trkpt><trkpt lat="45.0991422" lon="7.8535248"><ele>419.5</ele><time>2026-04-03T16:23:16.729Z</time></trkpt><trkpt lat="45.0992294" lon="7.853396"><ele>416.75</ele><time>2026-04-03T16:23:17.727Z</time></trkpt><trkpt lat="45.0993264" lon="7.8532298"><ele>414.0</ele><time>2026-04-03T16:23:18.73Z</time></trkpt><trkpt lat="45.0994092" lon="7.8530333"><ele>410.66666666666663</ele><time>2026-04-03T16:23:19.73Z</time></trkpt><trkpt lat="45.0994948" lon="7.8528036"><ele>407.3333333333333</ele><time>2026-04-03T16:23:20.726Z</time></trkpt><trkpt lat="45.0995591" lon="7.8525708"><ele>404.0</ele><time>2026-04-03T16:23:21.743Z</time></trkpt><trkpt lat="45.0996052" lon="7.8523462"><ele>400.66666666666663</ele><time>2026-04-03T16:23:22.732Z</time></trkpt><trkpt lat="45.0996456" lon="7.852119"><ele>397.33333333333337</ele><time>2026-04-03T16:23:23.721Z</time></trkpt><trkpt lat="45.0997" lon="7.8519001"><ele>394.0</ele><time>2026-04-03T16:23:24.727Z</time></trkpt><trkpt lat="45.0997601" lon="7.8516923"><ele>392.33333333333337</ele><time>2026-04-03T16:23:25.724Z</time></trkpt><trkpt lat="45.0998055" lon="7.8514871"><ele>390.66666666666663</ele><time>2026-04-03T16:23:26.727Z</time></trkpt><trkpt lat="45.099841" lon="7.8512724"><ele>389.0</ele><time>2026-04-03T16:23:27.725Z</time></trkpt><trkpt lat="45.0998681" lon="7.8510508"><ele>387.75</ele><time>2026-04-03T16:23:28.733Z</time></trkpt><trkpt lat="45.0998968" lon="7.8508381"><ele>386.5</ele><time>2026-04-03T16:23:29.729Z</time></trkpt><trkpt lat="45.0999386" lon="7.8506352"><ele>385.25</ele><time>2026-04-03T16:23:30.722Z</time></trkpt><trkpt lat="45.0999787" lon="7.8504431"><ele>384.0</ele><time>2026-04-03T16:23:31.734Z</time></trkpt><trkpt lat="45.1000017" lon="7.8502614"><ele>383.75</ele><time>2026-04-03T16:23:32.73Z</time></trkpt><trkpt lat="45.1000081" lon="7.850068"><ele>383.5</ele><time>2026-04-03T16:23:33.72Z</time></trkpt><trkpt lat="45.099992" lon="7.8498593"><ele>383.25</ele><time>2026-04-03T16:23:34.725Z</time></trkpt><trkpt lat="45.0999758" lon="7.8496423"><ele>383.0</ele><time>2026-04-03T16:23:35.732Z</time></trkpt><trkpt lat="45.0999634" lon="7.8494234"><ele>383.33333333333337</ele><time>2026-04-03T16:23:36.724Z</time></trkpt><trkpt lat="45.0999518" lon="7.8491921"><ele>383.6666666666667</ele><time>2026-04-03T16:23:37.735Z</time></trkpt><trkpt lat="45.0999426" lon="7.8489718"><ele>384.0</ele><time>2026-04-03T16:23:38.729Z</time></trkpt><trkpt lat="45.0999337" lon="7.848768"><ele>384.0</ele><time>2026-04-03T16:23:39.732Z</time></trkpt><trkpt lat="45.0999205" lon="7.848612"><ele>384.0</ele><time>2026-04-03T16:23:40.72Z</time></trkpt><trkpt lat="45.0999005" lon="7.8484312"><ele>384.0</ele><time>2026-04-03T16:23:41.736Z</time></trkpt><trkpt lat="45.0998851" lon="7.8482597"><ele>384.0</ele><time>2026-04-03T16:23:42.731Z</time></trkpt><trkpt lat="45.0998782" lon="7.8480689"><ele>387.66666666666663</ele><time>2026-04-03T16:23:43.729Z</time></trkpt><trkpt lat="45.0998808" lon="7.8478564"><ele>391.3333333333333</ele><time>2026-04-03T16:23:44.728Z</time></trkpt><trkpt lat="45.099905" lon="7.8476391"><ele>395.0</ele><time>2026-04-03T16:23:45.731Z</time></trkpt><trkpt lat="45.0999473" lon="7.8474423"><ele>395.0</ele><time>2026-04-03T16:23:46.728Z</time></trkpt><trkpt lat="45.1000107" lon="7.8472505"><ele>395.0</ele><time>2026-04-03T16:23:47.728Z</time></trkpt><trkpt lat="45.1000923" lon="7.8470821"><ele>395.0</ele><time>2026-04-03T16:23:48.727Z</time></trkpt><trkpt lat="45.1001586" lon="7.846931"><ele>395.0</ele><time>2026-04-03T16:23:49.723Z</time></trkpt><trkpt lat="45.1002183" lon="7.8467699"><ele>395.5</ele><time>2026-04-03T16:23:50.724Z</time></trkpt><trkpt lat="45.1002698" lon="7.8465893"><ele>396.0</ele><time>2026-04-03T16:23:51.726Z</time></trkpt><trkpt lat="45.1002942" lon="7.8463995"><ele>396.5</ele><time>2026-04-03T16:23:52.735Z</time></trkpt><trkpt lat="45.1002965" lon="7.8462218"><ele>397.0</ele><time>2026-04-03T16:23:53.725Z</time></trkpt><trkpt lat="45.1002958" lon="7.84604"><ele>395.75</ele><time>2026-04-03T16:23:54.721Z</time></trkpt><trkpt lat="45.1002873" lon="7.845867"><ele>394.5</ele><time>2026-04-03T16:23:55.73Z</time></trkpt><trkpt lat="45.1002661" lon="7.8456938"><ele>393.25</ele><time>2026-04-03T16:23:56.721Z</time></trkpt><trkpt lat="45.1002316" lon="7.8455262"><ele>392.0</ele><time>2026-04-03T16:23:57.724Z</time></trkpt><trkpt lat="45.1001952" lon="7.8453655"><ele>392.0</ele><time>2026-04-03T16:23:58.727Z</time></trkpt><trkpt lat="45.1001567" lon="7.8452114"><ele>392.0</ele><time>2026-04-03T16:23:59.723Z</time></trkpt><trkpt lat="45.1001164" lon="7.8450626"><ele>392.0</ele><time>2026-04-03T16:24:00.727Z</time></trkpt><trkpt lat="45.1000828" lon="7.8449415"><ele>392.0</ele><time>2026-04-03T16:24:01.726Z</time></trkpt><trkpt lat="45.100049" lon="7.8448114"><ele>392.0</ele><time>2026-04-03T16:24:03.732Z</time></trkpt><trkpt lat="45.1000133" lon="7.8447203"><ele>391.8</ele><time>2026-04-03T16:24:07.73Z</time></trkpt><trkpt lat="45.0999315" lon="7.8446635"><ele>391.6</ele><time>2026-04-03T16:24:10.732Z</time></trkpt><trkpt lat="45.0998183" lon="7.8446804"><ele>391.40000000000003</ele><time>2026-04-03T16:24:12.733Z</time></trkpt><trkpt lat="45.0997443" lon="7.8447377"><ele>391.20000000000005</ele><time>2026-04-03T16:24:13.724Z</time></trkpt><trkpt lat="45.0996336" lon="7.8448844"><ele>391.0</ele><time>2026-04-03T16:24:14.73Z</time></trkpt><trkpt lat="45.0994835" lon="7.8451632"><ele>389.5</ele><time>2026-04-03T16:24:15.734Z</time></trkpt><trkpt lat="45.0993735" lon="7.845308"><ele>388.0</ele><time>2026-04-03T16:24:16.728Z</time></trkpt><trkpt lat="45.0992637" lon="7.8454256"><ele>386.5</ele><time>2026-04-03T16:24:17.729Z</time></trkpt><trkpt lat="45.0991442" lon="7.8455307"><ele>385.0</ele><time>2026-04-03T16:24:18.731Z</time></trkpt><trkpt lat="45.0989937" lon="7.8456064"><ele>385.0</ele><time>2026-04-03T16:24:19.727Z</time></trkpt><trkpt lat="45.098855" lon="7.8456701"><ele>385.0</ele><time>2026-04-03T16:24:20.731Z</time></trkpt><trkpt lat="45.0987149" lon="7.8457429"><ele>385.0</ele><time>2026-04-03T16:24:21.724Z</time></trkpt><trkpt lat="45.0985801" lon="7.8458241"><ele>385.0</ele><time>2026-04-03T16:24:22.729Z</time></trkpt><trkpt lat="45.098461" lon="7.8459139"><ele>384.5</ele><time>2026-04-03T16:24:23.731Z</time></trkpt><trkpt lat="45.0983599" lon="7.846027"><ele>384.0</ele><time>2026-04-03T16:24:24.722Z</time></trkpt><trkpt lat="45.098258" lon="7.8461699"><ele>383.5</ele><time>2026-04-03T16:24:25.721Z</time></trkpt><trkpt lat="45.0981992" lon="7.8463643"><ele>383.0</ele><time>2026-04-03T16:24:26.727Z</time></trkpt><trkpt lat="45.09818" lon="7.8465689"><ele>383.0</ele><time>2026-04-03T16:24:27.725Z</time></trkpt><trkpt lat="45.0981684" lon="7.8467771"><ele>383.0</ele><time>2026-04-03T16:24:28.727Z</time></trkpt><trkpt lat="45.098138" lon="7.8469556"><ele>383.0</ele><time>2026-04-03T16:24:29.728Z</time></trkpt><trkpt lat="45.0980896" lon="7.8470977"><ele>383.0</ele><time>2026-04-03T16:24:30.727Z</time></trkpt><trkpt lat="45.098006" lon="7.8472106"><ele>379.25</ele><time>2026-04-03T16:24:31.73Z</time></trkpt><trkpt lat="45.0978961" lon="7.8472727"><ele>375.5</ele><time>2026-04-03T16:24:32.731Z</time></trkpt><trkpt lat="45.0977524" lon="7.8473268"><ele>371.75</ele><time>2026-04-03T16:24:33.736Z</time></trkpt><trkpt lat="45.0976047" lon="7.8473797"><ele>368.0</ele><time>2026-04-03T16:24:34.721Z</time></trkpt><trkpt lat="45.0974541" lon="7.8474261"><ele>365.6666666666667</ele><time>2026-04-03T16:24:35.727Z</time></trkpt><trkpt lat="45.0972683" lon="7.847411"><ele>363.3333333333333</ele><time>2026-04-03T16:24:36.727Z</time></trkpt><trkpt lat="45.0970265" lon="7.847279"><ele>361.0</ele><time>2026-04-03T16:24:37.734Z</time></trkpt><trkpt lat="45.0968519" lon="7.8472664"><ele>361.0</ele><time>2026-04-03T16:24:38.732Z</time></trkpt><trkpt lat="45.0966726" lon="7.8472538"><ele>361.0</ele><time>2026-04-03T16:24:39.725Z</time></trkpt><trkpt lat="45.0964887" lon="7.8472254"><ele>361.0</ele><time>2026-04-03T16:24:40.728Z</time></trkpt><trkpt lat="45.0962835" lon="7.8471774"><ele>358.66666666666663</ele><time>2026-04-03T16:24:41.73Z</time></trkpt><trkpt lat="45.096093" lon="7.8471028"><ele>356.3333333333333</ele><time>2026-04-03T16:24:42.729Z</time></trkpt><trkpt lat="45.0958946" lon="7.8470035"><ele>354.0</ele><time>2026-04-03T16:24:43.729Z</time></trkpt><trkpt lat="45.0957061" lon="7.8468946"><ele>353.0</ele><time>2026-04-03T16:24:44.731Z</time></trkpt><trkpt lat="45.0955336" lon="7.8467786"><ele>352.0</ele><time>2026-04-03T16:24:45.731Z</time></trkpt><trkpt lat="45.0953749" lon="7.8466586"><ele>351.0</ele><time>2026-04-03T16:24:46.758Z</time></trkpt><trkpt lat="45.095237" lon="7.846544"><ele>351.0</ele><time>2026-04-03T16:24:47.729Z</time></trkpt><trkpt lat="45.0950959" lon="7.8464456"><ele>351.0</ele><time>2026-04-03T16:24:48.726Z</time></trkpt><trkpt lat="45.0949544" lon="7.8463743"><ele>351.0</ele><time>2026-04-03T16:24:49.733Z</time></trkpt><trkpt lat="45.0948203" lon="7.8463342"><ele>351.0</ele><time>2026-04-03T16:24:50.733Z</time></trkpt><trkpt lat="45.0947162" lon="7.8463298"><ele>350.5</ele><time>2026-04-03T16:24:51.726Z</time></trkpt><trkpt lat="45.0945809" lon="7.8464155"><ele>350.0</ele><time>2026-04-03T16:24:52.722Z</time></trkpt><trkpt lat="45.0944511" lon="7.8464827"><ele>349.5</ele><time>2026-04-03T16:24:53.727Z</time></trkpt><trkpt lat="45.0943389" lon="7.8465006"><ele>349.0</ele><time>2026-04-03T16:24:54.729Z</time></trkpt><trkpt lat="45.0942238" lon="7.8465081"><ele>349.0</ele><time>2026-04-03T16:24:55.729Z</time></trkpt><trkpt lat="45.0941219" lon="7.8464565"><ele>349.0</ele><time>2026-04-03T16:24:56.73Z</time></trkpt><trkpt lat="45.0939907" lon="7.846351"><ele>349.0</ele><time>2026-04-03T16:24:57.733Z</time></trkpt><trkpt lat="45.0938387" lon="7.846257"><ele>349.0</ele><time>2026-04-03T16:24:58.735Z</time></trkpt><trkpt lat="45.093681" lon="7.8462015"><ele>347.3333333333333</ele><time>2026-04-03T16:24:59.735Z</time></trkpt><trkpt lat="45.0935025" lon="7.846161"><ele>345.6666666666667</ele><time>2026-04-03T16:25:00.727Z</time></trkpt><trkpt lat="45.0933418" lon="7.8461294"><ele>344.0</ele><time>2026-04-03T16:25:01.733Z</time></trkpt><trkpt lat="45.093196" lon="7.8460929"><ele>343.0</ele><time>2026-04-03T16:25:02.732Z</time></trkpt><trkpt lat="45.093066" lon="7.8460484"><ele>342.0</ele><time>2026-04-03T16:25:03.72Z</time></trkpt><trkpt lat="45.0929139" lon="7.8459754"><ele>341.0</ele><time>2026-04-03T16:25:04.736Z</time></trkpt><trkpt lat="45.0927463" lon="7.8458943"><ele>341.0</ele><time>2026-04-03T16:25:05.731Z</time></trkpt><trkpt lat="45.0925895" lon="7.8458177"><ele>341.0</ele><time>2026-04-03T16:25:06.726Z</time></trkpt><trkpt lat="45.0924293" lon="7.8457419"><ele>341.0</ele><time>2026-04-03T16:25:07.728Z</time></trkpt><trkpt lat="45.0922854" lon="7.8456745"><ele>341.33333333333337</ele><time>2026-04-03T16:25:08.729Z</time></trkpt><trkpt lat="45.0921419" lon="7.8456089"><ele>341.6666666666667</ele><time>2026-04-03T16:25:09.729Z</time></trkpt><trkpt lat="45.0920041" lon="7.8455492"><ele>342.0</ele><time>2026-04-03T16:25:10.73Z</time></trkpt><trkpt lat="45.0918526" lon="7.8454835"><ele>342.0</ele><time>2026-04-03T16:25:11.731Z</time></trkpt><trkpt lat="45.0917191" lon="7.845418"><ele>342.0</ele><time>2026-04-03T16:25:12.723Z</time></trkpt><trkpt lat="45.0915829" lon="7.8453522"><ele>342.0</ele><time>2026-04-03T16:25:13.734Z</time></trkpt><trkpt lat="45.0914514" lon="7.8452857"><ele>342.0</ele><time>2026-04-03T16:25:14.726Z</time></trkpt><trkpt lat="45.0913219" lon="7.8452109"><ele>339.0</ele><time>2026-04-03T16:25:15.726Z</time></trkpt><trkpt lat="45.091204" lon="7.8451119"><ele>336.0</ele><time>2026-04-03T16:25:16.728Z</time></trkpt><trkpt lat="45.0911019" lon="7.8449964"><ele>333.0</ele><time>2026-04-03T16:25:17.731Z</time></trkpt><trkpt lat="45.0910216" lon="7.8448526"><ele>330.0</ele><time>2026-04-03T16:25:18.73Z</time></trkpt><trkpt lat="45.090925" lon="7.8447289"><ele>330.0</ele><time>2026-04-03T16:25:19.728Z</time></trkpt><trkpt lat="45.0908254" lon="7.8446299"><ele>330.0</ele><time>2026-04-03T16:25:20.725Z</time></trkpt><trkpt lat="45.0907133" lon="7.8445476"><ele>330.0</ele><time>2026-04-03T16:25:21.727Z</time></trkpt><trkpt lat="45.0906079" lon="7.8444809"><ele>330.0</ele><time>2026-04-03T16:25:22.727Z</time></trkpt><trkpt lat="45.0904693" lon="7.8445075"><ele>329.0</ele><time>2026-04-03T16:25:23.735Z</time></trkpt><trkpt lat="45.0903036" lon="7.84461"><ele>328.0</ele><time>2026-04-03T16:25:24.722Z</time></trkpt><trkpt lat="45.0901284" lon="7.8446813"><ele>327.0</ele><time>2026-04-03T16:25:25.731Z</time></trkpt><trkpt lat="45.0899423" lon="7.8447588"><ele>328.0</ele><time>2026-04-03T16:25:26.732Z</time></trkpt><trkpt lat="45.0897564" lon="7.8448175"><ele>329.0</ele><time>2026-04-03T16:25:27.727Z</time></trkpt><trkpt lat="45.0895768" lon="7.84487"><ele>330.0</ele><time>2026-04-03T16:25:28.73Z</time></trkpt><trkpt lat="45.0894125" lon="7.8449232"><ele>330.0</ele><time>2026-04-03T16:25:29.735Z</time></trkpt><trkpt lat="45.0892634" lon="7.8449812"><ele>330.0</ele><time>2026-04-03T16:25:30.73Z</time></trkpt><trkpt lat="45.0891167" lon="7.8450277"><ele>330.0</ele><time>2026-04-03T16:25:31.73Z</time></trkpt><trkpt lat="45.0889726" lon="7.8450718"><ele>329.3333333333333</ele><time>2026-04-03T16:25:32.73Z</time></trkpt><trkpt lat="45.0888255" lon="7.8451181"><ele>328.66666666666663</ele><time>2026-04-03T16:25:33.729Z</time></trkpt><trkpt lat="45.0886793" lon="7.8451664"><ele>328.0</ele><time>2026-04-03T16:25:34.733Z</time></trkpt><trkpt lat="45.0885302" lon="7.8451948"><ele>328.0</ele><time>2026-04-03T16:25:35.721Z</time></trkpt><trkpt lat="45.0883719" lon="7.8452129"><ele>328.0</ele><time>2026-04-03T16:25:36.738Z</time></trkpt><trkpt lat="45.0882356" lon="7.8452132"><ele>328.0</ele><time>2026-04-03T16:25:37.732Z</time></trkpt><trkpt lat="45.0880819" lon="7.8451898"><ele>326.66666666666663</ele><time>2026-04-03T16:25:38.741Z</time></trkpt><trkpt lat="45.0879131" lon="7.8451162"><ele>325.3333333333333</ele><time>2026-04-03T16:25:39.73Z</time></trkpt><trkpt lat="45.0877346" lon="7.8450065"><ele>324.0</ele><time>2026-04-03T16:25:40.728Z</time></trkpt><trkpt lat="45.0875655" lon="7.8448799"><ele>321.6666666666667</ele><time>2026-04-03T16:25:41.729Z</time></trkpt><trkpt lat="45.0874034" lon="7.8447282"><ele>319.33333333333337</ele><time>2026-04-03T16:25:42.73Z</time></trkpt><trkpt lat="45.0872436" lon="7.8445779"><ele>317.0</ele><time>2026-04-03T16:25:43.725Z</time></trkpt><trkpt lat="45.0870794" lon="7.8444358"><ele>317.0</ele><time>2026-04-03T16:25:44.729Z</time></trkpt><trkpt lat="45.0869202" lon="7.8443115"><ele>317.0</ele><time>2026-04-03T16:25:45.732Z</time></trkpt><trkpt lat="45.0867607" lon="7.8442004"><ele>317.0</ele><time>2026-04-03T16:25:46.724Z</time></trkpt><trkpt lat="45.0865832" lon="7.8441007"><ele>317.0</ele><time>2026-04-03T16:25:47.751Z</time></trkpt><trkpt lat="45.0863939" lon="7.8440328"><ele>317.0</ele><time>2026-04-03T16:25:48.732Z</time></trkpt><trkpt lat="45.0861881" lon="7.8439952"><ele>317.0</ele><time>2026-04-03T16:25:49.727Z</time></trkpt><trkpt lat="45.0859786" lon="7.8439729"><ele>317.0</ele><time>2026-04-03T16:25:50.733Z</time></trkpt><trkpt lat="45.0857863" lon="7.8439668"><ele>317.0</ele><time>2026-04-03T16:25:51.725Z</time></trkpt><trkpt lat="45.0855733" lon="7.8439525"><ele>317.0</ele><time>2026-04-03T16:25:52.733Z</time></trkpt><trkpt lat="45.0853641" lon="7.8439401"><ele>317.33333333333337</ele><time>2026-04-03T16:25:53.723Z</time></trkpt><trkpt lat="45.0851451" lon="7.8439257"><ele>317.6666666666667</ele><time>2026-04-03T16:25:54.726Z</time></trkpt><trkpt lat="45.0849253" lon="7.8439149"><ele>318.0</ele><time>2026-04-03T16:25:55.727Z</time></trkpt><trkpt lat="45.0847019" lon="7.84392"><ele>318.0</ele><time>2026-04-03T16:25:56.73Z</time></trkpt><trkpt lat="45.0844839" lon="7.8439364"><ele>318.0</ele><time>2026-04-03T16:25:57.727Z</time></trkpt><trkpt lat="45.0842746" lon="7.8439695"><ele>318.0</ele><time>2026-04-03T16:25:58.725Z</time></trkpt><trkpt lat="45.0840497" lon="7.8440231"><ele>319.5</ele><time>2026-04-03T16:25:59.731Z</time></trkpt><trkpt lat="45.0838102" lon="7.8440939"><ele>321.0</ele><time>2026-04-03T16:26:00.737Z</time></trkpt><trkpt lat="45.0835683" lon="7.8441634"><ele>321.0</ele><time>2026-04-03T16:26:01.731Z</time></trkpt><trkpt lat="45.0833282" lon="7.8442393"><ele>321.0</ele><time>2026-04-03T16:26:02.725Z</time></trkpt><trkpt lat="45.0831026" lon="7.844317"><ele>315.0</ele><time>2026-04-03T16:26:03.733Z</time></trkpt><trkpt lat="45.0828867" lon="7.8443941"><ele>309.0</ele><time>2026-04-03T16:26:04.733Z</time></trkpt><trkpt lat="45.0826597" lon="7.8444615"><ele>308.0</ele><time>2026-04-03T16:26:05.73Z</time></trkpt><trkpt lat="45.0824059" lon="7.8445355"><ele>307.0</ele><time>2026-04-03T16:26:06.735Z</time></trkpt><trkpt lat="45.0821507" lon="7.8445989"><ele>307.0</ele><time>2026-04-03T16:26:07.733Z</time></trkpt><trkpt lat="45.0819028" lon="7.8446675"><ele>307.0</ele><time>2026-04-03T16:26:08.737Z</time></trkpt><trkpt lat="45.0816666" lon="7.8447305"><ele>310.0</ele><time>2026-04-03T16:26:09.732Z</time></trkpt><trkpt lat="45.0814287" lon="7.8447956"><ele>313.0</ele><time>2026-04-03T16:26:10.729Z</time></trkpt><trkpt lat="45.0811874" lon="7.8448633"><ele>313.0</ele><time>2026-04-03T16:26:11.735Z</time></trkpt><trkpt lat="45.0809445" lon="7.8449318"><ele>313.0</ele><time>2026-04-03T16:26:12.726Z</time></trkpt><trkpt lat="45.0807092" lon="7.8449954"><ele>313.3333333333333</ele><time>2026-04-03T16:26:13.729Z</time></trkpt><trkpt lat="45.0804866" lon="7.8450461"><ele>313.6666666666667</ele><time>2026-04-03T16:26:14.728Z</time></trkpt><trkpt lat="45.0802702" lon="7.8450737"><ele>314.0</ele><time>2026-04-03T16:26:15.729Z</time></trkpt><trkpt lat="45.0800395" lon="7.8450745"><ele>308.5</ele><time>2026-04-03T16:26:16.733Z</time></trkpt><trkpt lat="45.0798142" lon="7.8450233"><ele>303.0</ele><time>2026-04-03T16:26:17.725Z</time></trkpt><trkpt lat="45.0795933" lon="7.8449323"><ele>303.0</ele><time>2026-04-03T16:26:18.726Z</time></trkpt><trkpt lat="45.0793606" lon="7.8448163"><ele>303.0</ele><time>2026-04-03T16:26:19.73Z</time></trkpt><trkpt lat="45.0791551" lon="7.8446675"><ele>303.3333333333333</ele><time>2026-04-03T16:26:20.724Z</time></trkpt><trkpt lat="45.0789627" lon="7.8445263"><ele>303.66666666666663</ele><time>2026-04-03T16:26:21.723Z</time></trkpt><trkpt lat="45.0787685" lon="7.8443865"><ele>304.0</ele><time>2026-04-03T16:26:22.726Z</time></trkpt><trkpt lat="45.0785619" lon="7.8442443"><ele>304.0</ele><time>2026-04-03T16:26:23.723Z</time></trkpt><trkpt lat="45.0783521" lon="7.8440975"><ele>304.0</ele><time>2026-04-03T16:26:24.727Z</time></trkpt><trkpt lat="45.0781308" lon="7.8439459"><ele>302.5</ele><time>2026-04-03T16:26:25.724Z</time></trkpt><trkpt lat="45.0779067" lon="7.8437816"><ele>301.0</ele><time>2026-04-03T16:26:26.727Z</time></trkpt><trkpt lat="45.0776864" lon="7.8436259"><ele>301.0</ele><time>2026-04-03T16:26:27.726Z</time></trkpt><trkpt lat="45.0774753" lon="7.8434856"><ele>301.0</ele><time>2026-04-03T16:26:28.729Z</time></trkpt><trkpt lat="45.0772799" lon="7.8433602"><ele>301.0</ele><time>2026-04-03T16:26:29.729Z</time></trkpt><trkpt lat="45.0771041" lon="7.8432487"><ele>301.3333333333333</ele><time>2026-04-03T16:26:30.727Z</time></trkpt><trkpt lat="45.0769322" lon="7.8431443"><ele>301.6666666666667</ele><time>2026-04-03T16:26:31.756Z</time></trkpt><trkpt lat="45.0767662" lon="7.8430584"><ele>302.0</ele><time>2026-04-03T16:26:32.735Z</time></trkpt><trkpt lat="45.0765949" lon="7.8429977"><ele>302.0</ele><time>2026-04-03T16:26:33.734Z</time></trkpt><trkpt lat="45.076394" lon="7.8429689"><ele>302.0</ele><time>2026-04-03T16:26:34.737Z</time></trkpt><trkpt lat="45.0761694" lon="7.842962"><ele>302.0</ele><time>2026-04-03T16:26:35.73Z</time></trkpt><trkpt lat="45.0759346" lon="7.8429537"><ele>302.0</ele><time>2026-04-03T16:26:36.731Z</time></trkpt><trkpt lat="45.0756923" lon="7.8429364"><ele>302.0</ele><time>2026-04-03T16:26:37.728Z</time></trkpt><trkpt lat="45.0754436" lon="7.842908"><ele>302.0</ele><time>2026-04-03T16:26:38.726Z</time></trkpt><trkpt lat="45.0751867" lon="7.8428671"><ele>302.0</ele><time>2026-04-03T16:26:39.732Z</time></trkpt><trkpt lat="45.0749256" lon="7.8428001"><ele>302.0</ele><time>2026-04-03T16:26:40.73Z</time></trkpt><trkpt lat="45.0746505" lon="7.8427"><ele>302.0</ele><time>2026-04-03T16:26:41.736Z</time></trkpt><trkpt lat="45.0743867" lon="7.8425642"><ele>302.5</ele><time>2026-04-03T16:26:42.734Z</time></trkpt><trkpt lat="45.0741264" lon="7.8424157"><ele>303.0</ele><time>2026-04-03T16:26:43.732Z</time></trkpt><trkpt lat="45.0738655" lon="7.8422776"><ele>303.0</ele><time>2026-04-03T16:26:44.726Z</time></trkpt><trkpt lat="45.0736046" lon="7.842142"><ele>303.0</ele><time>2026-04-03T16:26:45.728Z</time></trkpt><trkpt lat="45.0733496" lon="7.8420096"><ele>303.5</ele><time>2026-04-03T16:26:46.726Z</time></trkpt><trkpt lat="45.073098" lon="7.8418792"><ele>304.0</ele><time>2026-04-03T16:26:47.728Z</time></trkpt><trkpt lat="45.0728579" lon="7.8417639"><ele>304.0</ele><time>2026-04-03T16:26:48.733Z</time></trkpt><trkpt lat="45.0726239" lon="7.8416646"><ele>304.0</ele><time>2026-04-03T16:26:49.735Z</time></trkpt><trkpt lat="45.0723939" lon="7.8415919"><ele>302.5</ele><time>2026-04-03T16:26:50.726Z</time></trkpt><trkpt lat="45.0721541" lon="7.8415585"><ele>301.0</ele><time>2026-04-03T16:26:51.733Z</time></trkpt><trkpt lat="45.0719029" lon="7.8415775"><ele>301.0</ele><time>2026-04-03T16:26:52.725Z</time></trkpt><trkpt lat="45.0716446" lon="7.841614"><ele>301.0</ele><time>2026-04-03T16:26:53.728Z</time></trkpt><trkpt lat="45.0713794" lon="7.841668"><ele>302.0</ele><time>2026-04-03T16:26:54.735Z</time></trkpt><trkpt lat="45.0711106" lon="7.8417213"><ele>303.0</ele><time>2026-04-03T16:26:55.733Z</time></trkpt><trkpt lat="45.0708346" lon="7.8417735"><ele>300.5</ele><time>2026-04-03T16:26:56.729Z</time></trkpt><trkpt lat="45.0705559" lon="7.8418053"><ele>298.0</ele><time>2026-04-03T16:26:57.726Z</time></trkpt><trkpt lat="45.0702788" lon="7.8418303"><ele>298.0</ele><time>2026-04-03T16:26:58.728Z</time></trkpt><trkpt lat="45.070003" lon="7.8418433"><ele>298.0</ele><time>2026-04-03T16:26:59.736Z</time></trkpt><trkpt lat="45.0697408" lon="7.8418509"><ele>298.0</ele><time>2026-04-03T16:27:00.728Z</time></trkpt><trkpt lat="45.0694733" lon="7.8418543"><ele>298.0</ele><time>2026-04-03T16:27:01.73Z</time></trkpt><trkpt lat="45.0692135" lon="7.8418569"><ele>296.5</ele><time>2026-04-03T16:27:02.731Z</time></trkpt><trkpt lat="45.0689501" lon="7.8418577"><ele>295.0</ele><time>2026-04-03T16:27:03.73Z</time></trkpt><trkpt lat="45.0687007" lon="7.8418554"><ele>295.0</ele><time>2026-04-03T16:27:04.724Z</time></trkpt><trkpt lat="45.0684526" lon="7.8418455"><ele>295.0</ele><time>2026-04-03T16:27:05.721Z</time></trkpt><trkpt lat="45.0682073" lon="7.8418328"><ele>294.66666666666663</ele><time>2026-04-03T16:27:06.734Z</time></trkpt><trkpt lat="45.067982" lon="7.8418158"><ele>294.3333333333333</ele><time>2026-04-03T16:27:07.727Z</time></trkpt><trkpt lat="45.0677599" lon="7.8417969"><ele>294.0</ele><time>2026-04-03T16:27:08.738Z</time></trkpt><trkpt lat="45.0675568" lon="7.841782"><ele>294.0</ele><time>2026-04-03T16:27:09.724Z</time></trkpt><trkpt lat="45.0673532" lon="7.8417648"><ele>294.0</ele><time>2026-04-03T16:27:10.72Z</time></trkpt><trkpt lat="45.0671497" lon="7.8417507"><ele>294.0</ele><time>2026-04-03T16:27:11.726Z</time></trkpt><trkpt lat="45.0669489" lon="7.8417415"><ele>294.0</ele><time>2026-04-03T16:27:12.731Z</time></trkpt><trkpt lat="45.0667627" lon="7.8417425"><ele>294.0</ele><time>2026-04-03T16:27:13.729Z</time></trkpt><trkpt lat="45.0665805" lon="7.8417511"><ele>294.0</ele><time>2026-04-03T16:27:14.72Z</time></trkpt><trkpt lat="45.066408" lon="7.8417651"><ele>294.0</ele><time>2026-04-03T16:27:15.721Z</time></trkpt><trkpt lat="45.0662443" lon="7.8417807"><ele>294.0</ele><time>2026-04-03T16:27:16.721Z</time></trkpt><trkpt lat="45.0660911" lon="7.8417933"><ele>294.0</ele><time>2026-04-03T16:27:17.729Z</time></trkpt><trkpt lat="45.065961" lon="7.8417994"><ele>294.0</ele><time>2026-04-03T16:27:18.728Z</time></trkpt><trkpt lat="45.0658525" lon="7.8418009"><ele>294.1666666666667</ele><time>2026-04-03T16:27:19.73Z</time></trkpt><trkpt lat="45.0657663" lon="7.8418026"><ele>294.3333333333333</ele><time>2026-04-03T16:27:20.727Z</time></trkpt><trkpt lat="45.0656902" lon="7.8417844"><ele>294.5</ele><time>2026-04-03T16:27:21.723Z</time></trkpt><trkpt lat="45.0656117" lon="7.841742"><ele>294.66666666666663</ele><time>2026-04-03T16:27:22.726Z</time></trkpt><trkpt lat="45.0655341" lon="7.8417159"><ele>294.8333333333333</ele><time>2026-04-03T16:27:23.727Z</time></trkpt><trkpt lat="45.0654609" lon="7.8417226"><ele>295.0</ele><time>2026-04-03T16:27:24.725Z</time></trkpt><trkpt lat="45.0653628" lon="7.8417632"><ele>294.0</ele><time>2026-04-03T16:27:25.725Z</time></trkpt><trkpt lat="45.0652287" lon="7.8418294"><ele>293.0</ele><time>2026-04-03T16:27:26.73Z</time></trkpt><trkpt lat="45.0650619" lon="7.8418689"><ele>292.0</ele><time>2026-04-03T16:27:27.73Z</time></trkpt><trkpt lat="45.0648866" lon="7.8418871"><ele>291.66666666666663</ele><time>2026-04-03T16:27:28.731Z</time></trkpt><trkpt lat="45.0647321" lon="7.8418985"><ele>291.3333333333333</ele><time>2026-04-03T16:27:29.721Z</time></trkpt><trkpt lat="45.0645808" lon="7.8419147"><ele>291.0</ele><time>2026-04-03T16:27:30.728Z</time></trkpt><trkpt lat="45.0644364" lon="7.8419297"><ele>291.0</ele><time>2026-04-03T16:27:31.729Z</time></trkpt><trkpt lat="45.0642844" lon="7.841941"><ele>291.0</ele><time>2026-04-03T16:27:32.764Z</time></trkpt><trkpt lat="45.0641395" lon="7.8419521"><ele>291.0</ele><time>2026-04-03T16:27:33.732Z</time></trkpt><trkpt lat="45.0639776" lon="7.8419651"><ele>291.3333333333333</ele><time>2026-04-03T16:27:34.727Z</time></trkpt><trkpt lat="45.0638024" lon="7.8419764"><ele>291.66666666666663</ele><time>2026-04-03T16:27:35.723Z</time></trkpt><trkpt lat="45.0636117" lon="7.8419876"><ele>292.0</ele><time>2026-04-03T16:27:36.727Z</time></trkpt><trkpt lat="45.0634073" lon="7.8419993"><ele>291.3333333333333</ele><time>2026-04-03T16:27:37.725Z</time></trkpt><trkpt lat="45.0631945" lon="7.8420144"><ele>290.6666666666667</ele><time>2026-04-03T16:27:38.728Z</time></trkpt><trkpt lat="45.0629774" lon="7.8420275"><ele>290.0</ele><time>2026-04-03T16:27:39.732Z</time></trkpt><trkpt lat="45.0627667" lon="7.8420423"><ele>290.0</ele><time>2026-04-03T16:27:40.735Z</time></trkpt><trkpt lat="45.0625614" lon="7.8420568"><ele>290.0</ele><time>2026-04-03T16:27:41.762Z</time></trkpt><trkpt lat="45.0623566" lon="7.8420706"><ele>290.0</ele><time>2026-04-03T16:27:42.721Z</time></trkpt><trkpt lat="45.0621341" lon="7.842093"><ele>290.0</ele><time>2026-04-03T16:27:43.725Z</time></trkpt><trkpt lat="45.061901" lon="7.8421385"><ele>290.0</ele><time>2026-04-03T16:27:44.728Z</time></trkpt><trkpt lat="45.0616601" lon="7.8422108"><ele>290.0</ele><time>2026-04-03T16:27:45.729Z</time></trkpt><trkpt lat="45.0614137" lon="7.8423124"><ele>290.0</ele><time>2026-04-03T16:27:46.726Z</time></trkpt><trkpt lat="45.0611596" lon="7.8424198"><ele>290.0</ele><time>2026-04-03T16:27:47.733Z</time></trkpt><trkpt lat="45.0609084" lon="7.8425226"><ele>290.0</ele><time>2026-04-03T16:27:48.729Z</time></trkpt><trkpt lat="45.0606707" lon="7.8426141"><ele>292.0</ele><time>2026-04-03T16:27:49.734Z</time></trkpt><trkpt lat="45.0604462" lon="7.8427055"><ele>294.0</ele><time>2026-04-03T16:27:50.726Z</time></trkpt><trkpt lat="45.060219" lon="7.8428118"><ele>294.0</ele><time>2026-04-03T16:27:51.725Z</time></trkpt><trkpt lat="45.0599939" lon="7.8429558"><ele>294.0</ele><time>2026-04-03T16:27:52.733Z</time></trkpt><trkpt lat="45.0597599" lon="7.8431252"><ele>292.0</ele><time>2026-04-03T16:27:53.726Z</time></trkpt><trkpt lat="45.0595388" lon="7.8432887"><ele>290.0</ele><time>2026-04-03T16:27:54.728Z</time></trkpt><trkpt lat="45.0593167" lon="7.8434427"><ele>289.5</ele><time>2026-04-03T16:27:55.727Z</time></trkpt><trkpt lat="45.0590921" lon="7.8435885"><ele>289.0</ele><time>2026-04-03T16:27:56.727Z</time></trkpt><trkpt lat="45.0588583" lon="7.843728"><ele>289.0</ele><time>2026-04-03T16:27:57.724Z</time></trkpt><trkpt lat="45.058617" lon="7.8438399"><ele>289.0</ele><time>2026-04-03T16:27:58.723Z</time></trkpt><trkpt lat="45.0583483" lon="7.843922"><ele>290.0</ele><time>2026-04-03T16:27:59.724Z</time></trkpt><trkpt lat="45.0580575" lon="7.8440052"><ele>291.0</ele><time>2026-04-03T16:28:00.726Z</time></trkpt><trkpt lat="45.0577666" lon="7.8440874"><ele>291.0</ele><time>2026-04-03T16:28:01.729Z</time></trkpt><trkpt lat="45.0574853" lon="7.8441667"><ele>291.0</ele><time>2026-04-03T16:28:02.729Z</time></trkpt><trkpt lat="45.0572165" lon="7.8442445"><ele>289.0</ele><time>2026-04-03T16:28:03.729Z</time></trkpt><trkpt lat="45.0569581" lon="7.8443201"><ele>287.0</ele><time>2026-04-03T16:28:04.73Z</time></trkpt><trkpt lat="45.0566968" lon="7.8443961"><ele>287.0</ele><time>2026-04-03T16:28:05.73Z</time></trkpt><trkpt lat="45.0564346" lon="7.8444703"><ele>287.0</ele><time>2026-04-03T16:28:06.729Z</time></trkpt><trkpt lat="45.056179" lon="7.8445449"><ele>287.0</ele><time>2026-04-03T16:28:07.731Z</time></trkpt><trkpt lat="45.055927" lon="7.8446161"><ele>287.0</ele><time>2026-04-03T16:28:08.731Z</time></trkpt><trkpt lat="45.0556793" lon="7.8446806"><ele>286.0</ele><time>2026-04-03T16:28:09.725Z</time></trkpt><trkpt lat="45.0554321" lon="7.8447312"><ele>285.0</ele><time>2026-04-03T16:28:10.729Z</time></trkpt><trkpt lat="45.0551851" lon="7.8447499"><ele>285.5</ele><time>2026-04-03T16:28:11.737Z</time></trkpt><trkpt lat="45.0549286" lon="7.8447484"><ele>286.0</ele><time>2026-04-03T16:28:12.727Z</time></trkpt><trkpt lat="45.0546762" lon="7.8447382"><ele>286.0</ele><time>2026-04-03T16:28:13.727Z</time></trkpt><trkpt lat="45.0544172" lon="7.8447306"><ele>286.0</ele><time>2026-04-03T16:28:14.723Z</time></trkpt><trkpt lat="45.0541645" lon="7.8447272"><ele>286.5</ele><time>2026-04-03T16:28:15.735Z</time></trkpt><trkpt lat="45.0539204" lon="7.8447254"><ele>287.0</ele><time>2026-04-03T16:28:16.735Z</time></trkpt><trkpt lat="45.0536782" lon="7.844725"><ele>287.0</ele><time>2026-04-03T16:28:17.739Z</time></trkpt><trkpt lat="45.0534362" lon="7.8447229"><ele>287.0</ele><time>2026-04-03T16:28:18.732Z</time></trkpt><trkpt lat="45.0531919" lon="7.8447204"><ele>287.0</ele><time>2026-04-03T16:28:19.742Z</time></trkpt><trkpt lat="45.0529526" lon="7.8447169"><ele>287.0</ele><time>2026-04-03T16:28:20.727Z</time></trkpt><trkpt lat="45.0527002" lon="7.8447182"><ele>287.5</ele><time>2026-04-03T16:28:21.742Z</time></trkpt><trkpt lat="45.0524517" lon="7.8447361"><ele>288.0</ele><time>2026-04-03T16:28:22.727Z</time></trkpt><trkpt lat="45.0521908" lon="7.8447765"><ele>288.0</ele><time>2026-04-03T16:28:23.728Z</time></trkpt><trkpt lat="45.0519234" lon="7.8448399"><ele>288.0</ele><time>2026-04-03T16:28:24.733Z</time></trkpt><trkpt lat="45.0516628" lon="7.8449207"><ele>288.0</ele><time>2026-04-03T16:28:25.73Z</time></trkpt><trkpt lat="45.0513923" lon="7.8450222"><ele>288.0</ele><time>2026-04-03T16:28:26.748Z</time></trkpt><trkpt lat="45.0511266" lon="7.8451427"><ele>286.0</ele><time>2026-04-03T16:28:27.734Z</time></trkpt><trkpt lat="45.0508577" lon="7.8452879"><ele>284.0</ele><time>2026-04-03T16:28:28.738Z</time></trkpt><trkpt lat="45.0506016" lon="7.8454474"><ele>284.0</ele><time>2026-04-03T16:28:29.738Z</time></trkpt><trkpt lat="45.050359" lon="7.8456108"><ele>284.0</ele><time>2026-04-03T16:28:30.735Z</time></trkpt><trkpt lat="45.0501266" lon="7.8457704"><ele>283.0</ele><time>2026-04-03T16:28:31.737Z</time></trkpt><trkpt lat="45.0498969" lon="7.8459255"><ele>282.0</ele><time>2026-04-03T16:28:32.738Z</time></trkpt><trkpt lat="45.049661" lon="7.8460792"><ele>282.0</ele><time>2026-04-03T16:28:33.753Z</time></trkpt><trkpt lat="45.0494312" lon="7.8462224"><ele>282.0</ele><time>2026-04-03T16:28:34.731Z</time></trkpt><trkpt lat="45.0491885" lon="7.8463594"><ele>283.5</ele><time>2026-04-03T16:28:35.731Z</time></trkpt><trkpt lat="45.0489442" lon="7.8464869"><ele>285.0</ele><time>2026-04-03T16:28:36.746Z</time></trkpt><trkpt lat="45.0487135" lon="7.8465925"><ele>285.0</ele><time>2026-04-03T16:28:37.729Z</time></trkpt><trkpt lat="45.0484841" lon="7.8466851"><ele>285.0</ele><time>2026-04-03T16:28:38.749Z</time></trkpt><trkpt lat="45.0482718" lon="7.846768"><ele>284.0</ele><time>2026-04-03T16:28:39.733Z</time></trkpt><trkpt lat="45.0480562" lon="7.8468603"><ele>283.0</ele><time>2026-04-03T16:28:40.733Z</time></trkpt><trkpt lat="45.0478521" lon="7.8469527"><ele>282.0</ele><time>2026-04-03T16:28:41.733Z</time></trkpt><trkpt lat="45.0476446" lon="7.847053"><ele>282.0</ele><time>2026-04-03T16:28:42.735Z</time></trkpt><trkpt lat="45.0474379" lon="7.8471499"><ele>282.0</ele><time>2026-04-03T16:28:43.74Z</time></trkpt><trkpt lat="45.0472353" lon="7.847245"><ele>282.0</ele><time>2026-04-03T16:28:44.731Z</time></trkpt><trkpt lat="45.0470212" lon="7.8473405"><ele>282.0</ele><time>2026-04-03T16:28:45.731Z</time></trkpt><trkpt lat="45.0468097" lon="7.847437"><ele>282.0</ele><time>2026-04-03T16:28:46.734Z</time></trkpt><trkpt lat="45.0465884" lon="7.8475355"><ele>281.5</ele><time>2026-04-03T16:28:47.732Z</time></trkpt><trkpt lat="45.0463635" lon="7.8476346"><ele>281.0</ele><time>2026-04-03T16:28:48.73Z</time></trkpt><trkpt lat="45.0461306" lon="7.8477378"><ele>281.0</ele><time>2026-04-03T16:28:49.733Z</time></trkpt><trkpt lat="45.0458979" lon="7.847842"><ele>281.0</ele><time>2026-04-03T16:28:50.724Z</time></trkpt><trkpt lat="45.0456632" lon="7.8479491"><ele>280.0</ele><time>2026-04-03T16:28:51.736Z</time></trkpt><trkpt lat="45.0454228" lon="7.8480618"><ele>279.0</ele><time>2026-04-03T16:28:52.736Z</time></trkpt><trkpt lat="45.045193" lon="7.8481696"><ele>279.0</ele><time>2026-04-03T16:28:53.73Z</time></trkpt><trkpt lat="45.0449659" lon="7.8482733"><ele>279.0</ele><time>2026-04-03T16:28:54.732Z</time></trkpt><trkpt lat="45.0447553" lon="7.8483695"><ele>279.0</ele><time>2026-04-03T16:28:55.727Z</time></trkpt><trkpt lat="45.0445435" lon="7.8484681"><ele>279.0</ele><time>2026-04-03T16:28:56.753Z</time></trkpt><trkpt lat="45.0443389" lon="7.8485633"><ele>279.0</ele><time>2026-04-03T16:28:57.742Z</time></trkpt><trkpt lat="45.0441297" lon="7.8486584"><ele>279.5</ele><time>2026-04-03T16:28:58.732Z</time></trkpt><trkpt lat="45.0439098" lon="7.8487619"><ele>280.0</ele><time>2026-04-03T16:28:59.74Z</time></trkpt><trkpt lat="45.043691" lon="7.8488638"><ele>280.0</ele><time>2026-04-03T16:29:00.729Z</time></trkpt><trkpt lat="45.0434697" lon="7.8489665"><ele>280.0</ele><time>2026-04-03T16:29:01.742Z</time></trkpt><trkpt lat="45.043256" lon="7.8490636"><ele>282.0</ele><time>2026-04-03T16:29:02.744Z</time></trkpt><trkpt lat="45.0430369" lon="7.849166"><ele>284.0</ele><time>2026-04-03T16:29:03.74Z</time></trkpt><trkpt lat="45.0428228" lon="7.8492674"><ele>283.0</ele><time>2026-04-03T16:29:04.731Z</time></trkpt><trkpt lat="45.0425968" lon="7.8493697"><ele>282.0</ele><time>2026-04-03T16:29:05.739Z</time></trkpt><trkpt lat="45.0423702" lon="7.8494748"><ele>281.0</ele><time>2026-04-03T16:29:06.738Z</time></trkpt><trkpt lat="45.0421511" lon="7.8495767"><ele>280.0</ele><time>2026-04-03T16:29:07.738Z</time></trkpt><trkpt lat="45.0419289" lon="7.8496819"><ele>280.0</ele><time>2026-04-03T16:29:08.734Z</time></trkpt><trkpt lat="45.0417134" lon="7.8497843"><ele>280.0</ele><time>2026-04-03T16:29:09.724Z</time></trkpt><trkpt lat="45.0414833" lon="7.8498902"><ele>279.5</ele><time>2026-04-03T16:29:10.729Z</time></trkpt><trkpt lat="45.0412607" lon="7.8499937"><ele>279.0</ele><time>2026-04-03T16:29:11.73Z</time></trkpt><trkpt lat="45.0410264" lon="7.8501039"><ele>278.5</ele><time>2026-04-03T16:29:12.759Z</time></trkpt><trkpt lat="45.0408082" lon="7.8502078"><ele>278.0</ele><time>2026-04-03T16:29:13.732Z</time></trkpt><trkpt lat="45.0405917" lon="7.8503082"><ele>279.0</ele><time>2026-04-03T16:29:14.732Z</time></trkpt><trkpt lat="45.0403776" lon="7.8504074"><ele>280.0</ele><time>2026-04-03T16:29:15.731Z</time></trkpt><trkpt lat="45.0401636" lon="7.850501"><ele>281.0</ele><time>2026-04-03T16:29:16.731Z</time></trkpt><trkpt lat="45.0399535" lon="7.8505973"><ele>281.0</ele><time>2026-04-03T16:29:17.731Z</time></trkpt><trkpt lat="45.03974" lon="7.8507006"><ele>281.0</ele><time>2026-04-03T16:29:18.723Z</time></trkpt><trkpt lat="45.0395236" lon="7.8508166"><ele>281.0</ele><time>2026-04-03T16:29:19.725Z</time></trkpt><trkpt lat="45.0393082" lon="7.8509553"><ele>281.0</ele><time>2026-04-03T16:29:20.725Z</time></trkpt><trkpt lat="45.0391001" lon="7.8511109"><ele>282.5</ele><time>2026-04-03T16:29:21.729Z</time></trkpt><trkpt lat="45.0388923" lon="7.851284"><ele>284.0</ele><time>2026-04-03T16:29:22.729Z</time></trkpt><trkpt lat="45.038695" lon="7.8514409"><ele>284.0</ele><time>2026-04-03T16:29:23.731Z</time></trkpt><trkpt lat="45.0384919" lon="7.8515967"><ele>284.0</ele><time>2026-04-03T16:29:24.728Z</time></trkpt><trkpt lat="45.0382929" lon="7.8517435"><ele>283.33333333333337</ele><time>2026-04-03T16:29:25.724Z</time></trkpt><trkpt lat="45.038097" lon="7.8518903"><ele>282.6666666666667</ele><time>2026-04-03T16:29:26.729Z</time></trkpt><trkpt lat="45.0379046" lon="7.8520381"><ele>282.0</ele><time>2026-04-03T16:29:27.728Z</time></trkpt><trkpt lat="45.0377073" lon="7.8521863"><ele>282.0</ele><time>2026-04-03T16:29:28.733Z</time></trkpt><trkpt lat="45.0375185" lon="7.8523253"><ele>282.0</ele><time>2026-04-03T16:29:29.734Z</time></trkpt><trkpt lat="45.0373399" lon="7.8524586"><ele>282.0</ele><time>2026-04-03T16:29:30.729Z</time></trkpt><trkpt lat="45.037171" lon="7.8525885"><ele>282.3333333333333</ele><time>2026-04-03T16:29:31.736Z</time></trkpt><trkpt lat="45.0370054" lon="7.8527182"><ele>282.66666666666663</ele><time>2026-04-03T16:29:32.747Z</time></trkpt><trkpt lat="45.0368541" lon="7.8528346"><ele>283.0</ele><time>2026-04-03T16:29:33.731Z</time></trkpt><trkpt lat="45.0367015" lon="7.8529457"><ele>283.3333333333333</ele><time>2026-04-03T16:29:34.739Z</time></trkpt><trkpt lat="45.036555" lon="7.8530498"><ele>283.6666666666667</ele><time>2026-04-03T16:29:35.747Z</time></trkpt><trkpt lat="45.0364063" lon="7.8531514"><ele>284.0</ele><time>2026-04-03T16:29:36.734Z</time></trkpt><trkpt lat="45.0362454" lon="7.8532408"><ele>284.0</ele><time>2026-04-03T16:29:37.741Z</time></trkpt><trkpt lat="45.0360879" lon="7.8533081"><ele>284.0</ele><time>2026-04-03T16:29:38.733Z</time></trkpt><trkpt lat="45.0359221" lon="7.8533611"><ele>284.0</ele><time>2026-04-03T16:29:39.734Z</time></trkpt><trkpt lat="45.0357532" lon="7.8533996"><ele>284.0</ele><time>2026-04-03T16:29:40.728Z</time></trkpt><trkpt lat="45.0355795" lon="7.8534208"><ele>284.0</ele><time>2026-04-03T16:29:41.734Z</time></trkpt><trkpt lat="45.0354001" lon="7.8534314"><ele>284.0</ele><time>2026-04-03T16:29:42.728Z</time></trkpt><trkpt lat="45.0352299" lon="7.8534302"><ele>284.0</ele><time>2026-04-03T16:29:43.736Z</time></trkpt><trkpt lat="45.0350636" lon="7.8534102"><ele>284.0</ele><time>2026-04-03T16:29:44.732Z</time></trkpt><trkpt lat="45.0348879" lon="7.8533749"><ele>284.0</ele><time>2026-04-03T16:29:45.732Z</time></trkpt><trkpt lat="45.0347056" lon="7.8533224"><ele>283.33333333333337</ele><time>2026-04-03T16:29:46.726Z</time></trkpt><trkpt lat="45.034514" lon="7.8532577"><ele>282.6666666666667</ele><time>2026-04-03T16:29:47.732Z</time></trkpt><trkpt lat="45.0343139" lon="7.8531915"><ele>282.0</ele><time>2026-04-03T16:29:48.725Z</time></trkpt><trkpt lat="45.0341079" lon="7.8531277"><ele>282.0</ele><time>2026-04-03T16:29:49.734Z</time></trkpt><trkpt lat="45.0338975" lon="7.8530625"><ele>282.0</ele><time>2026-04-03T16:29:50.727Z</time></trkpt><trkpt lat="45.0336851" lon="7.8529969"><ele>282.0</ele><time>2026-04-03T16:29:51.73Z</time></trkpt><trkpt lat="45.0334758" lon="7.8529317"><ele>282.3333333333333</ele><time>2026-04-03T16:29:52.724Z</time></trkpt><trkpt lat="45.0332639" lon="7.8528691"><ele>282.66666666666663</ele><time>2026-04-03T16:29:53.726Z</time></trkpt><trkpt lat="45.0330518" lon="7.8528033"><ele>283.0</ele><time>2026-04-03T16:29:54.735Z</time></trkpt><trkpt lat="45.0328421" lon="7.8527381"><ele>283.0</ele><time>2026-04-03T16:29:55.724Z</time></trkpt><trkpt lat="45.0326278" lon="7.8526732"><ele>283.0</ele><time>2026-04-03T16:29:56.726Z</time></trkpt><trkpt lat="45.0324166" lon="7.8526056"><ele>283.0</ele><time>2026-04-03T16:29:57.731Z</time></trkpt><trkpt lat="45.0322023" lon="7.8525353"><ele>284.3333333333333</ele><time>2026-04-03T16:29:58.726Z</time></trkpt><trkpt lat="45.0319879" lon="7.852468"><ele>285.6666666666667</ele><time>2026-04-03T16:29:59.726Z</time></trkpt><trkpt lat="45.0317686" lon="7.8524003"><ele>287.0</ele><time>2026-04-03T16:30:00.73Z</time></trkpt><trkpt lat="45.0315554" lon="7.8523363"><ele>287.0</ele><time>2026-04-03T16:30:01.731Z</time></trkpt><trkpt lat="45.0313352" lon="7.8522728"><ele>287.0</ele><time>2026-04-03T16:30:02.734Z</time></trkpt><trkpt lat="45.0311216" lon="7.8522105"><ele>287.0</ele><time>2026-04-03T16:30:03.725Z</time></trkpt><trkpt lat="45.0309027" lon="7.8521429"><ele>288.0</ele><time>2026-04-03T16:30:04.731Z</time></trkpt><trkpt lat="45.0306831" lon="7.8520743"><ele>289.0</ele><time>2026-04-03T16:30:05.734Z</time></trkpt><trkpt lat="45.0304777" lon="7.8520089"><ele>290.0</ele><time>2026-04-03T16:30:06.731Z</time></trkpt><trkpt lat="45.0302762" lon="7.8519499"><ele>290.0</ele><time>2026-04-03T16:30:07.742Z</time></trkpt><trkpt lat="45.0300953" lon="7.8518954"><ele>290.0</ele><time>2026-04-03T16:30:08.728Z</time></trkpt><trkpt lat="45.0299183" lon="7.8518415"><ele>290.0</ele><time>2026-04-03T16:30:09.73Z</time></trkpt><trkpt lat="45.0297593" lon="7.851792"><ele>289.75</ele><time>2026-04-03T16:30:10.724Z</time></trkpt><trkpt lat="45.0296223" lon="7.8517424"><ele>289.5</ele><time>2026-04-03T16:30:11.726Z</time></trkpt><trkpt lat="45.0295197" lon="7.851701"><ele>289.25</ele><time>2026-04-03T16:30:12.729Z</time></trkpt><trkpt lat="45.0294203" lon="7.8516523"><ele>289.0</ele><time>2026-04-03T16:30:13.725Z</time></trkpt><trkpt lat="45.0293155" lon="7.8515974"><ele>289.0</ele><time>2026-04-03T16:30:14.731Z</time></trkpt><trkpt lat="45.0291967" lon="7.8515367"><ele>289.0</ele><time>2026-04-03T16:30:15.73Z</time></trkpt><trkpt lat="45.0290688" lon="7.8514736"><ele>289.0</ele><time>2026-04-03T16:30:16.73Z</time></trkpt><trkpt lat="45.0289367" lon="7.851405"><ele>289.0</ele><time>2026-04-03T16:30:17.729Z</time></trkpt><trkpt lat="45.0287973" lon="7.8513244"><ele>289.0</ele><time>2026-04-03T16:30:18.732Z</time></trkpt><trkpt lat="45.028667" lon="7.8512453"><ele>289.0</ele><time>2026-04-03T16:30:19.729Z</time></trkpt><trkpt lat="45.0285399" lon="7.8511699"><ele>289.0</ele><time>2026-04-03T16:30:20.73Z</time></trkpt><trkpt lat="45.028419" lon="7.8511003"><ele>289.0</ele><time>2026-04-03T16:30:21.73Z</time></trkpt><trkpt lat="45.0283042" lon="7.8510368"><ele>289.0</ele><time>2026-04-03T16:30:22.729Z</time></trkpt><trkpt lat="45.0281855" lon="7.8509776"><ele>289.0</ele><time>2026-04-03T16:30:23.739Z</time></trkpt><trkpt lat="45.0280614" lon="7.8509123"><ele>289.0</ele><time>2026-04-03T16:30:24.731Z</time></trkpt><trkpt lat="45.0279492" lon="7.8508488"><ele>289.0</ele><time>2026-04-03T16:30:25.734Z</time></trkpt><trkpt lat="45.0278493" lon="7.8507882"><ele>289.0</ele><time>2026-04-03T16:30:26.732Z</time></trkpt><trkpt lat="45.0277628" lon="7.8507383"><ele>289.0</ele><time>2026-04-03T16:30:27.73Z</time></trkpt><trkpt lat="45.027685" lon="7.8506961"><ele>289.0</ele><time>2026-04-03T16:30:28.734Z</time></trkpt><trkpt lat="45.0276073" lon="7.8506538"><ele>289.0</ele><time>2026-04-03T16:30:29.728Z</time></trkpt><trkpt lat="45.0275441" lon="7.8506195"><ele>289.0</ele><time>2026-04-03T16:30:30.728Z</time></trkpt><trkpt lat="45.0274776" lon="7.8505822"><ele>289.0</ele><time>2026-04-03T16:30:31.727Z</time></trkpt><trkpt lat="45.0274066" lon="7.8505443"><ele>288.8</ele><time>2026-04-03T16:30:32.73Z</time></trkpt><trkpt lat="45.0273195" lon="7.8504937"><ele>288.59999999999997</ele><time>2026-04-03T16:30:33.729Z</time></trkpt><trkpt lat="45.0272288" lon="7.8504388"><ele>288.4</ele><time>2026-04-03T16:30:34.732Z</time></trkpt><trkpt lat="45.0271372" lon="7.8503886"><ele>288.2</ele><time>2026-04-03T16:30:35.74Z</time></trkpt><trkpt lat="45.0270569" lon="7.8503425"><ele>288.0</ele><time>2026-04-03T16:30:36.729Z</time></trkpt><trkpt lat="45.0269793" lon="7.8502872"><ele>288.0</ele><time>2026-04-03T16:30:37.732Z</time></trkpt><trkpt lat="45.0269143" lon="7.8502292"><ele>288.0</ele><time>2026-04-03T16:30:38.739Z</time></trkpt><trkpt lat="45.0268163" lon="7.8501068"><ele>288.0</ele><time>2026-04-03T16:30:40.724Z</time></trkpt><trkpt lat="45.0267501" lon="7.8500183"><ele>288.0</ele><time>2026-04-03T16:30:41.731Z</time></trkpt><trkpt lat="45.0266827" lon="7.8499446"><ele>288.0</ele><time>2026-04-03T16:30:42.732Z</time></trkpt><trkpt lat="45.0266022" lon="7.8498871"><ele>287.75</ele><time>2026-04-03T16:30:43.729Z</time></trkpt><trkpt lat="45.0264953" lon="7.8498138"><ele>287.5</ele><time>2026-04-03T16:30:44.734Z</time></trkpt><trkpt lat="45.0263703" lon="7.84971"><ele>287.25</ele><time>2026-04-03T16:30:45.731Z</time></trkpt><trkpt lat="45.0262397" lon="7.8495655"><ele>287.0</ele><time>2026-04-03T16:30:46.737Z</time></trkpt><trkpt lat="45.0260976" lon="7.8493914"><ele>287.0</ele><time>2026-04-03T16:30:47.731Z</time></trkpt><trkpt lat="45.025951" lon="7.8491831"><ele>287.0</ele><time>2026-04-03T16:30:48.726Z</time></trkpt><trkpt lat="45.0258207" lon="7.848924"><ele>287.0</ele><time>2026-04-03T16:30:49.736Z</time></trkpt><trkpt lat="45.0257122" lon="7.8486739"><ele>288.0</ele><time>2026-04-03T16:30:50.739Z</time></trkpt><trkpt lat="45.0256052" lon="7.8484372"><ele>289.0</ele><time>2026-04-03T16:30:51.737Z</time></trkpt><trkpt lat="45.0254867" lon="7.8481941"><ele>290.0</ele><time>2026-04-03T16:30:52.734Z</time></trkpt><trkpt lat="45.0253476" lon="7.8479288"><ele>290.0</ele><time>2026-04-03T16:30:53.741Z</time></trkpt><trkpt lat="45.0252087" lon="7.8476582"><ele>290.0</ele><time>2026-04-03T16:30:54.737Z</time></trkpt><trkpt lat="45.0250734" lon="7.8473989"><ele>288.0</ele><time>2026-04-03T16:30:55.731Z</time></trkpt><trkpt lat="45.0249288" lon="7.8471297"><ele>286.0</ele><time>2026-04-03T16:30:56.733Z</time></trkpt><trkpt lat="45.0247793" lon="7.8468504"><ele>287.0</ele><time>2026-04-03T16:30:57.737Z</time></trkpt><trkpt lat="45.0246277" lon="7.8465704"><ele>288.0</ele><time>2026-04-03T16:30:58.725Z</time></trkpt><trkpt lat="45.024467" lon="7.8462756"><ele>288.0</ele><time>2026-04-03T16:30:59.729Z</time></trkpt><trkpt lat="45.0243113" lon="7.845989"><ele>288.0</ele><time>2026-04-03T16:31:00.733Z</time></trkpt><trkpt lat="45.0241558" lon="7.8457037"><ele>289.0</ele><time>2026-04-03T16:31:01.728Z</time></trkpt><trkpt lat="45.0240054" lon="7.8454336"><ele>290.0</ele><time>2026-04-03T16:31:02.736Z</time></trkpt><trkpt lat="45.0238601" lon="7.8451749"><ele>290.6666666666667</ele><time>2026-04-03T16:31:03.737Z</time></trkpt><trkpt lat="45.0237193" lon="7.844917"><ele>291.3333333333333</ele><time>2026-04-03T16:31:04.742Z</time></trkpt><trkpt lat="45.0235888" lon="7.8446735"><ele>292.0</ele><time>2026-04-03T16:31:05.734Z</time></trkpt><trkpt lat="45.0234599" lon="7.8444382"><ele>292.66666666666663</ele><time>2026-04-03T16:31:06.728Z</time></trkpt><trkpt lat="45.0233401" lon="7.8442149"><ele>293.3333333333333</ele><time>2026-04-03T16:31:07.734Z</time></trkpt><trkpt lat="45.0232231" lon="7.8440061"><ele>294.0</ele><time>2026-04-03T16:31:08.727Z</time></trkpt><trkpt lat="45.0231093" lon="7.8438011"><ele>295.3333333333333</ele><time>2026-04-03T16:31:09.727Z</time></trkpt><trkpt lat="45.0229989" lon="7.8436013"><ele>296.66666666666663</ele><time>2026-04-03T16:31:10.737Z</time></trkpt><trkpt lat="45.0228934" lon="7.8434105"><ele>298.0</ele><time>2026-04-03T16:31:11.731Z</time></trkpt><trkpt lat="45.0228049" lon="7.8432466"><ele>298.0</ele><time>2026-04-03T16:31:12.733Z</time></trkpt><trkpt lat="45.0227276" lon="7.843103"><ele>298.0</ele><time>2026-04-03T16:31:13.723Z</time></trkpt><trkpt lat="45.0226693" lon="7.8429961"><ele>298.0</ele><time>2026-04-03T16:31:14.731Z</time></trkpt><trkpt lat="45.0226219" lon="7.8429149"><ele>298.0</ele><time>2026-04-03T16:31:15.732Z</time></trkpt><trkpt lat="45.022578" lon="7.8428464"><ele>298.0</ele><time>2026-04-03T16:31:16.728Z</time></trkpt><trkpt lat="45.0225322" lon="7.842774"><ele>298.0</ele><time>2026-04-03T16:31:17.733Z</time></trkpt><trkpt lat="45.0224856" lon="7.8426774"><ele>298.0</ele><time>2026-04-03T16:31:18.724Z</time></trkpt><trkpt lat="45.022443" lon="7.8425583"><ele>298.0</ele><time>2026-04-03T16:31:19.729Z</time></trkpt><trkpt lat="45.0224074" lon="7.8424123"><ele>298.0</ele><time>2026-04-03T16:31:20.73Z</time></trkpt><trkpt lat="45.0223824" lon="7.8422603"><ele>298.0</ele><time>2026-04-03T16:31:21.729Z</time></trkpt><trkpt lat="45.0223654" lon="7.8421165"><ele>298.0</ele><time>2026-04-03T16:31:22.732Z</time></trkpt><trkpt lat="45.022354" lon="7.8419655"><ele>298.0</ele><time>2026-04-03T16:31:23.731Z</time></trkpt><trkpt lat="45.0223494" lon="7.8417989"><ele>298.0</ele><time>2026-04-03T16:31:24.739Z</time></trkpt><trkpt lat="45.0223488" lon="7.8416198"><ele>298.0</ele><time>2026-04-03T16:31:25.728Z</time></trkpt><trkpt lat="45.0223545" lon="7.8414393"><ele>298.0</ele><time>2026-04-03T16:31:26.737Z</time></trkpt><trkpt lat="45.0223604" lon="7.8412633"><ele>298.25</ele><time>2026-04-03T16:31:27.729Z</time></trkpt><trkpt lat="45.0223708" lon="7.8411017"><ele>298.5</ele><time>2026-04-03T16:31:28.73Z</time></trkpt><trkpt lat="45.0223804" lon="7.8409374"><ele>298.75</ele><time>2026-04-03T16:31:29.727Z</time></trkpt><trkpt lat="45.0223857" lon="7.8407614"><ele>299.0</ele><time>2026-04-03T16:31:30.736Z</time></trkpt><trkpt lat="45.0223852" lon="7.8405642"><ele>299.0</ele><time>2026-04-03T16:31:31.734Z</time></trkpt><trkpt lat="45.0223781" lon="7.8403458"><ele>299.0</ele><time>2026-04-03T16:31:32.734Z</time></trkpt><trkpt lat="45.0223588" lon="7.8401359"><ele>299.0</ele><time>2026-04-03T16:31:33.733Z</time></trkpt><trkpt lat="45.0223237" lon="7.8399315"><ele>301.6666666666667</ele><time>2026-04-03T16:31:34.734Z</time></trkpt><trkpt lat="45.0222809" lon="7.839722"><ele>304.3333333333333</ele><time>2026-04-03T16:31:35.734Z</time></trkpt><trkpt lat="45.0222319" lon="7.8395085"><ele>307.0</ele><time>2026-04-03T16:31:36.733Z</time></trkpt><trkpt lat="45.0221836" lon="7.8393207"><ele>307.0</ele><time>2026-04-03T16:31:37.737Z</time></trkpt><trkpt lat="45.0221403" lon="7.8391718"><ele>307.0</ele><time>2026-04-03T16:31:38.727Z</time></trkpt><trkpt lat="45.0221005" lon="7.8390412"><ele>307.0</ele><time>2026-04-03T16:31:39.731Z</time></trkpt><trkpt lat="45.0220591" lon="7.8389152"><ele>307.0</ele><time>2026-04-03T16:31:40.731Z</time></trkpt><trkpt lat="45.022009" lon="7.8387918"><ele>307.0</ele><time>2026-04-03T16:31:41.734Z</time></trkpt><trkpt lat="45.0219565" lon="7.8386674"><ele>307.0</ele><time>2026-04-03T16:31:42.749Z</time></trkpt><trkpt lat="45.0219077" lon="7.8385528"><ele>307.0</ele><time>2026-04-03T16:31:43.739Z</time></trkpt><trkpt lat="45.0218594" lon="7.8384539"><ele>307.0</ele><time>2026-04-03T16:31:44.732Z</time></trkpt><trkpt lat="45.0218129" lon="7.8383589"><ele>307.0</ele><time>2026-04-03T16:31:45.731Z</time></trkpt><trkpt lat="45.0217629" lon="7.8382655"><ele>307.0</ele><time>2026-04-03T16:31:46.735Z</time></trkpt><trkpt lat="45.0217118" lon="7.8381745"><ele>307.0</ele><time>2026-04-03T16:31:47.731Z</time></trkpt><trkpt lat="45.0216663" lon="7.8380956"><ele>304.4</ele><time>2026-04-03T16:31:48.738Z</time></trkpt><trkpt lat="45.0216245" lon="7.8380276"><ele>301.79999999999995</ele><time>2026-04-03T16:31:49.737Z</time></trkpt><trkpt lat="45.0215588" lon="7.8379047"><ele>299.2</ele><time>2026-04-03T16:31:51.738Z</time></trkpt><trkpt lat="45.0215189" lon="7.8377816"><ele>296.59999999999997</ele><time>2026-04-03T16:31:53.741Z</time></trkpt><trkpt lat="45.0215054" lon="7.8376492"><ele>294.0</ele><time>2026-04-03T16:31:55.741Z</time></trkpt><trkpt lat="45.0214176" lon="7.8375295"><ele>293.5</ele><time>2026-04-03T16:31:57.73Z</time></trkpt><trkpt lat="45.0213443" lon="7.837469"><ele>293.0</ele><time>2026-04-03T16:31:58.733Z</time></trkpt><trkpt lat="45.0212896" lon="7.837415"><ele>292.5</ele><time>2026-04-03T16:31:59.731Z</time></trkpt><trkpt lat="45.021234" lon="7.8373409"><ele>292.0</ele><time>2026-04-03T16:32:00.727Z</time></trkpt><trkpt lat="45.0211733" lon="7.8372331"><ele>291.5</ele><time>2026-04-03T16:32:01.739Z</time></trkpt><trkpt lat="45.0210999" lon="7.8371116"><ele>291.0</ele><time>2026-04-03T16:32:02.738Z</time></trkpt><trkpt lat="45.0210221" lon="7.8369887"><ele>291.0</ele><time>2026-04-03T16:32:03.742Z</time></trkpt><trkpt lat="45.020944" lon="7.8368732"><ele>291.0</ele><time>2026-04-03T16:32:04.736Z</time></trkpt><trkpt lat="45.0208637" lon="7.8367462"><ele>291.0</ele><time>2026-04-03T16:32:05.739Z</time></trkpt><trkpt lat="45.0207833" lon="7.836622"><ele>291.0</ele><time>2026-04-03T16:32:06.738Z</time></trkpt><trkpt lat="45.0206903" lon="7.836479"><ele>291.0</ele><time>2026-04-03T16:32:07.735Z</time></trkpt><trkpt lat="45.0206014" lon="7.8363368"><ele>291.0</ele><time>2026-04-03T16:32:08.739Z</time></trkpt><trkpt lat="45.0205177" lon="7.8361945"><ele>291.0</ele><time>2026-04-03T16:32:09.734Z</time></trkpt><trkpt lat="45.0204353" lon="7.8360513"><ele>291.0</ele><time>2026-04-03T16:32:10.738Z</time></trkpt><trkpt lat="45.0203573" lon="7.8359197"><ele>291.0</ele><time>2026-04-03T16:32:11.729Z</time></trkpt><trkpt lat="45.0202834" lon="7.8357997"><ele>291.0</ele><time>2026-04-03T16:32:12.732Z</time></trkpt><trkpt lat="45.0202075" lon="7.8356787"><ele>291.0</ele><time>2026-04-03T16:32:13.737Z</time></trkpt><trkpt lat="45.0201354" lon="7.8355612"><ele>291.0</ele><time>2026-04-03T16:32:14.73Z</time></trkpt><trkpt lat="45.0200704" lon="7.8354486"><ele>291.0</ele><time>2026-04-03T16:32:15.738Z</time></trkpt><trkpt lat="45.0200273" lon="7.8353665"><ele>290.6</ele><time>2026-04-03T16:32:16.738Z</time></trkpt><trkpt lat="45.0199667" lon="7.8352563"><ele>290.20000000000005</ele><time>2026-04-03T16:32:19.73Z</time></trkpt><trkpt lat="45.0199174" lon="7.8351605"><ele>289.79999999999995</ele><time>2026-04-03T16:32:21.739Z</time></trkpt><trkpt lat="45.0198423" lon="7.835056"><ele>289.4</ele><time>2026-04-03T16:32:23.738Z</time></trkpt><trkpt lat="45.0197785" lon="7.8349782"><ele>289.0</ele><time>2026-04-03T16:32:24.736Z</time></trkpt><trkpt lat="45.0196885" lon="7.8348538"><ele>289.0</ele><time>2026-04-03T16:32:25.734Z</time></trkpt><trkpt lat="45.0195754" lon="7.8346805"><ele>289.0</ele><time>2026-04-03T16:32:26.731Z</time></trkpt><trkpt lat="45.0194445" lon="7.8344574"><ele>289.0</ele><time>2026-04-03T16:32:27.731Z</time></trkpt><trkpt lat="45.0193478" lon="7.8342896"><ele>289.25</ele><time>2026-04-03T16:32:28.733Z</time></trkpt><trkpt lat="45.0192681" lon="7.834154"><ele>289.5</ele><time>2026-04-03T16:32:29.741Z</time></trkpt><trkpt lat="45.0191947" lon="7.834029"><ele>289.75</ele><time>2026-04-03T16:32:30.736Z</time></trkpt><trkpt lat="45.0191148" lon="7.8338931"><ele>290.0</ele><time>2026-04-03T16:32:31.765Z</time></trkpt><trkpt lat="45.0190377" lon="7.8337692"><ele>290.0</ele><time>2026-04-03T16:32:32.738Z</time></trkpt><trkpt lat="45.0189795" lon="7.833678"><ele>290.0</ele><time>2026-04-03T16:32:33.728Z</time></trkpt><trkpt lat="45.0189332" lon="7.8336037"><ele>290.0</ele><time>2026-04-03T16:32:35.738Z</time></trkpt><trkpt lat="45.0188772" lon="7.8334826"><ele>290.0</ele><time>2026-04-03T16:32:37.732Z</time></trkpt><trkpt lat="45.018828" lon="7.8333679"><ele>290.0</ele><time>2026-04-03T16:32:38.731Z</time></trkpt><trkpt lat="45.0187382" lon="7.8332312"><ele>290.5</ele><time>2026-04-03T16:32:39.735Z</time></trkpt><trkpt lat="45.0186468" lon="7.833087"><ele>291.0</ele><time>2026-04-03T16:32:40.74Z</time></trkpt><trkpt lat="45.0185563" lon="7.8329484"><ele>291.5</ele><time>2026-04-03T16:32:41.736Z</time></trkpt><trkpt lat="45.0184709" lon="7.8328098"><ele>292.0</ele><time>2026-04-03T16:32:42.729Z</time></trkpt><trkpt lat="45.0183811" lon="7.8326673"><ele>292.0</ele><time>2026-04-03T16:32:43.738Z</time></trkpt><trkpt lat="45.0182866" lon="7.8325364"><ele>292.0</ele><time>2026-04-03T16:32:44.74Z</time></trkpt><trkpt lat="45.018191" lon="7.8323891"><ele>292.0</ele><time>2026-04-03T16:32:45.736Z</time></trkpt><trkpt lat="45.0181051" lon="7.8322421"><ele>292.0</ele><time>2026-04-03T16:32:46.736Z</time></trkpt><trkpt lat="45.0180232" lon="7.8320898"><ele>292.0</ele><time>2026-04-03T16:32:47.74Z</time></trkpt><trkpt lat="45.0179351" lon="7.8319486"><ele>292.0</ele><time>2026-04-03T16:32:48.735Z</time></trkpt><trkpt lat="45.0178431" lon="7.8318124"><ele>292.0</ele><time>2026-04-03T16:32:49.736Z</time></trkpt><trkpt lat="45.0177498" lon="7.8316767"><ele>292.0</ele><time>2026-04-03T16:32:50.739Z</time></trkpt><trkpt lat="45.0176579" lon="7.8315353"><ele>292.25</ele><time>2026-04-03T16:32:51.743Z</time></trkpt><trkpt lat="45.0175738" lon="7.8314001"><ele>292.5</ele><time>2026-04-03T16:32:52.73Z</time></trkpt><trkpt lat="45.0174879" lon="7.8312621"><ele>292.75</ele><time>2026-04-03T16:32:53.731Z</time></trkpt><trkpt lat="45.0173989" lon="7.8311103"><ele>293.0</ele><time>2026-04-03T16:32:54.733Z</time></trkpt><trkpt lat="45.0173097" lon="7.8309656"><ele>293.0</ele><time>2026-04-03T16:32:55.742Z</time></trkpt><trkpt lat="45.017217" lon="7.8308137"><ele>293.0</ele><time>2026-04-03T16:32:56.729Z</time></trkpt><trkpt lat="45.0171325" lon="7.8306663"><ele>293.0</ele><time>2026-04-03T16:32:57.732Z</time></trkpt><trkpt lat="45.0170476" lon="7.8305215"><ele>293.0</ele><time>2026-04-03T16:32:58.736Z</time></trkpt><trkpt lat="45.0169766" lon="7.8304051"><ele>293.0</ele><time>2026-04-03T16:32:59.734Z</time></trkpt><trkpt lat="45.016907" lon="7.8302929"><ele>293.0</ele><time>2026-04-03T16:33:00.731Z</time></trkpt><trkpt lat="45.0168419" lon="7.8301806"><ele>293.0</ele><time>2026-04-03T16:33:01.733Z</time></trkpt><trkpt lat="45.0167764" lon="7.8300745"><ele>293.0</ele><time>2026-04-03T16:33:02.733Z</time></trkpt><trkpt lat="45.016709" lon="7.8299606"><ele>293.0</ele><time>2026-04-03T16:33:03.736Z</time></trkpt><trkpt lat="45.0166381" lon="7.8298459"><ele>292.83333333333337</ele><time>2026-04-03T16:33:04.736Z</time></trkpt><trkpt lat="45.0165666" lon="7.8297328"><ele>292.6666666666667</ele><time>2026-04-03T16:33:05.737Z</time></trkpt><trkpt lat="45.0164975" lon="7.8296312"><ele>292.5</ele><time>2026-04-03T16:33:06.729Z</time></trkpt><trkpt lat="45.0164374" lon="7.8295452"><ele>292.3333333333333</ele><time>2026-04-03T16:33:07.732Z</time></trkpt><trkpt lat="45.0163912" lon="7.8294794"><ele>292.16666666666663</ele><time>2026-04-03T16:33:08.733Z</time></trkpt><trkpt lat="45.0163429" lon="7.8293962"><ele>292.0</ele><time>2026-04-03T16:33:10.741Z</time></trkpt><trkpt lat="45.0162858" lon="7.8293007"><ele>291.8333333333333</ele><time>2026-04-03T16:33:13.746Z</time></trkpt><trkpt lat="45.0162354" lon="7.8292471"><ele>291.66666666666663</ele><time>2026-04-03T16:34:33.735Z</time></trkpt><trkpt lat="45.0161974" lon="7.8291619"><ele>291.5</ele><time>2026-04-03T16:34:34.73Z</time></trkpt><trkpt lat="45.0161535" lon="7.8290859"><ele>291.3333333333333</ele><time>2026-04-03T16:34:35.726Z</time></trkpt><trkpt lat="45.0160992" lon="7.8289905"><ele>291.1666666666667</ele><time>2026-04-03T16:34:36.736Z</time></trkpt><trkpt lat="45.0160465" lon="7.8288952"><ele>291.0</ele><time>2026-04-03T16:34:37.734Z</time></trkpt><trkpt lat="45.0159957" lon="7.8287854"><ele>291.0</ele><time>2026-04-03T16:34:38.741Z</time></trkpt><trkpt lat="45.015948" lon="7.8286929"><ele>291.0</ele><time>2026-04-03T16:34:39.737Z</time></trkpt><trkpt lat="45.0158942" lon="7.8285826"><ele>291.0</ele><time>2026-04-03T16:34:40.734Z</time></trkpt><trkpt lat="45.0158366" lon="7.8284765"><ele>291.0</ele><time>2026-04-03T16:34:41.732Z</time></trkpt><trkpt lat="45.015796" lon="7.8283721"><ele>291.0</ele><time>2026-04-03T16:34:42.74Z</time></trkpt><trkpt lat="45.0157739" lon="7.8282687"><ele>291.0</ele><time>2026-04-03T16:34:43.739Z</time></trkpt><trkpt lat="45.0157805" lon="7.8281588"><ele>291.0</ele><time>2026-04-03T16:34:44.732Z</time></trkpt><trkpt lat="45.0158091" lon="7.8280641"><ele>291.0</ele><time>2026-04-03T16:34:45.738Z</time></trkpt><trkpt lat="45.0158431" lon="7.8279556"><ele>291.0</ele><time>2026-04-03T16:34:46.736Z</time></trkpt><trkpt lat="45.0158642" lon="7.8278643"><ele>291.0</ele><time>2026-04-03T16:34:47.727Z</time></trkpt><trkpt lat="45.0158936" lon="7.8276831"><ele>291.0</ele><time>2026-04-03T16:34:49.743Z</time></trkpt><trkpt lat="45.0159067" lon="7.8275853"><ele>291.0</ele><time>2026-04-03T16:34:50.741Z</time></trkpt><trkpt lat="45.0159197" lon="7.82749"><ele>291.3333333333333</ele><time>2026-04-03T16:34:51.763Z</time></trkpt><trkpt lat="45.0159385" lon="7.8274047"><ele>291.6666666666667</ele><time>2026-04-03T16:34:52.729Z</time></trkpt><trkpt lat="45.0159687" lon="7.8272764"><ele>292.0</ele><time>2026-04-03T16:34:54.737Z</time></trkpt><trkpt lat="45.0159978" lon="7.8271471"><ele>292.33333333333337</ele><time>2026-04-03T16:35:00.742Z</time></trkpt><trkpt lat="45.0160254" lon="7.827025"><ele>292.6666666666667</ele><time>2026-04-03T16:35:01.737Z</time></trkpt><trkpt lat="45.0160563" lon="7.8268844"><ele>293.0</ele><time>2026-04-03T16:35:02.734Z</time></trkpt><trkpt lat="45.0160879" lon="7.8267116"><ele>293.33333333333337</ele><time>2026-04-03T16:35:03.733Z</time></trkpt><trkpt lat="45.0161272" lon="7.8265178"><ele>293.6666666666667</ele><time>2026-04-03T16:35:04.734Z</time></trkpt><trkpt lat="45.0161694" lon="7.8262987"><ele>294.0</ele><time>2026-04-03T16:35:05.744Z</time></trkpt><trkpt lat="45.0162214" lon="7.8260593"><ele>294.3333333333333</ele><time>2026-04-03T16:35:06.733Z</time></trkpt><trkpt lat="45.0162723" lon="7.8257981"><ele>294.66666666666663</ele><time>2026-04-03T16:35:07.733Z</time></trkpt><trkpt lat="45.0163165" lon="7.8255477"><ele>295.0</ele><time>2026-04-03T16:35:08.746Z</time></trkpt><trkpt lat="45.0163611" lon="7.8253046"><ele>296.3333333333333</ele><time>2026-04-03T16:35:09.738Z</time></trkpt><trkpt lat="45.0163882" lon="7.8250731"><ele>297.6666666666667</ele><time>2026-04-03T16:35:10.731Z</time></trkpt><trkpt lat="45.01641" lon="7.8248275"><ele>299.0</ele><time>2026-04-03T16:35:11.733Z</time></trkpt><trkpt lat="45.0164206" lon="7.8245685"><ele>301.33333333333337</ele><time>2026-04-03T16:35:12.734Z</time></trkpt><trkpt lat="45.0164316" lon="7.8243079"><ele>303.6666666666667</ele><time>2026-04-03T16:35:13.739Z</time></trkpt><trkpt lat="45.0164471" lon="7.8240479"><ele>306.0</ele><time>2026-04-03T16:35:14.735Z</time></trkpt><trkpt lat="45.0164509" lon="7.8237744"><ele>306.0</ele><time>2026-04-03T16:35:15.736Z</time></trkpt><trkpt lat="45.0164391" lon="7.8235227"><ele>306.0</ele><time>2026-04-03T16:35:16.739Z</time></trkpt><trkpt lat="45.0164219" lon="7.823269"><ele>306.0</ele><time>2026-04-03T16:35:17.737Z</time></trkpt><trkpt lat="45.0163962" lon="7.8230175"><ele>305.6666666666667</ele><time>2026-04-03T16:35:18.737Z</time></trkpt><trkpt lat="45.0163642" lon="7.8227823"><ele>305.33333333333337</ele><time>2026-04-03T16:35:19.734Z</time></trkpt><trkpt lat="45.0163336" lon="7.822554"><ele>305.0</ele><time>2026-04-03T16:35:20.735Z</time></trkpt><trkpt lat="45.0163137" lon="7.8223523"><ele>305.0</ele><time>2026-04-03T16:35:21.739Z</time></trkpt><trkpt lat="45.0162965" lon="7.8221766"><ele>305.0</ele><time>2026-04-03T16:35:22.743Z</time></trkpt><trkpt lat="45.0162843" lon="7.8220483"><ele>305.0</ele><time>2026-04-03T16:35:23.74Z</time></trkpt><trkpt lat="45.016275" lon="7.8219534"><ele>305.0</ele><time>2026-04-03T16:35:24.739Z</time></trkpt><trkpt lat="45.0162635" lon="7.8218177"><ele>305.0</ele><time>2026-04-03T16:35:26.73Z</time></trkpt><trkpt lat="45.0162502" lon="7.8216179"><ele>304.5</ele><time>2026-04-03T16:35:28.734Z</time></trkpt><trkpt lat="45.0162405" lon="7.821458"><ele>304.0</ele><time>2026-04-03T16:35:29.736Z</time></trkpt><trkpt lat="45.016234" lon="7.8212903"><ele>303.5</ele><time>2026-04-03T16:35:30.738Z</time></trkpt><trkpt lat="45.0162346" lon="7.8211283"><ele>303.0</ele><time>2026-04-03T16:35:31.73Z</time></trkpt><trkpt lat="45.0162488" lon="7.8209777"><ele>302.4</ele><time>2026-04-03T16:35:32.731Z</time></trkpt><trkpt lat="45.0162674" lon="7.8208394"><ele>301.8</ele><time>2026-04-03T16:35:33.73Z</time></trkpt><trkpt lat="45.0162931" lon="7.8207136"><ele>301.2</ele><time>2026-04-03T16:35:34.738Z</time></trkpt><trkpt lat="45.0163212" lon="7.8205906"><ele>300.6</ele><time>2026-04-03T16:35:35.734Z</time></trkpt><trkpt lat="45.0163515" lon="7.82047"><ele>300.0</ele><time>2026-04-03T16:35:36.744Z</time></trkpt><trkpt lat="45.0163888" lon="7.8203524"><ele>300.0</ele><time>2026-04-03T16:35:37.735Z</time></trkpt><trkpt lat="45.0164212" lon="7.8202426"><ele>300.0</ele><time>2026-04-03T16:35:38.73Z</time></trkpt><trkpt lat="45.0164433" lon="7.8201508"><ele>300.0</ele><time>2026-04-03T16:35:39.732Z</time></trkpt><trkpt lat="45.0164777" lon="7.8200125"><ele>300.0</ele><time>2026-04-03T16:35:41.738Z</time></trkpt><trkpt lat="45.0165192" lon="7.8198489"><ele>300.0</ele><time>2026-04-03T16:35:43.736Z</time></trkpt><trkpt lat="45.0165206" lon="7.8197091"><ele>298.8</ele><time>2026-04-03T16:35:45.733Z</time></trkpt><trkpt lat="45.0164662" lon="7.8196553"><ele>297.6</ele><time>2026-04-03T16:35:46.742Z</time></trkpt><trkpt lat="45.0163762" lon="7.8196098"><ele>296.4</ele><time>2026-04-03T16:35:47.74Z</time></trkpt><trkpt lat="45.0162713" lon="7.8195668"><ele>295.2</ele><time>2026-04-03T16:35:48.742Z</time></trkpt><trkpt lat="45.0161735" lon="7.8195258"><ele>294.0</ele><time>2026-04-03T16:35:49.734Z</time></trkpt><trkpt lat="45.0160691" lon="7.8194719"><ele>294.0</ele><time>2026-04-03T16:35:50.74Z</time></trkpt><trkpt lat="45.0159728" lon="7.8194198"><ele>294.0</ele><time>2026-04-03T16:35:51.739Z</time></trkpt><trkpt lat="45.0158773" lon="7.8193713"><ele>294.0</ele><time>2026-04-03T16:35:52.736Z</time></trkpt><trkpt lat="45.0157832" lon="7.8193211"><ele>294.0</ele><time>2026-04-03T16:35:53.739Z</time></trkpt><trkpt lat="45.0156915" lon="7.8192688"><ele>294.0</ele><time>2026-04-03T16:35:54.731Z</time></trkpt><trkpt lat="45.0156193" lon="7.8191833"><ele>293.8333333333333</ele><time>2026-04-03T16:35:55.741Z</time></trkpt><trkpt lat="45.01555" lon="7.8190974"><ele>293.6666666666667</ele><time>2026-04-03T16:35:56.734Z</time></trkpt><trkpt lat="45.0154846" lon="7.8190225"><ele>293.5</ele><time>2026-04-03T16:35:57.745Z</time></trkpt><trkpt lat="45.0154179" lon="7.818953"><ele>293.33333333333337</ele><time>2026-04-03T16:35:58.733Z</time></trkpt><trkpt lat="45.015357" lon="7.8188847"><ele>293.1666666666667</ele><time>2026-04-03T16:35:59.73Z</time></trkpt><trkpt lat="45.0153028" lon="7.8188092"><ele>293.0</ele><time>2026-04-03T16:36:00.733Z</time></trkpt><trkpt lat="45.0152521" lon="7.8187373"><ele>293.0</ele><time>2026-04-03T16:36:01.738Z</time></trkpt><trkpt lat="45.0152025" lon="7.81867"><ele>293.0</ele><time>2026-04-03T16:36:02.733Z</time></trkpt><trkpt lat="45.015152" lon="7.8186159"><ele>293.0</ele><time>2026-04-03T16:36:03.735Z</time></trkpt><trkpt lat="45.0150828" lon="7.8185654"><ele>293.0</ele><time>2026-04-03T16:36:04.735Z</time></trkpt><trkpt lat="45.0150072" lon="7.8185272"><ele>293.0</ele><time>2026-04-03T16:36:05.734Z</time></trkpt><trkpt lat="45.0149114" lon="7.8184819"><ele>293.0</ele><time>2026-04-03T16:36:06.737Z</time></trkpt><trkpt lat="45.0148256" lon="7.8184408"><ele>292.6666666666667</ele><time>2026-04-03T16:36:07.737Z</time></trkpt><trkpt lat="45.0147613" lon="7.8184054"><ele>292.33333333333337</ele><time>2026-04-03T16:36:08.741Z</time></trkpt><trkpt lat="45.0146958" lon="7.8183724"><ele>292.0</ele><time>2026-04-03T16:36:09.739Z</time></trkpt><trkpt lat="45.0146153" lon="7.8183313"><ele>291.6666666666667</ele><time>2026-04-03T16:36:10.733Z</time></trkpt><trkpt lat="45.014529" lon="7.8182928"><ele>291.3333333333333</ele><time>2026-04-03T16:36:11.739Z</time></trkpt><trkpt lat="45.0144389" lon="7.8182489"><ele>291.0</ele><time>2026-04-03T16:36:12.739Z</time></trkpt><trkpt lat="45.0143467" lon="7.8182006"><ele>291.0</ele><time>2026-04-03T16:36:13.738Z</time></trkpt><trkpt lat="45.0142552" lon="7.8181491"><ele>291.0</ele><time>2026-04-03T16:36:14.738Z</time></trkpt><trkpt lat="45.0141786" lon="7.8181086"><ele>291.0</ele><time>2026-04-03T16:36:15.737Z</time></trkpt><trkpt lat="45.014106" lon="7.8180725"><ele>291.0</ele><time>2026-04-03T16:36:16.74Z</time></trkpt><trkpt lat="45.0140352" lon="7.8180372"><ele>291.0</ele><time>2026-04-03T16:36:17.744Z</time></trkpt><trkpt lat="45.0139637" lon="7.8180013"><ele>291.0</ele><time>2026-04-03T16:36:18.733Z</time></trkpt><trkpt lat="45.0138885" lon="7.8179637"><ele>291.0</ele><time>2026-04-03T16:36:19.736Z</time></trkpt><trkpt lat="45.0138063" lon="7.8179199"><ele>291.0</ele><time>2026-04-03T16:36:20.733Z</time></trkpt><trkpt lat="45.013729" lon="7.8178714"><ele>291.0</ele><time>2026-04-03T16:36:21.733Z</time></trkpt><trkpt lat="45.0136501" lon="7.8178124"><ele>291.0</ele><time>2026-04-03T16:36:22.742Z</time></trkpt><trkpt lat="45.0135826" lon="7.8177435"><ele>291.0</ele><time>2026-04-03T16:36:23.739Z</time></trkpt><trkpt lat="45.0135268" lon="7.8176846"><ele>291.0</ele><time>2026-04-03T16:36:24.743Z</time></trkpt><trkpt lat="45.0134481" lon="7.8176059"><ele>291.0</ele><time>2026-04-03T16:36:26.736Z</time></trkpt><trkpt lat="45.0133627" lon="7.8175202"><ele>291.0</ele><time>2026-04-03T16:36:28.731Z</time></trkpt><trkpt lat="45.0133201" lon="7.8174455"><ele>291.0</ele><time>2026-04-03T16:36:30.733Z</time></trkpt><trkpt lat="45.0132793" lon="7.81735"><ele>291.0</ele><time>2026-04-03T16:36:49.733Z</time></trkpt><trkpt lat="45.0132171" lon="7.8172653"><ele>291.0</ele><time>2026-04-03T16:36:50.742Z</time></trkpt><trkpt lat="45.0131455" lon="7.8171789"><ele>291.0</ele><time>2026-04-03T16:36:51.731Z</time></trkpt><trkpt lat="45.0130665" lon="7.8170834"><ele>291.0</ele><time>2026-04-03T16:36:52.736Z</time></trkpt><trkpt lat="45.0129773" lon="7.8169957"><ele>291.0</ele><time>2026-04-03T16:36:53.743Z</time></trkpt><trkpt lat="45.0128807" lon="7.8169059"><ele>291.0</ele><time>2026-04-03T16:36:54.741Z</time></trkpt><trkpt lat="45.0127757" lon="7.8168076"><ele>291.0</ele><time>2026-04-03T16:36:55.742Z</time></trkpt><trkpt lat="45.0126715" lon="7.8166933"><ele>291.0</ele><time>2026-04-03T16:36:56.739Z</time></trkpt><trkpt lat="45.0125624" lon="7.8165742"><ele>291.0</ele><time>2026-04-03T16:36:57.741Z</time></trkpt><trkpt lat="45.0124663" lon="7.8164624"><ele>291.0</ele><time>2026-04-03T16:36:58.737Z</time></trkpt><trkpt lat="45.0123869" lon="7.8163532"><ele>291.0</ele><time>2026-04-03T16:36:59.737Z</time></trkpt><trkpt lat="45.012315" lon="7.8162608"><ele>290.8</ele><time>2026-04-03T16:37:00.733Z</time></trkpt><trkpt lat="45.0122516" lon="7.8161693"><ele>290.6</ele><time>2026-04-03T16:37:01.738Z</time></trkpt><trkpt lat="45.0121906" lon="7.8160767"><ele>290.4</ele><time>2026-04-03T16:37:02.737Z</time></trkpt><trkpt lat="45.0121173" lon="7.8159623"><ele>290.2</ele><time>2026-04-03T16:37:03.737Z</time></trkpt><trkpt lat="45.0120427" lon="7.8158505"><ele>290.0</ele><time>2026-04-03T16:37:04.749Z</time></trkpt><trkpt lat="45.0119634" lon="7.8157775"><ele>290.5</ele><time>2026-04-03T16:37:05.736Z</time></trkpt><trkpt lat="45.0118738" lon="7.8157468"><ele>291.0</ele><time>2026-04-03T16:37:06.737Z</time></trkpt><trkpt lat="45.0117726" lon="7.8157307"><ele>291.5</ele><time>2026-04-03T16:37:07.739Z</time></trkpt><trkpt lat="45.0116776" lon="7.8157324"><ele>292.0</ele><time>2026-04-03T16:37:08.741Z</time></trkpt><trkpt lat="45.0115969" lon="7.8157606"><ele>292.5</ele><time>2026-04-03T16:37:09.742Z</time></trkpt><trkpt lat="45.0115365" lon="7.8157877"><ele>293.0</ele><time>2026-04-03T16:37:10.737Z</time></trkpt><trkpt lat="45.0114726" lon="7.8158126"><ele>293.0</ele><time>2026-04-03T16:37:11.735Z</time></trkpt><trkpt lat="45.0113755" lon="7.8158703"><ele>293.0</ele><time>2026-04-03T16:37:13.744Z</time></trkpt><trkpt lat="45.0113014" lon="7.8159235"><ele>293.0</ele><time>2026-04-03T16:37:15.74Z</time></trkpt></trkseg></trk></gpx>